[[{"header":{"parameterUnit":"m.s-1","parameterCategory":1,"la1":30.6,"la2":28.766,"lo1":-90.7593,"lo2":-88.6598,"dy":0.0162,"dx":0.0183,"nx":116,"ny":114,"refTime":"2023-09-27T18:00:00:Z","depth":0,"parameterNumber":2,"parameterNumberName":"U-component_of_WINDS"},"data":[0.0,0.0,0.0,0.0,0.0,0.0,0.0,0.0,0.0,0.0,0.0,0.0,0.0,0.0,0.0,0.0,0.0,0.0,0.0,0.0,0.0,0.0,0.0,0.0,0.0,0.0,0.0,0.0,0.0,0.0,0.0,0.0,0.0,0.0,0.0,0.0,0.0,0.0,0.0,0.0,0.0,0.0,0.0,0.0,0.0,0.0,0.0,0.0,0.0,0.0,0.0,0.0,0.0,0.0,0.0,0.0,0.0,0.0,0.0,0.0,0.0,0.0,0.0,0.0,0.0,0.0,0.0,0.0,0.0,0.0,0.0,0.0,0.0,0.0,0.0,0.0,0.0,0.0,0.0,0.0,0.0,0.0,0.0,0.0,0.0,0.0,0.0,0.0,0.0,0.0,0.0,0.0,0.0,0.0,0.0,0.0,0.0,0.0,0.0,0.0,0.0,0.0,0.0,0.0,0.0,0.0,0.0,0.0,0.0,0.0,0.0,0.0,0.0,0.0,0.0,0.0,0.0,0.0,0.0,0.0,0.0,0.0,0.0,0.0,0.0,0.0,0.0,0.0,0.0,0.0,0.0,0.0,0.0,0.0,0.0,0.0,0.0,0.0,0.0,0.0,0.0,0.0,0.0,0.0,0.0,0.0,0.0,0.0,0.0,0.0,0.0,0.0,0.0,0.0,0.0,0.0,0.0,0.0,0.0,0.0,0.0,0.0,0.0,0.0,0.0,0.0,0.0,0.0,0.0,0.0,0.0,0.0,0.0,0.0,0.0,0.0,0.0,0.0,0.0,0.0,0.0,0.0,0.0,0.0,0.0,0.0,0.0,0.0,0.0,0.0,0.0,0.0,0.0,0.0,0.0,0.0,0.0,0.0,0.0,0.0,0.0,0.0,0.0,0.0,0.0,0.0,0.0,0.0,0.0,0.0,0.0,0.0,0.0,0.0,0.0,0.0,0.0,0.0,0.0,0.0,0.0,0.0,0.0,0.0,0.0,0.0,0.0,0.0,0.0,0.0,0.0,0.0,0.0,0.0,0.0,0.0,0.0,0.0,0.0,0.0,0.0,0.0,0.0,0.0,0.0,0.0,0.0,0.0,0.0,0.0,0.0,0.0,0.0,0.0,0.0,0.0,0.0,0.0,0.0,0.0,0.0,0.0,0.0,0.0,0.0,0.0,0.0,0.0,0.0,0.0,0.0,0.0,0.0,0.0,0.0,0.0,0.0,0.0,0.0,0.0,0.0,0.0,0.0,0.0,0.0,0.0,0.0,0.0,0.0,0.0,0.0,0.0,0.0,0.0,0.0,0.0,0.0,0.0,0.0,0.0,0.0,0.0,0.0,0.0,0.0,0.0,0.0,0.0,0.0,0.0,0.0,0.0,0.0,0.0,0.0,0.0,0.0,0.0,0.0,0.0,0.0,0.0,0.0,0.0,0.0,0.0,0.0,0.0,0.0,0.0,0.0,0.0,0.0,0.0,0.0,0.0,0.0,0.0,0.0,0.0,0.0,0.0,0.0,0.0,0.0,0.0,0.0,0.0,0.0,0.0,0.0,0.0,0.0,0.0,0.0,0.0,0.0,0.0,0.0,0.0,0.0,0.0,0.0,0.0,0.0,0.0,0.0,0.0,0.0,0.0,0.0,0.0,0.0,0.0,0.0,0.0,0.0,0.0,0.0,0.0,0.0,0.0,0.0,0.0,0.0,0.0,0.0,0.0,0.0,0.0,0.0,0.0,0.0,0.0,0.0,0.0,0.0,0.0,0.0,0.0,0.0,0.0,0.0,0.0,0.0,0.0,0.0,0.0,0.0,0.0,0.0,0.0,0.0,0.0,0.0,0.0,0.0,0.0,0.0,0.0,0.0,0.0,0.0,0.0,0.0,0.0,0.0,0.0,0.0,0.0,0.0,0.0,0.0,0.0,0.0,0.0,0.0,0.0,0.0,0.0,0.0,0.0,0.0,0.0,0.0,0.0,0.0,0.0,0.0,0.0,0.0,0.0,0.0,0.0,0.0,0.0,0.0,0.0,0.0,0.0,0.0,0.0,0.0,0.0,0.0,0.0,0.0,0.0,0.0,0.0,0.0,0.0,0.0,0.0,0.0,0.0,0.0,0.0,0.0,0.0,0.0,0.0,0.0,0.0,0.0,0.0,0.0,0.0,0.0,0.0,0.0,0.0,0.0,0.0,0.0,0.0,0.0,0.0,0.0,0.0,0.0,0.0,0.0,0.0,0.0,0.0,0.0,0.0,0.0,0.0,0.0,0.0,0.0,0.0,0.0,0.0,0.0,0.0,0.0,0.0,0.0,0.0,0.0,0.0,0.0,0.0,0.0,0.0,0.0,0.0,0.0,0.0,0.0,0.0,0.0,0.0,0.0,0.0,0.0,0.0,0.0,0.0,0.0,0.0,0.0,0.0,0.0,0.0,0.0,0.0,0.0,0.0,0.0,0.0,0.0,0.0,0.0,0.0,0.0,0.0,0.0,0.0,0.0,0.0,0.0,0.0,0.0,0.0,0.0,0.0,0.0,0.0,0.0,0.0,0.0,0.0,0.0,0.0,0.0,0.0,0.0,0.0,0.0,0.0,0.0,0.0,0.0,0.0,0.0,0.0,0.0,0.0,0.0,0.0,0.0,0.0,0.0,0.0,0.0,0.0,0.0,0.0,0.0,0.0,0.0,0.0,0.0,0.0,0.0,0.0,0.0,0.0,0.0,0.0,0.0,0.0,0.0,0.0,0.0,0.0,0.0,0.0,0.0,0.0,0.0,0.0,0.0,0.0,0.0,0.0,0.0,0.0,0.0,0.0,0.0,0.0,0.0,0.0,0.0,0.0,0.0,0.0,0.0,0.0,0.0,0.0,0.0,0.0,0.0,0.0,0.0,0.0,0.0,0.0,0.0,0.0,0.0,0.0,0.0,0.0,0.0,0.0,0.0,0.0,0.0,0.0,0.0,0.0,0.0,0.0,0.0,0.0,0.0,0.0,0.0,0.0,0.0,0.0,0.0,0.0,0.0,0.0,0.0,0.0,0.0,0.0,0.0,0.0,0.0,0.0,0.0,0.0,0.0,0.0,0.0,0.0,0.0,0.0,0.0,0.0,0.0,0.0,0.0,0.0,0.0,0.0,0.0,0.0,0.0,0.0,0.0,0.0,0.0,0.0,0.0,0.0,0.0,0.0,0.0,0.0,0.0,0.0,0.0,0.0,0.0,0.0,0.0,0.0,0.0,0.0,0.0,0.0,0.0,0.0,0.0,0.0,0.0,0.0,0.0,0.0,0.0,0.0,0.0,0.0,0.0,0.0,0.0,0.0,0.0,0.0,0.0,0.0,0.0,0.0,0.0,0.0,0.0,0.0,0.0,0.0,0.0,0.0,0.0,0.0,0.0,0.0,0.0,0.0,0.0,0.0,0.0,0.0,0.0,0.0,0.0,0.0,0.0,0.0,0.0,0.0,0.0,0.0,0.0,0.0,0.0,0.0,0.0,0.0,0.0,0.0,0.0,0.0,0.0,0.0,0.0,0.0,0.0,0.0,0.0,0.0,0.0,0.0,0.0,0.0,0.0,0.0,0.0,0.0,0.0,0.0,0.0,0.0,0.0,0.0,0.0,0.0,0.0,0.0,0.0,0.0,0.0,0.0,0.0,0.0,0.0,0.0,0.0,0.0,0.0,0.0,0.0,0.0,0.0,0.0,0.0,0.0,0.0,0.0,0.0,0.0,0.0,0.0,0.0,0.0,0.0,0.0,0.0,0.0,0.0,0.0,0.0,0.0,0.0,0.0,0.0,0.0,0.0,0.0,0.0,0.0,0.0,0.0,0.0,0.0,0.0,0.0,0.0,0.0,0.0,0.0,0.0,0.0,0.0,0.0,0.0,0.0,0.0,0.0,0.0,0.0,0.0,0.0,0.0,0.0,0.0,0.0,0.0,0.0,0.0,0.0,0.0,0.0,0.0,0.0,0.0,0.0,0.0,0.0,0.0,0.0,0.0,0.0,0.0,0.0,0.0,0.0,0.0,0.0,0.0,0.0,0.0,0.0,0.0,0.0,0.0,0.0,0.0,0.0,0.0,0.0,0.0,0.0,0.0,0.0,0.0,0.0,0.0,0.0,0.0,0.0,0.0,0.0,0.0,0.0,0.0,0.0,0.0,0.0,0.0,0.0,0.0,0.0,0.0,0.0,0.0,0.0,0.0,0.0,0.0,0.0,0.0,0.0,0.0,0.0,0.0,0.0,0.0,0.0,0.0,0.0,0.0,0.0,0.0,0.0,0.0,0.0,0.0,0.0,0.0,0.0,0.0,0.0,0.0,0.0,0.0,0.0,0.0,0.0,0.0,0.0,0.0,0.0,0.0,0.0,0.0,0.0,0.0,0.0,0.0,0.0,0.0,0.0,0.0,0.0,0.0,0.0,0.0,0.0,0.0,0.0,0.0,0.0,0.0,0.0,0.0,0.0,0.0,0.0,0.0,0.0,0.0,0.0,0.0,0.0,0.0,0.0,0.0,0.0,0.0,0.0,0.0,0.0,0.0,0.0,0.0,0.0,0.0,0.0,0.0,0.0,0.0,0.0,0.0,0.0,0.0,0.0,0.0,0.0,0.0,0.0,0.0,0.0,0.0,0.0,0.0,0.0,0.0,0.0,0.0,0.0,0.0,0.0,0.0,0.0,0.0,0.0,0.0,0.0,0.0,0.0,0.0,0.0,0.0,0.0,0.0,0.0,0.0,0.0,0.0,0.0,0.0,0.0,0.0,0.0,0.0,0.0,0.0,0.0,0.0,0.0,0.0,0.0,0.0,0.0,0.0,0.0,0.0,0.0,0.0,0.0,0.0,0.0,0.0,0.0,0.0,0.0,0.0,0.0,0.0,0.0,0.0,0.0,0.0,0.0,0.0,0.0,0.0,0.0,0.0,0.0,0.0,0.0,0.0,0.0,0.0,0.0,0.0,0.0,0.0,0.0,0.0,0.0,0.0,0.0,0.0,0.0,0.0,0.0,0.0,0.0,0.0,0.0,0.0,0.0,0.0,0.0,0.0,0.0,0.0,0.0,0.0,0.0,0.0,0.0,0.0,0.0,0.0,0.0,0.0,0.0,0.0,0.0,0.0,0.0,0.0,0.0,0.0,0.0,0.0,0.0,0.0,0.0,0.0,0.0,0.0,0.0,0.0,0.0,0.0,0.0,0.0,0.0,0.0,0.0,0.0,0.0,0.0,0.0,0.0,0.0,0.0,0.0,0.0,0.0,0.0,0.0,0.0,0.0,0.0,0.0,0.0,0.0,0.0,0.0,0.0,0.0,0.0,0.0,0.0,0.0,0.0,0.0,0.0,0.0,0.0,0.0,0.0,0.0,0.0,0.0,0.0,0.0,0.0,0.0,0.0,0.0,0.0,0.0,0.0,0.0,0.0,0.0,0.0,0.0,0.0,0.0,0.0,0.0,0.0,0.0,0.0,0.0,0.0,0.0,0.0,0.0,0.0,0.0,0.0,0.0,0.0,0.0,0.0,0.0,0.0,0.0,0.0,0.0,0.0,0.0,0.0,0.0,0.0,0.0,0.0,0.0,0.0,0.0,0.0,0.0,0.0,0.0,0.0,0.0,0.0,0.0,0.0,0.0,0.0,0.0,0.0,0.0,0.0,0.0,0.0,0.0,0.0,0.0,0.0,0.0,0.0,0.0,0.0,0.0,0.0,0.0,0.0,0.0,0.0,0.0,0.0,0.0,0.0,0.0,0.0,0.0,0.0,0.0,0.0,0.0,0.0,0.0,0.0,0.0,0.0,0.0,0.0,0.0,0.0,0.0,0.0,0.0,0.0,0.0,0.0,0.0,0.0,0.0,0.0,0.0,0.0,0.0,0.0,0.0,0.0,0.0,0.0,0.0,0.0,0.0,0.0,0.0,0.0,0.0,0.0,0.0,0.0,0.0,0.0,0.0,0.0,0.0,0.0,0.0,0.0,0.0,0.0,0.0,0.0,0.0,0.0,0.0,0.0,0.0,0.0,0.0,0.0,0.0,0.0,0.0,0.0,0.0,0.0,0.0,0.0,0.0,0.0,0.0,0.0,0.0,0.0,0.0,0.0,0.0,0.0,0.0,0.0,0.0,0.0,0.0,-0.081,0.0,0.0,0.0,0.0,0.0,0.0,0.0,0.0,0.0,0.0,0.0,0.0,0.0,0.0,0.0,0.0,0.0,0.0,0.0,0.0,0.0,0.0,0.0,0.0,0.0,0.0,0.0,0.0,0.0,0.0,0.0,0.0,0.0,0.0,0.0,0.0,0.0,0.0,-2.2252,-2.1946,-2.1352,-2.0465,-1.8566,-1.5598,-1.1827,0.0,0.0,0.0,0.0,0.0,0.0,0.0,0.0,0.0,0.0,0.0,0.0,0.0,0.0,0.0,0.0,0.0,0.0,0.0,0.0,0.0,0.0,0.0,0.0,0.0,0.0,0.0,0.0,0.0,0.0,0.0,0.0,0.0,0.0,0.0,0.0,0.0,0.0,0.0,0.0,0.0,0.0,0.0,0.0,0.0,0.0,0.0,0.0,0.0,0.0,0.0,0.0,0.0,0.0,0.0,0.0,0.0,0.0,0.0,0.0,0.0,0.0,0.0,0.0,0.0,0.0,0.0,0.0,0.0,0.0,0.0,-0.1347,0.0,0.0,0.0,0.0,0.0,0.0,0.0,0.0,0.0,0.0,0.0,0.0,0.0,0.0,0.0,0.0,0.0,0.0,0.0,0.0,0.0,0.0,0.0,-2.2986,-2.3586,-2.3644,-2.2621,-2.1888,0.0,0.0,0.0,0.0,0.0,0.0,-1.9177,-1.9177,-2.0184,-2.2227,-2.1924,-2.1454,-2.0836,-1.9945,-1.7661,-1.4266,-1.3801,0.0,0.0,0.0,0.0,0.0,0.0,0.0,0.0,0.0,0.0,0.0,0.0,0.0,0.0,0.0,0.0,0.0,0.0,0.0,0.0,0.0,0.0,0.0,0.0,0.0,0.0,0.0,0.0,0.0,0.0,0.0,0.0,0.0,0.0,0.0,0.0,0.0,0.0,0.0,0.0,0.0,0.0,0.0,0.0,0.0,0.0,0.0,0.0,0.0,0.0,0.0,0.0,0.0,0.0,0.0,0.0,0.0,0.0,0.0,0.0,0.0,0.0,0.0,-0.4977,-0.4898,-0.482,-0.4629,-0.4598,-0.4632,-0.4329,-0.3379,-0.2059,-0.1826,0.0,0.0,0.0,0.0,0.0,0.0,0.0,0.0,0.0,0.0,0.0,0.0,0.0,0.0,0.0,0.0,0.0,0.0,0.0,-2.1404,-2.2862,-2.2752,-2.273,-2.3075,-2.2277,-2.146,-2.0824,0.0,0.0,0.0,0.0,-1.6796,-1.7917,-1.794,-1.8832,-2.069,-2.1585,-2.1746,-2.1135,-2.0994,-2.009,-1.8465,-1.615,-1.4558,-1.363,0.0,0.0,0.0,0.0,0.0,0.0,0.0,0.0,0.0,0.0,0.0,0.0,0.0,0.0,0.0,0.0,0.0,0.0,0.0,0.0,0.0,0.0,0.0,0.0,0.0,0.0,0.0,0.0,0.0,0.0,0.0,0.0,0.0,0.0,0.0,0.0,0.0,0.0,0.0,0.0,0.0,-1.2507,-1.2563,0.0,0.0,0.0,0.0,0.0,0.0,0.0,0.0,0.0,0.0,0.0,0.0,0.0,-1.0425,-1.0541,-1.0993,-1.0668,-0.9557,-0.954,-0.9037,-0.8045,-0.745,-0.7216,-0.722,-0.7048,0.0,-0.3436,-0.2378,0.0,0.0,0.0,0.0,0.0,0.0,0.0,0.0,0.0,0.0,0.0,0.0,0.0,0.0,0.0,0.0,0.0,0.0,0.0,0.0,0.0,-2.1672,-2.208,-2.2008,-2.1588,-2.0897,-1.9754,-1.8407,0.0,0.0,-1.6198,-1.6218,-1.7127,-1.7141,-1.8275,-2.0582,-2.2394,-2.2871,-2.2155,-2.1956,-2.1509,-2.0802,-1.9494,-1.8049,-1.6594,-1.6263,0.0,0.0,0.0,0.0,0.0,0.0,0.0,0.0,0.0,0.0,0.0,0.0,0.0,0.0,0.0,0.0,0.0,0.0,0.0,0.0,0.0,0.0,0.0,0.0,0.0,0.0,0.0,0.0,0.0,0.0,0.0,0.0,0.0,0.0,0.0,0.0,0.0,0.0,0.0,-1.2423,-1.2642,-1.2251,-1.1861,-1.1141,0.0,0.0,0.0,0.0,0.0,0.0,0.0,0.0,0.0,-1.0163,-1.0305,-1.05,-1.0762,-1.1261,-1.1102,-1.0161,-1.0076,-0.9513,-0.8576,-0.8177,-0.7991,-0.8036,-0.7942,-0.7251,-0.6114,-0.4646,-0.398,-0.3693,0.0,0.0,0.0,0.0,0.0,0.0,0.0,0.0,0.0,0.0,0.0,0.0,0.0,0.0,0.0,0.0,0.0,0.0,-1.9436,-2.0569,-2.114,-2.0773,-2.0464,-1.9807,-1.8673,-1.743,-1.6597,-1.6313,-1.5992,-1.6048,-1.658,-1.7114,-1.8496,-2.0708,-2.2729,-2.3467,-2.2883,-2.2659,-2.2458,-2.2311,-2.205,-2.1114,-1.961,-1.8649,-1.6894,-1.4719,0.0,0.0,0.0,0.0,0.0,0.0,0.0,0.0,0.0,0.0,0.0,0.0,0.0,0.0,0.0,0.0,0.0,0.0,0.0,0.0,0.0,0.0,0.0,0.0,0.0,0.0,0.0,0.0,0.0,0.0,0.0,0.0,0.0,0.0,0.0,0.0,0.0,-1.1845,-1.2334,-1.1656,-1.1417,-1.0946,0.0,0.0,0.0,0.0,0.0,0.0,-1.047,-1.0108,-1.0022,-1.0288,-1.0378,-1.051,-1.0741,-1.1343,-1.1096,-1.0081,-1.018,-0.9651,-0.8534,-0.8375,-0.8326,-0.8362,-0.8272,-0.7994,-0.7478,-0.589,-0.4901,-0.4176,-0.2196,-0.1589,-0.1695,-0.0458,0.0,0.0,0.0,0.0,0.0,0.0,0.0,0.0,0.0,0.0,0.0,0.0,0.0,-1.8631,-1.9933,-1.9798,-1.9594,-1.9511,-1.8663,-1.7954,-1.7515,-1.6919,-1.6523,-1.6313,-1.5992,-1.5955,-1.631,-1.8251,-1.9752,-2.0707,-2.1902,-2.2626,-2.2895,-2.2887,-2.2993,-2.3212,-2.2939,-2.2479,-2.1697,-1.972,-1.7821,-1.5965,-1.334,0.0,0.0,0.0,0.0,0.0,0.0,0.0,0.0,0.0,0.0,0.0,0.0,0.0,0.0,0.0,0.0,0.0,0.0,0.0,0.0,0.0,0.0,0.0,0.0,0.0,0.0,0.0,0.0,0.0,0.0,0.0,0.0,0.0,0.0,0.0,0.0,0.0,0.0,-0.9977,-1.0788,0.0,0.0,0.0,0.0,-1.0799,-1.0366,-1.0215,-1.0476,-1.013,-1.0157,-1.0736,-1.1079,-1.137,-1.1646,-1.2614,-1.217,-1.0316,-1.1216,-1.0659,-0.8672,-0.8628,-0.8542,-0.8504,-0.8366,-0.7545,-0.6176,-0.484,-0.4944,-0.5578,-0.1645,-0.0962,-0.1983,-0.0523,0.0,0.0,0.0,0.0,0.0,0.0,0.0,0.0,0.0,0.0,-1.6308,-1.6466,-1.6676,-1.7125,-1.7955,-1.8515,-1.8778,-1.8641,-1.8813,-1.8532,-1.747,-1.7094,-1.6968,-1.7077,-1.6633,-1.6981,-1.8264,-1.9575,-2.0672,-2.1555,-2.2712,-2.3247,-2.3166,-2.3554,-2.3781,-2.3875,-2.3616,-2.3469,-2.33,-2.1603,-1.9999,-1.834,-1.5927,-1.3481,0.0,0.0,0.0,0.0,0.0,0.0,0.0,0.0,0.0,0.0,0.0,0.0,0.0,0.0,0.0,0.0,0.0,0.0,0.0,0.0,0.0,0.0,0.0,0.0,0.0,0.0,0.0,0.0,0.0,0.0,0.0,0.0,0.0,0.0,0.0,0.0,0.0,-1.0717,-1.1613,0.0,-1.1103,-1.086,-1.0871,-1.1096,-1.0718,-1.0599,-1.0922,-1.0455,-1.0243,-1.0483,-1.0773,-1.098,-1.106,-1.2042,-1.1901,-1.0545,-0.9813,-0.874,-0.7372,-0.6339,-0.5842,-0.5775,-0.5753,-0.5437,-0.4857,-0.3496,-0.3569,-0.4407,-0.2111,-0.1476,-0.1738,-0.0461,0.0,0.0,0.0,0.0,0.0,0.0,0.0,0.0,0.0,0.0,-1.5803,-1.5809,-1.6139,-1.6561,-1.7024,-1.7968,-1.8501,-1.8406,-1.8775,-1.862,-1.7654,-1.7131,-1.7009,-1.7372,-1.7331,-1.7996,-1.9508,-2.0592,-2.1489,-2.2124,-2.3126,-2.346,-2.318,-2.3377,-2.3559,-2.3651,-2.3203,-2.3125,-2.3318,-2.2237,-2.1058,-1.9655,-1.7191,-1.4772,-1.2379,0.0,0.0,0.0,0.0,0.0,0.0,0.0,0.0,0.0,0.0,0.0,0.0,0.0,0.0,0.0,0.0,0.0,0.0,0.0,0.0,0.0,0.0,0.0,0.0,0.0,0.0,0.0,0.0,0.0,0.0,0.0,0.0,0.0,0.0,-1.037,-1.1021,-1.0553,-1.1513,-1.1919,-1.1195,-1.1069,-1.1101,-1.1309,-1.0959,-1.0805,-1.1002,-0.9848,-0.9169,-0.914,-0.8814,-0.8893,-0.9421,-0.9905,-0.9888,-0.9418,-0.8123,-0.6958,-0.5907,-0.4799,-0.4314,-0.43,-0.43,-0.403,-0.353,-0.2575,-0.2328,-0.2417,-0.1574,-0.1205,-0.1053,-0.0288,0.0,0.0041,0.0,0.0,0.0,0.0,0.0,0.0,-1.5494,-1.5737,-1.5744,-1.5795,-1.6436,-1.7025,-1.734,-1.8113,-1.8652,-1.8774,-1.8336,-1.8062,-1.7978,-1.6971,-1.6621,-1.717,-1.8036,-1.8901,-1.9794,-2.1192,-2.2071,-2.2344,-2.2929,-2.311,-2.2831,-2.2344,-2.2238,-2.2481,-2.1714,-2.1498,-2.1751,-2.145,-2.0789,-1.9709,-1.6912,-1.456,-1.2548,0.0,0.0,0.0,0.0,0.0,0.0,0.0,0.0,0.0,0.0,0.0,0.0,0.0,0.0,0.0,0.0,0.0,0.0,0.0,0.0,0.0,0.0,0.0,0.0,0.0,0.0,0.0,0.0,0.0,0.0,0.0,0.0,0.0,-0.9364,-1.0179,-1.0407,-0.9316,-1.0383,-1.0937,-1.0252,-1.0949,-1.1406,-1.1452,-1.0881,-1.049,-1.0441,-0.8201,-0.6884,-0.6821,-0.5365,-0.5314,-0.6815,-0.6311,-0.6328,-0.6811,-0.6233,-0.5396,-0.4316,-0.4269,-0.4248,-0.4165,-0.4165,-0.3397,-0.2113,-0.2138,-0.1288,0.0,0.0,0.0,0.0043,0.0043,0.0043,0.021,0.0,0.0,0.0,0.0,0.0,0.0,-1.4172,-1.4411,-1.4752,-1.567,-1.6397,-1.6902,-1.7168,-1.7807,-1.8239,-1.8306,-1.7852,-1.75,-1.7348,-1.6633,-1.6518,-1.7314,-1.7948,-1.8772,-1.9774,-2.0191,-2.0712,-2.1381,-2.1612,-2.1749,-2.1802,-2.1931,-2.1534,-2.0791,-2.0729,-2.0731,-2.0739,-1.9937,-1.9428,-1.9065,-1.7693,-1.6556,-1.5471,0.0,0.0,0.0,0.0,0.0,0.0,0.0,0.0,0.0,0.0,0.0,0.0,0.0,0.0,0.0,0.0,0.0,0.0,0.0,0.0,0.0,0.0,0.0,0.0,0.0,0.0,0.0,0.0,0.0,0.0,0.0,-0.9756,-1.0232,-1.0369,-1.0498,-1.0639,-1.0827,-1.1432,-1.1346,-1.0086,-0.9582,-0.8829,-0.7721,-0.6815,-0.6354,-0.6338,-0.5678,-0.5344,-0.5328,-0.4868,-0.4798,-0.5224,-0.5075,-0.5099,-0.5197,-0.3945,-0.3159,-0.2845,-0.1709,-0.1186,-0.1182,-0.1182,-0.0948,-0.0617,-0.0611,-0.0372,0.0,0.0,0.04,0.0996,0.0952,0.1362,0.2074,0.0,0.0,0.0,0.0,0.0,0.0,-1.2828,-1.3054,-1.353,-1.4803,-1.5645,-1.6194,-1.637,-1.7419,-1.7885,-1.7368,-1.74,-1.7071,-1.6235,-1.5497,-1.5401,-1.6108,-1.7395,-1.8241,-1.8539,-1.9278,-1.9644,-1.9614,-1.965,-1.9728,-1.9862,-1.9826,-1.9445,-1.8742,-1.8679,-1.864,-1.8592,-1.801,-1.7773,-1.7724,-1.7128,-1.6667,-1.6165,-1.5038,-1.3818,-1.253,-1.152,-1.0763,-1.0104,-0.9238,0.0,0.0,0.0,0.0,0.0,0.0,0.0,0.0,0.0,0.0,0.0,0.0,0.0,0.0,0.0,0.0,0.0,0.0,0.0,0.0,0.0,0.0,0.0,0.0,-0.9941,-1.0137,-1.0494,-1.0413,-1.0107,-0.9545,-0.9767,-0.9353,-0.7838,-0.7214,-0.6533,-0.5587,-0.5048,-0.4728,-0.4678,-0.409,-0.3732,-0.3704,-0.302,-0.3004,-0.365,-0.2981,-0.3015,-0.3597,-0.2082,-0.135,-0.1294,-0.043,0.0,0.0,0.0,0.0,0.0,0.0,0.0,0.0,0.0,0.0,0.0,0.0,0.2126,0.3324,0.0,0.0,0.0,0.0,0.0,0.0,-1.1444,-1.1687,-1.2164,-1.3437,-1.4383,-1.4983,-1.5103,-1.6619,-1.7161,-1.6035,-1.6582,-1.6335,-1.4784,-1.4038,-1.3898,-1.439,-1.6498,-1.733,-1.6683,-1.8228,-1.8519,-1.747,-1.745,-1.745,-1.748,-1.7001,-1.673,-1.6589,-1.6218,-1.6055,-1.6055,-1.6055,-1.6055,-1.6038,-1.594,-1.5701,-1.5479,-1.5937,-1.4779,-1.2814,-1.2258,-1.117,-0.9974,-0.9784,0.0,0.0,0.0,0.0,0.0,0.0,0.0,0.0,0.0,0.0,0.0,0.0,0.0,0.0,0.0,0.0,0.0,0.0,0.0,0.0,0.0,0.0,0.0,0.0,-0.9861,-0.9302,-0.9784,-0.9596,-0.8708,-0.6939,-0.6746,-0.6109,-0.4521,-0.4466,-0.4406,-0.4188,-0.425,-0.4255,-0.4152,0.0,0.0,0.0,0.0,-0.0654,-0.2044,-0.0691,-0.0688,-0.2014,-0.0633,0.0,0.0,0.0,0.0,0.0,0.0,0.0,0.0,0.0,0.0047,0.0185,0.0274,0.0315,0.044,0.1424,0.2802,0.4143,0.0,0.0,0.0,0.0,0.0,0.0,-1.0005,-1.0314,-1.0856,-1.2252,-1.3017,-1.3441,-1.3459,-1.4215,-1.46,-1.428,-1.4026,-1.3733,-1.3401,-1.3429,-1.3788,-1.453,-1.5092,-1.5515,-1.5766,-1.6104,-1.6222,-1.6153,-1.6,-1.6,-1.6162,-1.617,-1.5658,-1.472,-1.4962,-1.5066,-1.5066,-1.5066,-1.5066,-1.5145,-1.6089,-1.6141,-1.5738,-1.5658,-1.5202,-1.4476,-1.341,-1.2797,-1.2315,-1.0927,-1.0434,-1.0344,-0.9893,-0.9435,0.0,0.0,0.0,0.0,0.0,0.0,0.0,0.0,0.0,0.0,0.0,0.0,0.0,0.0,0.0,0.0,0.0,0.0,0.0,-1.0527,-0.9127,-0.7898,-0.766,-0.6483,-0.5939,-0.6746,-0.5832,-0.4515,-0.2885,-0.2828,-0.2298,-0.1023,-0.0934,-0.0942,-0.089,-0.0629,-0.047,-0.0465,-0.0153,-0.0151,-0.0453,-0.015,-0.0149,-0.0447,0.0,0.0,0.0,0.0,0.0,0.0,0.0,0.0,0.0,0.0,0.0424,0.1201,0.204,0.2265,0.2395,0.4119,0.489,0.5052,0.0,0.0,0.0,0.0,0.0,0.0,-0.8773,-0.8962,-0.9469,-1.081,-1.1483,-1.1809,-1.1815,-1.2766,-1.307,-1.2281,-1.1951,-1.2004,-1.2471,-1.2233,-1.2406,-1.3153,-1.4006,-1.4297,-1.4005,-1.4571,-1.4657,-1.4129,-1.4098,-1.4145,-1.4268,-1.4315,-1.4096,-1.359,-1.3709,-1.3789,-1.3909,-1.3909,-1.3909,-1.3949,-1.454,-1.4625,-1.4501,-1.5637,-1.5569,-1.4751,-1.4042,-1.328,-1.2489,-1.1496,-1.1118,-1.0975,-1.0495,-1.0127,-0.9777,0.0,0.0,0.0,0.0,0.0,0.0,0.0,0.0,0.0,0.0,0.0,0.0,0.0,0.0,-0.9617,-1.0272,0.0,-0.8788,-0.9079,-0.7427,-0.5966,-0.5803,-0.4445,-0.3746,-0.4512,-0.3956,-0.2901,-0.132,-0.1174,-0.0875,-0.0052,0.0,0.0,0.0,0.0,0.0,0.0,0.0,0.0,0.0,0.0,0.0,0.0,0.0,0.0,0.0,0.0,0.0,0.0,0.0,0.0,0.0,0.0,0.0559,0.1512,0.2527,0.3098,0.3519,0.4474,0.5082,0.5324,0.0,0.0,0.0,0.0,0.0,0.0,0.0,-0.7824,-0.8384,-0.9442,-0.9926,-1.0202,-1.0196,-1.1305,-1.1571,-1.0298,-1.037,-1.0829,-1.1627,-1.1171,-1.1164,-1.1854,-1.3109,-1.3359,-1.254,-1.3489,-1.3511,-1.2549,-1.2698,-1.272,-1.2693,-1.2786,-1.2868,-1.2996,-1.2888,-1.2929,-1.3091,-1.3091,-1.3091,-1.3091,-1.3091,-1.3091,-1.3279,-1.5193,-1.5233,-1.4248,-1.4066,-1.3148,-1.2023,-1.1775,-1.1565,-1.1335,-1.1029,-1.0678,-1.0339,-0.9846,-0.923,0.0,0.0,0.0,0.0,0.0,0.0,0.0,0.0,-0.879,-0.8867,-0.8806,-0.876,-0.8957,-0.9715,-0.8066,-0.6806,-0.734,-0.5488,-0.402,-0.414,-0.2851,-0.185,-0.1847,-0.1846,-0.1362,-0.0104,0.0,0.0,0.0,0.0,0.0,0.0,0.0,0.0,0.0,0.0,0.0,0.0,0.0,0.0,0.0,0.0,0.0,0.0,0.0,0.0,0.0,0.0,0.0,0.0,0.0187,0.0831,0.1825,0.3071,0.4079,0.4735,0.4474,0.4793,0.5352,0.0,0.0,0.0,0.0,0.0,0.0,0.0,0.0,-0.8124,-0.8422,-0.8614,-0.8751,-0.8739,-0.8999,-0.9061,-0.8753,-0.9612,-1.0249,-1.0468,-1.1104,-1.1735,-1.2216,-1.2501,-1.2635,-1.2501,-1.2754,-1.2823,-1.2665,-1.2861,-1.2868,-1.2693,-1.2996,-1.3105,-1.3009,-1.3214,-1.3336,-1.3349,-1.3349,-1.3349,-1.3349,-1.3349,-1.3349,-1.3377,-1.3526,-1.3421,-1.3155,-1.2956,-1.2415,-1.187,-1.2016,-1.1771,-1.143,-1.1604,-1.0976,-1.0212,-1.0604,-0.9806,-0.8921,-0.9493,-0.9202,-0.8799,-0.9096,-0.8783,-0.8676,0.0,-0.9665,-0.9656,-1.0158,-0.9235,-0.8474,-0.8971,-0.7137,-0.5698,-0.6128,-0.4135,-0.257,-0.2649,-0.1276,-0.0254,-0.0252,-0.0252,-0.0203,0.0,0.0,0.0,0.0,0.0,0.0,0.0,0.0,0.0,0.0,0.0,0.0,0.0,0.0,0.0,0.0,0.0,0.0,0.0,0.0,0.0,0.0,0.0,0.0,0.0048,0.0895,0.1818,0.2953,0.5154,0.6507,0.7072,0.5862,0.5367,0.5303,0.0,0.0,0.0,0.0,0.0,0.0,0.0,0.0,-0.5992,-0.6855,-0.7008,-0.7349,-0.8119,-0.8257,-0.827,-0.8202,-0.873,-0.919,-0.9513,-1.0009,-1.0455,-1.0928,-1.1502,-1.1805,-1.1805,-1.2377,-1.2693,-1.2693,-1.2969,-1.3051,-1.299,-1.3112,-1.3227,-1.322,-1.3254,-1.3315,-1.3403,-1.3403,-1.3451,-1.3526,-1.3437,-1.3403,-1.3376,-1.318,-1.2941,-1.2664,-1.2427,-1.2182,0.0,-1.1165,-1.0924,-1.0824,-1.0504,-1.0305,-1.017,-1.0244,-0.9831,-0.9123,-0.8011,-0.7501,-0.7328,-0.7607,-0.8178,-0.8808,-0.9294,-0.947,-0.923,-0.8412,-0.7755,-0.7184,-0.6585,-0.4889,-0.3671,-0.388,-0.2242,-0.0978,-0.0987,-0.0412,0.0,0.0,0.0,0.0,0.0,0.0,0.0,0.0,0.0,0.0,0.0,0.0,0.0,0.0,0.0,0.0,0.0,0.0,0.0,0.0,0.0,0.0,0.0,0.0,0.0337,0.0859,0.0859,0.124,0.1905,0.3157,0.4196,0.517,0.7072,0.8275,0.8874,0.8212,0.7847,0.7663,0.0,0.0,0.0,0.0,0.0,0.0,0.0,0.0,0.0,0.0,-0.5458,-0.5827,-0.6805,-0.6905,-0.7055,-0.7409,-0.7774,-0.8242,-0.8917,-0.9314,-0.9637,-0.99,-1.0597,-1.1122,-1.1356,-1.212,-1.2635,-1.2875,-1.3173,-1.3302,-1.3295,-1.3049,-1.3089,-1.3397,-1.3075,-1.2984,-1.3089,-1.338,-1.3398,-1.3241,-1.338,-1.339,-1.3247,-1.2989,-1.2596,-1.223,-1.202,-1.1866,-1.1518,-1.007,-0.9676,-0.9684,-0.9264,-0.9294,-0.9555,-0.9992,-0.9718,-0.8911,-0.7083,-0.6134,-0.569,-0.5848,-0.6721,-0.7558,-0.7667,-0.7861,-0.7653,-0.6347,-0.5779,-0.5216,-0.422,-0.274,-0.1687,-0.1751,-0.0777,0.0,0.0,0.0,0.0,0.0,0.0,0.0,0.0,0.0,0.0,0.0,0.0,0.0,0.0,0.0,0.0,0.0,0.0,0.0,0.0,0.0,0.0,0.0,0.0,0.015,0.0443,0.073,0.1251,0.1954,0.1906,0.2383,0.3188,0.452,0.5639,0.6687,0.8482,0.9683,1.0462,1.0734,1.0269,0.9468,0.0,0.0,0.0,0.0,0.0,0.0,0.0,0.0,0.0,0.0,0.0,0.0,0.0,-0.4117,-0.4643,-0.5952,-0.6731,-0.7602,-0.8745,-0.9606,-0.9975,-0.9725,-1.0047,-1.0634,-1.1464,-1.1889,-1.2548,-1.3376,-1.3539,-1.3572,-1.3572,-1.2583,-1.2609,-1.3362,-1.2659,-1.23,-1.2319,-1.3344,-1.3196,-1.2313,-1.3241,-1.3363,-1.2982,-1.263,-1.2155,-1.1647,-1.1633,-1.1225,-1.0492,-0.8889,-0.8137,-0.7952,-0.8391,-0.8089,-0.801,-1.0234,-0.9518,-0.7986,-0.7656,-0.6054,-0.4436,-0.4385,-0.4209,-0.4099,-0.4322,-0.445,-0.4606,-0.4708,-0.3504,-0.2419,-0.2472,-0.1161,-0.0051,-0.0052,-0.0052,0.0,0.0,0.0,0.0,0.0,0.0,0.0,0.0,0.0,0.0,0.0,0.0,0.0,0.0,0.0,0.0,0.0,0.0,0.0,0.0,0.0,0.0,0.0,0.0,0.0558,0.1592,0.2537,0.3029,0.3048,0.3001,0.3001,0.319,0.4147,0.5316,0.6733,0.9126,1.0808,1.1995,1.3204,1.1948,0.9592,0.0,0.0,0.0,0.0,0.0,0.0,0.0,0.0,0.0,0.0,0.0,0.0,0.0,0.0,0.0,0.0,-0.4725,-0.5402,-0.6916,-0.6913,-0.7296,-0.8312,-0.8857,-0.9304,-0.9693,-1.0557,-1.1149,-1.1476,-1.2235,-1.2602,-1.2595,-1.2842,-1.3106,-1.3403,-1.316,-1.3065,-1.3157,-1.3405,-1.3526,-1.3406,-1.2672,-1.2372,-1.2245,-1.1454,-1.0845,-1.0272,0.0,-0.8869,-0.8591,-0.7365,-0.703,-0.6851,-0.554,-0.5977,-0.6966,-0.7028,-0.5848,-0.4477,-0.438,-0.3597,-0.2829,-0.2947,-0.3577,-0.4229,-0.4453,-0.4565,-0.4315,-0.3363,-0.2751,-0.2061,-0.0981,-0.0344,0.0,0.0,0.0,0.0,0.0,0.0,0.0,0.0,0.0,0.0,0.0,0.0,0.0,0.0,0.0,0.0,0.0,0.0,0.0,0.0,0.0,0.0379,0.1119,0.111,0.1523,0.225,0.2203,0.231,0.2611,0.2966,0.3463,0.4097,0.405,0.5049,0.671,0.8007,0.9322,1.0647,1.2443,1.331,1.3551,1.3988,1.3374,1.2368,0.0,0.0,0.0,0.0,0.0,0.0,0.0,0.0,0.0,0.0,0.0,0.0,0.0,0.0,0.0,0.0,0.0,-0.3708,-0.5098,-0.4957,-0.5233,-0.6141,-0.7161,-0.7906,-0.8341,-0.9612,-1.049,-1.089,-1.143,-1.1755,-1.1896,-1.1855,-1.2068,-1.2408,-1.2119,-1.2003,-1.2082,-1.2372,-1.2183,-1.17,-1.1555,-1.1206,-1.0679,-0.9965,-0.9398,0.0,-0.7202,-0.6289,-0.5693,-0.5063,-0.4959,-0.4844,-0.3504,-0.4497,-0.5989,-0.5298,-0.3959,-0.2719,-0.271,-0.2007,-0.1331,-0.1454,-0.2132,-0.2825,-0.298,-0.3,-0.275,-0.1729,-0.1531,-0.1247,-0.019,0.0,0.0,0.0,0.0,0.0,0.0,0.0,0.0,0.0,0.0,0.0,0.0,0.0,0.0,0.0,0.0,0.0,0.0,0.0,0.0165,0.0602,0.0598,0.1132,0.2291,0.2331,0.2686,0.3347,0.3664,0.3785,0.3679,0.403,0.4856,0.5953,0.5953,0.7189,0.9276,1.0219,1.1387,1.2644,1.3565,1.4087,1.4367,1.4258,1.4095,1.3892,0.0,0.0,0.0,0.0,0.0,0.0,0.0,0.0,0.0,0.0,0.0,0.0,0.0,0.0,0.0,0.0,0.0,0.0,-0.3474,-0.3819,-0.3828,-0.3537,-0.5099,-0.6392,-0.7292,-0.893,-1.0261,-1.122,-1.0878,-1.0942,-1.1279,-0.9819,-0.9696,-1.0679,-0.9866,-0.9464,-0.9473,-1.0508,-0.9607,-0.7709,-0.9932,-0.9834,-0.8314,-0.8164,-0.7738,-0.7007,-0.5365,-0.3656,-0.2203,-0.2206,-0.2155,-0.2144,-0.2428,-0.3575,-0.4829,-0.4836,-0.3763,-0.2556,-0.2549,-0.1327,0.0,0.0,0.0,0.0,0.0,0.0,0.0,0.0,0.0,0.0,0.0,0.0,0.0,0.0,0.0,0.0,0.0,0.0,0.0,0.0,0.0,0.0,0.0,0.0053,0.0106,0.0107,0.0055,0.0,0.0,0.0055,0.0602,0.1641,0.1776,0.2345,0.3461,0.3566,0.3535,0.3475,0.449,0.4951,0.4955,0.5973,0.7211,0.8518,0.8518,0.9371,1.0739,1.0739,1.1569,1.2801,1.2679,1.3369,1.4475,1.419,1.4125,1.4048,0.0,0.0,0.0,0.0,0.0,0.0,0.0,0.0,0.0,0.0,0.0,0.0,0.0,0.0,0.0,0.0,0.0,0.0,-0.2462,-0.2399,-0.278,-0.3813,-0.4102,-0.4386,-0.4743,-0.5245,-0.5628,-0.5948,-0.7635,-0.8484,-0.8642,-1.0012,-1.0773,-1.1059,-1.0842,-1.079,-1.0883,-1.1034,-1.0267,-0.8851,-0.8419,-0.7392,-0.6051,-0.5475,-0.5091,-0.4716,-0.3547,-0.271,-0.2211,-0.2203,-0.1485,-0.0798,-0.2083,-0.1931,-0.1301,-0.1315,-0.1029,-0.0668,-0.0701,-0.0372,0.0,0.0,0.0,0.0,0.0,0.0,0.0,0.0,0.0,0.0,0.0,0.0,0.0,0.0,0.0,0.0,0.0,0.0,0.0,0.0,0.0,0.0,0.0,0.08,0.1343,0.1345,0.049,0.0,0.0,0.0832,0.1376,0.1696,0.2543,0.3539,0.4636,0.545,0.5821,0.5755,0.7104,0.7665,0.7638,0.8967,0.9742,1.003,1.003,1.0881,1.2297,1.2297,1.3122,1.4395,1.4199,1.4282,1.4489,1.4306,1.417,1.4112,0.0,0.0,0.0,0.0,0.0,0.0,0.0,0.0,0.0,0.0,0.0,0.0,0.0,0.0,0.0,0.0,0.0,0.0,0.0,-0.1606,-0.1943,-0.2222,-0.3271,-0.3627,-0.3121,-0.3809,-0.4208,-0.4303,-0.5442,-0.6053,-0.6165,-0.7313,-0.7905,-0.795,-0.7966,-0.7986,-0.8075,-0.7981,-0.7222,0.0,0.0,-0.5102,-0.3891,-0.3487,-0.3266,-0.3041,-0.1849,-0.1342,-0.1237,-0.125,-0.0686,-0.0179,-0.11,-0.0755,0.0,0.0,0.0,0.0,0.0,0.0,0.0,0.0,0.0,0.0,0.0,0.0,0.0,0.0,0.0,0.0,0.0,0.0,0.0,0.0,0.0,0.0,0.0,0.0,0.0218,0.0709,0.0767,0.0986,0.1518,0.2177,0.2572,0.2579,0.1979,0.1603,0.1561,0.2166,0.2758,0.3225,0.3849,0.5102,0.6974,0.7487,0.809,0.8796,0.9462,0.9732,0.9684,1.0415,1.1078,1.159,0.0,1.2486,1.3905,1.3905,1.4384,1.5052,1.4903,1.4787,1.4685,1.4475,1.434,1.4258,0.0,0.0,0.0,0.0,0.0,0.0,0.0,0.0,0.0,0.0,0.0,0.0,0.0,0.0,0.0,0.0,0.0,0.0,0.0,0.0,-0.1395,-0.0052,-0.2345,-0.3086,-0.1926,-0.3223,-0.3967,-0.4078,-0.3854,-0.3862,-0.4012,-0.381,-0.3783,-0.39,-0.3886,-0.3907,-0.3907,-0.3907,-0.3149,-0.2047,-0.333,-0.3055,-0.1914,0.0,-0.1908,-0.1737,-0.0451,0.0,0.0,0.0,0.0,0.0,0.0,0.0,0.0,0.0,0.0,0.0,0.0,0.0,0.0,0.0,0.0,0.0,0.0,0.0,0.0,0.0,0.0,0.0,0.0,0.0,0.004,0.021,0.0225,0.0291,0.0419,0.0476,0.0859,0.1897,0.206,0.2448,0.3475,0.3733,0.384,0.3867,0.4012,0.394,0.3607,0.377,0.4299,0.5403,0.5625,0.6917,0.936,0.9398,1.0129,1.1578,1.1528,1.1466,1.129,1.1427,1.2133,1.3199,1.3199,1.3952,1.5181,1.5181,1.5181,1.5167,1.5071,1.5017,1.4983,1.4645,1.4557,1.455,0.0,0.0,0.0,0.0,0.0,0.0,0.0,0.0,0.0,0.0,-0.0746,0.0,0.0,0.0,0.0,0.0,0.0,0.0,0.0,0.0,0.0,-0.0051,-0.0456,-0.0609,-0.0382,-0.0647,-0.0782,-0.0811,-0.1948,-0.2531,-0.2583,-0.3779,-0.4365,-0.4377,-0.4389,-0.4367,-0.4367,-0.4367,-0.3512,-0.2171,-0.2419,-0.167,-0.0394,-0.0394,0.0,0.0,-0.0091,0.0,0.0,0.0,0.0,0.0,0.0,0.0,0.0,0.0,0.0,0.0,0.0,0.0,0.0,0.0,0.0,0.0,0.0,0.0,0.0,0.0,0.0,0.0,0.0,0.0,0.0314,0.1238,0.137,0.1671,0.2738,0.2825,0.2903,0.3243,0.3305,0.3359,0.3589,0.4479,0.5097,0.5101,0.599,0.5708,0.3695,0.4501,0.5498,0.6548,0.7931,0.8897,0.9413,1.0661,1.139,1.1629,1.2714,1.3122,1.2855,1.4083,1.4707,1.4805,1.4805,0.0,1.5181,1.5181,1.5181,1.5167,1.5071,1.5017,1.495,1.4767,1.478,1.4848,0.0,0.0,0.0,0.0,0.0,0.0,0.0,-0.2176,-0.2804,-0.2174,-0.1529,-0.1136,-0.1135,-0.1034,0.0,0.0,0.0,0.0,0.0,0.0,0.0,-0.005,-0.0681,-0.0706,-0.0025,0.0,0.0,0.0,0.0,-0.1046,-0.1064,-0.1824,-0.2147,-0.2156,-0.2147,-0.2153,-0.2153,-0.2153,-0.1734,-0.1064,-0.1064,-0.0644,0.0,0.0,0.0,0.0,0.0,0.0,0.0,0.0,0.0,0.0,0.0,0.0,0.0,0.0,0.0,0.0,0.0,0.0,0.0,0.0,0.0,0.0,0.0,0.0,0.0,0.0,0.0,0.0,0.0,0.0,0.0193,0.0736,0.119,0.1717,0.2491,0.2963,0.356,0.441,0.4541,0.4765,0.5439,0.6001,0.6333,0.6333,0.6892,0.6668,0.5551,0.6832,0.8249,0.9601,1.0384,1.1156,1.2002,1.2677,1.3417,1.4249,1.481,1.4931,1.4723,1.5241,1.5445,1.5296,1.5215,1.5181,1.5181,1.5181,1.5181,1.5174,1.5106,1.5079,1.5065,1.4916,1.4957,1.5038,0.0,0.0,0.0,0.0,0.0,0.0,0.0,-0.2722,-0.3213,-0.2176,-0.2394,-0.2507,-0.2238,-0.1137,-0.0433,0.0,0.0,0.0,0.0,0.0,0.0,0.0,0.0,0.0,-0.0025,0.0,0.0,0.0,0.0,0.0,0.0,0.0,0.0,0.0,0.0,0.0,0.0,0.0,0.0,0.0,0.0,0.0,0.0,0.0,0.0,0.0,0.0,0.0,0.0,0.0,0.0,0.0,0.0,0.0,0.0,0.0,0.0,0.0,0.0,0.0,0.0,0.0,0.0,0.0,0.0,0.0,0.0,0.0,0.0,0.0,0.0,0.0,0.0075,0.0312,0.0922,0.1637,0.2435,0.3119,0.4117,0.5613,0.5771,0.6169,0.714,0.7183,0.7351,0.7752,0.8132,0.8178,0.7787,0.9384,1.0951,1.219,1.2467,1.3206,1.4475,1.4666,1.5415,1.6696,1.6483,1.6259,1.6069,1.5771,1.5506,1.5404,1.5248,1.5181,1.5181,1.5181,1.5181,1.5181,1.5181,1.5181,1.5167,1.5059,1.5106,1.5187,0.0,0.0,0.0,0.0,0.0,0.0,0.0,-0.1316,-0.2174,-0.2176,-0.3265,-0.3558,-0.2319,-0.1968,-0.1828,0.0,0.0,0.0,0.0,0.0,0.0,0.0,0.0,0.0,0.0,0.0,0.0,0.0,0.0,0.0,0.0,0.0,0.0,0.0,0.0,0.0,0.0,0.0,0.0,0.0,0.0,0.0,0.0,0.0,0.0,0.0,0.0,0.0,0.0,0.0,0.0,0.0,0.0,0.0,0.0,0.0,0.0,0.0,0.0,0.0,0.0,0.0,0.0,0.0,0.0,0.0,0.0,0.0,0.0,0.0,0.0,0.0,0.0321,0.1357,0.157,0.237,0.4555,0.4961,0.5489,0.678,0.6977,0.7084,0.7251,0.721,0.7873,0.9511,1.1123,1.1296,0.9627,1.1206,1.2253,1.2408,1.3712,1.4495,1.4655,1.6058,1.672,1.6696,1.6527,1.6354,1.6069,1.5771,1.5506,1.5404,1.5248,1.5181,0.0,1.5181,1.5181,1.5181,1.5181,1.5181,1.5181,1.5167,1.5262,1.535,0.0,0.0,0.0,0.0,0.0,0.0,-0.1194,-0.2342,-0.2922,-0.2188,-0.3412,-0.3496,-0.1145,-0.1616,-0.1757,-0.0874,0.0,0.0,0.0,0.0,0.0,0.0,0.0,0.0,0.0,0.0,0.0,0.0,0.0,0.0,0.0,0.0,0.0,0.0,0.0,0.0,0.0,0.0,0.0,0.0,0.0,0.0,0.0,0.0,0.0,0.0,0.0,0.0,0.0,0.0,0.0,0.0,0.0,0.0,0.0,0.0,0.0,0.0,0.0,0.0,0.0,0.0,0.0,0.0,0.0,0.0,0.0,0.0,0.0,0.0,0.0,0.0,0.0138,0.0619,0.1081,0.1809,0.2994,0.3614,0.4472,0.5914,0.61,0.6387,0.7188,0.8291,0.9655,1.1437,1.3141,1.3809,1.3076,1.3701,1.4503,1.5385,1.6039,1.6275,1.6109,1.669,1.6951,1.689,1.6639,1.6463,1.6334,1.5947,1.5689,1.5492,1.5384,1.5269,0.0,1.5181,1.5181,1.5181,1.5181,1.5181,1.5181,1.5181,1.5276,1.5377,0.0,0.0,0.0,0.0,0.0,-0.1292,-0.1385,-0.2204,-0.2477,-0.152,-0.2828,-0.2832,-0.028,-0.1312,-0.1604,-0.0132,0.0,0.0,0.0,0.0,0.0,0.0,0.0,0.0,0.0,0.0,0.0,0.0,0.0,0.0,0.0,0.0,0.0,0.0,0.0,0.0,0.0,0.0,0.0,0.0,0.0,0.0,0.0,0.0,0.0,0.0,0.0,0.0,0.0,0.0,0.0,0.0,0.0,0.0,0.0,0.0,0.0,0.0,0.0,0.0,0.0,0.0,0.0,0.0,0.0,0.0,0.0,0.0,0.0,0.0,0.0,0.0,0.0,0.0,0.0532,0.1117,0.1674,0.285,0.4148,0.5601,0.6349,0.7211,0.8316,1.0356,1.2157,1.3364,1.5015,1.5979,1.5979,1.5979,1.6475,1.744,1.7446,1.7297,1.7046,1.7005,1.6958,1.691,1.6646,1.6503,1.6442,1.5995,1.5737,1.558,1.5432,1.5282,0.0,1.5181,1.5181,1.5181,1.5181,1.5181,1.5181,1.5181,1.5276,1.5398,0.0,0.0,0.0,0.0,0.0,0.0,-0.0023,-0.0024,-0.0049,-0.0026,-0.1296,-0.1665,-0.0167,-0.131,-0.1603,-0.0136,0.0,0.0,0.0,0.0,0.0,0.0,0.0,0.0,0.0,0.0,0.0,0.0,0.0,0.0,0.0,0.0,0.0,0.0,0.0,0.0,0.0,0.0,0.0,0.0,0.0,0.0,0.0,0.0,0.0,0.0,0.0,0.0,0.0,0.0,0.0,0.0,0.0,0.0,0.0,0.0,0.0,0.0,0.0,0.0,0.0,0.0,0.0,0.0,0.0,0.0,0.0,0.0,0.0,0.0,0.0,0.0,0.0,0.0,0.0,0.0414,0.1554,0.3528,0.5285,0.6432,0.8638,1.0366,1.1172,1.3677,1.5218,1.5158,1.6871,1.786,1.786,1.786,1.7792,1.7595,1.7446,1.7344,1.7195,1.7053,1.6904,1.6696,1.6598,1.6449,1.63,1.5796,1.5593,1.5573,1.5316,1.5181,0.0,1.5181,1.5181,1.5181,1.5181,1.5181,1.5181,1.5181,1.5276,1.5411,0.0,0.0,0.0,0.0,0.0,0.0,0.0,-0.0535,0.0,0.0,-0.1296,-0.1635,-0.0165,-0.1328,-0.1603,-0.0136,0.0,0.0,0.0,0.0,0.0,0.0,0.0,0.0,0.0,0.0,0.0,0.0,0.0,0.0,0.0,0.0,0.0,0.0,0.0,0.0,0.0,0.0,0.0,0.0,0.0,0.0,0.0,0.0,0.0,0.0,0.0,0.0,0.0,0.0,0.0,0.0,0.0,0.0,0.0,0.0,0.0,0.0,0.0,0.0,0.0,0.0,0.0,0.0,0.0,0.0,0.0,0.0,0.0,0.0,0.0,0.1009,0.1431,0.0213,0.2309,0.3825,0.2962,0.5104,0.7228,0.8492,1.046,1.235,1.3943,1.4775,1.5773,1.7061,1.7644,1.7915,1.7915,1.7915,1.7758,1.7446,1.7446,1.7304,1.7053,1.6897,1.6743,1.6696,1.6446,1.6354,1.63,1.5947,1.573,1.558,1.5425,1.5276,1.5181,1.5181,1.5181,1.5181,1.5181,1.5181,1.5194,1.5303,1.5371,1.5425,0.0,0.0,0.0,0.0,0.0,0.0,0.0,-0.0483,0.0,0.0,-0.0795,-0.1017,-0.0107,-0.0815,-0.0999,-0.0082,0.0,0.0,0.0,0.0,0.0,0.0,0.0,0.0,0.0,0.0,0.0,0.0,0.0,0.0,0.0,0.0,0.0,0.0029,0.057,0.0817,0.0,0.0,0.0,0.0,0.0,0.0,0.0,0.0,0.0,0.0,0.0,0.0,0.0,0.0,0.0,0.0,0.0,0.0,0.0,0.0,0.0489,0.0,0.0,0.0,0.0,0.0,0.0,0.0,0.0,0.0,0.0,0.0,0.0538,0.1009,0.1009,0.2484,0.3365,0.2298,0.4261,0.5629,0.4763,0.7045,0.9541,1.1553,1.3108,1.4485,1.576,1.6096,1.673,1.7947,1.797,1.7846,1.7792,1.7772,1.765,1.7344,1.7392,1.7277,1.6985,1.6777,1.6669,1.6608,1.6422,1.6279,1.6212,1.5913,1.5723,1.558,1.5418,1.5269,0.0,1.5181,1.5181,1.5181,1.5181,1.5181,1.5194,1.5289,1.5398,1.5513,0.0,0.0,0.0,0.0,0.0,0.0,0.0,-0.0046,0.0,0.0,0.0,0.0,0.0,0.0,0.0,0.0,0.0,0.0,0.0,0.0,0.0,0.0,0.0,0.0,0.0,0.0,0.0,0.0,0.0,0.0062,0.0189,0.0187,0.0243,0.0413,0.1793,0.2387,0.0,0.0,0.0,0.0,0.02,0.0174,0.0,0.0,0.0,0.0,0.0,0.0,0.0,0.0,0.0,0.0,0.0,0.0,0.0,0.0,0.0,0.0,0.0,0.0197,0.0,0.0,0.008,0.0191,0.0188,0.0287,0.0,0.0371,0.1713,0.2888,0.2928,0.4364,0.5598,0.5628,0.5975,0.6381,0.6874,0.935,1.2179,1.5159,1.6178,1.6666,1.6736,1.7446,1.7915,1.7915,1.7915,1.7792,1.7595,1.7595,1.7453,1.7202,1.7331,1.727,1.6985,1.6815,1.6608,1.6517,1.6368,1.6218,1.6069,1.5771,1.5593,0.0,1.5316,1.5181,1.5181,1.5181,1.5181,1.5181,1.5181,1.5181,1.5181,1.5194,1.5377,1.558,0.0,0.0,0.0,0.0,0.0,0.0,0.0,0.0,0.0,0.0,0.0,0.0,0.0,0.0,0.0,0.0,0.0,0.0,0.0,0.0,0.0,0.0,0.0,0.0,0.0,0.0,0.0,0.0,0.0,0.0715,0.2076,0.2069,0.2679,0.3761,0.4112,0.4163,0.0,0.0,0.0,0.0,0.2213,0.1775,0.0,0.0,0.0,0.0,0.1924,0.2708,0.0,0.0,0.0,0.0,0.0,0.0,0.0,0.0,0.4068,0.3776,0.3858,0.0,0.0,0.0,0.1055,0.2074,0.0,0.313,0.4127,0.4137,0.4459,0.4824,0.5028,0.6352,0.7047,0.6057,0.8445,1.0116,0.9327,1.2452,1.5322,1.6621,1.7229,1.7473,1.7283,1.7629,1.7915,1.7915,1.7915,1.7792,1.7595,1.7595,1.7453,1.7202,1.7229,1.7161,1.6985,1.6707,1.6506,1.6517,1.6259,1.6117,1.6069,1.5771,1.5593,1.5573,1.5316,1.5181,1.5181,1.5181,1.5181,1.5181,1.5181,1.5181,1.5194,1.5316,1.5404,1.5499,0.0,0.0,0.0,0.0,0.0,0.0,0.0,0.0,0.0,0.0,0.0,0.0,0.0,0.0,0.0,0.0,0.0,0.0,0.0,0.0,0.0,0.0,0.0,0.0,0.0,0.0,0.0,0.0,0.0838,0.1742,0.2728,0.3559,0.4307,0.5029,0.558,0.5715,0.0,0.0,0.0,0.0,0.3699,0.0,0.0,0.0,0.0,0.0,0.3608,0.4149,0.0,0.5804,0.6045,0.6171,0.0,0.0,0.0,0.0,0.5498,0.4919,0.499,0.3717,0.2364,0.2541,0.327,0.3966,0.4028,0.4741,0.5413,0.5406,0.603,0.6627,0.6796,0.8192,0.916,0.8584,1.0545,1.2167,1.2274,1.4261,1.6022,1.6978,1.7311,1.75,1.7616,1.7772,1.7881,1.7772,1.7758,1.767,1.7453,1.7439,1.7331,1.71,1.7093,1.6683,1.5815,1.5594,1.5037,1.4253,1.4059,1.3901,1.3877,1.4317,1.4484,1.4456,1.4999,1.5181,1.5181,1.5181,1.5181,1.5181,1.5181,1.5181,1.5194,1.5276,1.535,1.5432,0.0,0.0,0.0,0.0,0.0,0.0,0.0,0.0,0.0,0.0,0.0,0.0,0.0,0.0,0.0,0.0,0.0,0.0,0.0,0.0,0.0,0.0,0.0,0.0,0.0,0.0,0.012,0.037,0.1654,0.2694,0.3546,0.4813,0.5576,0.59,0.6861,0.7205,0.0,0.0,0.0,0.0,0.5162,0.0,0.0,0.0,0.0,0.0,0.0,0.0,0.0,0.7301,0.7759,0.8003,0.9359,0.0,0.0,0.0,0.0,0.0,0.5729,0.5898,0.5947,0.5601,0.5658,0.5815,0.5949,0.608,0.6197,0.6197,0.7412,0.8478,0.8531,0.9897,1.1137,1.1538,1.2277,1.3363,1.495,1.5337,1.5852,1.6924,1.7087,1.7297,1.7758,1.7868,1.7772,1.7609,1.7575,1.744,1.7209,1.7195,1.7127,1.6985,1.6978,1.6183,1.4434,1.4255,1.3357,1.1601,1.1487,1.133,1.1234,1.2336,1.2938,1.3149,0.0,0.0,1.5181,1.5181,1.5181,1.5181,1.5181,1.5181,1.5181,1.5181,1.5262,1.5377,0.0,0.0,0.0,0.0,0.0,0.0,0.0,0.0,0.0,0.0,0.0,0.0,0.0,0.0,0.0,0.0,0.0,0.0,0.0,0.0,0.0,0.2185,0.0748,0.0,0.0,0.0,0.0687,0.2125,0.0964,0.2752,0.7145,0.5949,0.6802,0.9336,0.9094,0.9009,0.8983,0.0,0.0,0.8721,0.7301,0.0,0.0,0.0,0.0,0.0,0.0,0.0,0.0,0.9359,0.942,0.9481,0.9731,0.0,0.0,0.0,0.0,0.0,0.9545,0.9941,0.9437,0.6027,0.639,0.7603,0.7617,0.8817,0.9881,0.9881,1.0176,1.0579,1.0979,1.1284,1.1698,1.2375,1.3471,1.4645,1.5927,1.6449,1.6863,1.7304,1.7575,1.767,1.75,1.7602,1.7615,1.7595,1.7473,1.7378,1.7202,1.7195,1.7127,1.6985,1.6978,1.6183,1.4434,1.4255,1.3343,1.1659,1.1469,1.1368,1.1289,1.1339,1.1966,1.3101,0.0,1.3999,1.5181,1.5181,1.5181,1.5181,1.5181,1.5181,1.5181,1.5181,1.5194,1.5235,0.0,0.0,0.0,0.0,0.0,0.0,0.0,0.0,0.0,0.0,0.0,0.0,0.0,0.0,0.0,0.0,0.0,0.0,0.0,0.0,0.0,0.2533,0.0905,0.0,0.0,0.0,0.0888,0.2711,0.2938,0.4815,0.8272,0.8195,0.8859,1.007,0.9696,0.9456,0.9403,0.9335,0.9437,0.9545,0.0,0.0,0.0,0.0,0.0,0.0,0.0,0.0,0.0,0.0,0.9792,0.9792,0.9792,0.0,0.0,0.0,0.0,0.0,1.0073,1.0399,1.0326,0.879,0.9377,1.0311,1.0238,1.087,1.1423,1.1335,1.134,1.1475,1.1803,1.206,1.2584,1.3858,1.4584,1.5303,1.6185,1.6347,1.6622,1.7121,1.7304,1.746,1.7636,1.765,1.7561,1.748,1.7385,1.7229,1.7087,1.708,1.7046,1.6985,1.6978,1.6145,1.4331,1.4221,1.2906,1.0359,1.0274,0.9702,0.8715,0.9382,1.0522,1.198,0.0,1.3827,1.5303,1.5215,1.5181,1.5181,1.5181,1.5181,1.5181,1.5181,1.5181,1.5201,0.0,0.0,0.0,0.0,0.0,0.0,0.0,0.0,0.0,0.0,0.0,0.0,0.0,0.0,0.0,0.0,0.0,0.0,0.0,0.0,0.4017,0.3669,0.2042,0.0784,0.003,0.0427,0.1574,0.3475,0.492,0.6575,0.8471,0.9495,1.0031,1.0124,0.9394,0.9235,0.9483,0.9449,0.9523,0.9659,0.0,0.0,0.0,0.0,0.0,0.0,0.0,0.0,0.0,0.0,0.0,0.0,0.0,0.0,0.0,0.9792,0.9792,0.9805,0.991,1.0202,1.0628,1.1084,1.1581,1.1972,1.2176,1.2145,1.2026,1.2081,1.2111,1.2216,1.2302,1.2725,1.358,1.5052,1.5506,1.5893,1.653,1.6422,1.6554,1.7114,1.7188,1.7365,1.7881,1.7704,1.7494,1.7433,1.7249,1.7093,1.6985,1.6944,1.6931,1.6931,1.689,1.6184,1.4767,1.4716,1.3061,0.9728,0.9708,0.8957,0.7663,0.8335,0.951,1.103,1.2031,1.3376,1.4821,1.5087,1.5181,1.5181,1.5181,1.5181,1.5187,1.5221,1.5403,1.5577,0.0,0.0,0.0,0.0,0.0,0.0,0.0,0.0,0.0,0.0,0.0,0.0,0.0,0.0,0.0,0.0,0.0,0.0,0.0,0.0,0.8468,0.7095,0.5429,0.312,0.0064,0.1644,0.3397,0.5215,0.5491,0.6534,0.8332,0.8402,0.9124,1.0218,0.8385,0.8387,0.9751,0.9646,0.9673,0.9771,0.9771,0.0,0.0,0.0,0.0,0.0,0.0,0.0,0.0,0.0,0.0,0.0,0.0,0.0,0.9792,0.9792,0.9792,0.9883,1.0168,1.0696,1.1145,1.1186,1.0995,1.1124,1.24,1.2212,1.2047,1.2778,1.3098,1.3207,1.2982,1.3607,1.4502,1.5404,1.6026,1.6648,1.7392,1.748,1.7589,1.7827,1.7847,1.7868,1.7915,1.7602,1.7433,1.7419,1.7154,1.6992,1.6978,1.6842,1.6716,1.6716,1.6574,1.6448,1.6333,1.6333,1.4623,1.1213,1.1227,1.113,1.0918,0.9426,0.9542,1.0922,1.0859,1.1704,1.3211,1.4617,1.5181,1.5181,1.5181,1.5181,1.5201,1.5343,1.5918,1.6609,0.0,0.0,0.0,0.0,0.0,0.0,0.0,0.0,0.0,0.0,0.0,0.0,0.0,0.0,0.0,0.0,0.0,0.0,0.0,0.8166,0.7837,0.7429,0.5886,0.4406,0.3085,0.2898,0.4309,0.7328,0.8602,0.889,0.8332,0.9246,0.9883,1.027,0.9304,0.9238,0.9785,0.9737,0.9744,0.9792,0.9792,0.9792,0.0,0.0,0.0,0.0,0.0,0.0,0.0,0.0,0.9792,0.9792,0.9792,0.9792,0.9792,0.9792,0.9792,0.9812,0.9964,1.0568,1.12,1.12,1.1287,1.1651,1.2759,1.3119,1.3336,1.3715,1.4102,1.4285,1.398,1.474,1.552,1.5859,1.6571,1.7216,1.7541,1.7717,1.7806,1.786,1.7792,1.7683,1.7683,1.7453,1.7277,1.7277,1.7093,1.6937,1.6842,1.687,1.6809,1.656,1.6594,1.6527,1.6388,1.6388,1.5677,1.4321,1.3318,1.2265,1.1118,0.9426,0.9608,1.1232,1.1563,1.2598,1.4177,1.6238,1.7055,1.7055,1.7055,1.7055,1.7063,1.7124,1.7343,1.7624,0.0,0.0,0.0,0.0,0.0,0.0,0.0,0.0,0.0,0.0,0.0,0.0,0.0,0.0,0.0,0.0,0.0,0.0,0.9029,0.8244,0.7849,0.8094,0.6563,0.5962,0.6497,0.5152,0.573,0.8355,1.0291,1.0474,0.9052,0.9522,0.9922,1.027,0.9492,0.9464,0.9964,0.9886,0.9893,0.9964,0.9879,0.9859,0.0,0.0,0.0,0.0,0.0,0.0,0.0,0.0,1.021,0.9792,0.9792,0.9792,0.9792,0.9792,0.9825,0.9859,0.9859,1.0412,1.1029,1.122,1.1572,1.2189,1.3281,1.3736,1.4109,1.4733,1.4997,1.5086,1.5018,1.552,1.5988,1.613,1.6822,1.7399,1.75,1.767,1.7724,1.7724,1.7629,1.7521,1.7521,1.7344,1.7175,1.7127,1.7032,1.689,1.6635,1.6781,1.672,1.6463,1.6459,1.6422,1.6171,1.6212,1.6287,1.6426,1.5381,1.4062,1.2565,1.1277,1.1351,1.2518,1.294,1.3915,1.5314,1.7451,1.8271,1.8223,1.8223,1.8223,1.8231,1.8241,1.8458,1.8697,0.0,0.0,0.0,0.0,0.0,0.0,0.0,0.0,0.0,0.0,0.0,0.0,0.0,0.0,0.0,0.0,0.0,0.0,0.8703,0.9015,0.9315,0.9591,0.8013,0.8038,0.9946,0.8558,0.7891,0.7997,0.9952,1.0833,1.0651,0.8841,0.8845,1.022,0.8571,0.873,1.027,1.0082,1.0103,1.0295,1.0076,0.9984,0.9984,0.0,0.0,0.0,0.0,0.0,0.0,0.0,1.1171,0.9852,0.9852,0.9822,0.9822,0.9822,0.99,0.9984,0.9984,1.0238,1.0643,1.124,1.1771,1.2506,1.396,1.396,1.4109,1.575,1.573,1.5554,1.6001,1.5845,1.5749,1.6239,1.6809,1.7249,1.7399,1.7419,1.7419,1.7419,1.7419,1.7419,1.7419,1.7283,1.7127,1.6992,1.6978,1.6842,1.6537,1.6524,1.6456,1.6364,1.6164,1.6058,1.5908,1.6058,1.6468,1.7221,1.7337,1.6881,1.5908,1.55,1.5155,1.4938,1.4983,1.5462,1.632,1.7907,1.8424,1.8231,1.8231,1.8223,1.8247,1.8379,1.8997,1.9747,0.0,0.0,0.0,0.0,0.0,0.0,0.0,0.0,0.0,0.0,0.0,0.0,0.0,0.0,0.0,0.0,0.0,0.0,0.8831,0.9077,0.9267,0.9442,0.917,0.9212,0.971,0.9467,0.891,0.8013,0.9862,1.0103,0.8822,0.9356,0.9915,1.0426,0.9838,0.9773,1.0082,1.0035,0.9981,0.9964,0.9994,0.9954,0.9879,0.0,0.0,0.0,0.0,0.0,0.0,0.0,0.0,0.0,1.3168,1.2453,1.16,1.1534,1.0775,0.9963,0.9886,1.0493,1.1165,1.1348,1.2203,1.3261,1.4224,1.459,1.5072,1.6249,1.6361,1.6137,1.6003,1.6286,1.649,1.6198,1.6829,1.7331,1.727,1.7446,1.7446,1.7283,1.7263,1.7222,1.7121,1.7073,1.6978,1.6777,1.677,1.7044,1.7654,1.6932,1.7161,1.8571,1.7063,1.6521,1.7153,1.6453,1.6581,1.7572,1.8299,1.8456,1.8054,1.6804,1.6237,1.6244,1.6915,1.7314,1.77,1.9915,2.0797,2.0751,2.0751,2.066,2.0533,2.055,2.0637,2.0751,0.0,0.0,0.0,0.0,0.0,0.0,0.0,0.0,0.0,0.0,0.8067,0.0,0.0,0.0,0.0,0.0,0.0,0.0,0.0,0.8988,0.9192,0.9403,0.9551,0.9659,0.9693,0.9961,0.9672,0.8793,0.996,0.9992,0.8933,0.9967,1.0466,1.0493,1.0527,1.0426,1.0191,1.013,1.0089,1.0093,1.0096,1.0086,1.0032,0.0,0.0,0.0,0.0,0.0,0.0,0.0,0.0,0.0,1.3855,1.3048,1.2195,1.1523,1.0711,1.0017,1.0197,1.0819,1.1518,1.2054,1.2935,1.3926,1.4909,1.5486,1.6035,1.6797,1.675,1.6564,1.6466,1.6612,1.67,1.6395,1.6856,1.7216,1.7121,1.727,1.7317,1.7127,1.7107,1.7073,1.6992,1.6978,1.689,1.6621,1.6662,1.7095,1.7927,1.7415,1.7776,1.941,1.8164,1.7483,1.7568,1.6927,1.6898,1.752,1.854,1.9199,1.9613,1.8687,1.8286,1.8358,1.928,1.9634,1.9703,2.116,2.1745,2.166,2.166,2.1678,2.1631,2.1546,2.1489,2.1451,0.0,0.0,0.0,0.0,0.0,0.0,0.0,0.0,0.0,0.0,0.816,0.8274,0.0,0.0,0.0,0.0,0.0,0.0,0.0,0.0,0.9034,0.9376,0.943,0.9557,0.9825,1.012,1.0188,0.9984,1.0188,1.0308,1.0304,1.0575,1.0629,1.0527,1.0772,1.0725,1.0466,1.0324,1.0331,1.0439,1.0324,1.0315,1.0297,1.0439,0.0,0.0,0.0,0.0,0.0,0.0,0.0,0.0,1.3147,1.2565,1.2172,1.0633,1.0128,1.0204,1.0779,1.1226,1.1809,1.3132,1.3851,1.4608,1.5832,1.6435,1.6797,1.727,1.7014,1.6831,1.7127,1.6849,1.6567,1.6682,1.6876,1.6971,1.6944,1.6951,1.6951,1.6937,1.6951,1.6958,1.6958,1.6971,1.6908,1.6646,1.6756,1.7158,1.7965,1.8014,1.8463,1.9511,1.9289,1.8667,1.7588,1.749,1.7359,1.7258,1.8271,1.9422,2.061,2.0818,2.0858,2.0796,2.1726,2.2,2.182,2.182,2.1688,2.1546,2.1546,2.1622,2.1763,2.1574,2.1622,2.1763,0.0,0.0,0.0,0.0,0.0,0.0,0.0,0.0,0.0,0.0,0.0,0.0,0.0,0.0,0.0,0.0,0.0,0.0,0.0,0.0,0.9015,0.9226,0.9537,0.9869,1.0175,1.0096,1.0049,0.9984,1.0049,1.0184,1.0446,1.0514,1.0588,1.0677,1.0704,1.0602,1.0317,1.013,1.0082,1.0123,1.0243,1.0315,1.0297,1.0439,1.2274,0.0,0.0,0.0,0.0,0.0,0.0,0.0,1.6549,1.5344,1.4256,1.2291,1.1171,1.0656,1.1016,1.1674,1.2528,1.369,1.4751,1.5683,1.6279,1.6503,1.6581,1.6797,1.7047,1.7222,1.706,1.7039,1.6985,1.673,1.6876,1.6897,1.6653,1.6727,1.6754,1.6632,1.6727,1.675,1.675,1.691,1.7214,1.772,1.7778,1.8554,2.0257,1.9445,1.9833,2.1889,2.0155,1.9068,1.8838,1.8008,1.7598,1.761,1.8635,1.9682,2.0755,2.1478,2.1877,2.2028,2.2223,2.2217,2.2028,2.2028,2.1905,2.1726,2.1726,2.1754,2.1782,2.1735,2.1754,2.1763,0.0,0.0,0.0,0.0,0.0,0.0,0.0,0.0,0.0,0.0,0.0,0.0,0.0,0.0,0.0,0.0,0.0,0.0,0.0,0.0,0.9007,0.9281,0.9618,0.9897,1.0059,1.0021,0.9981,0.9907,0.9907,1.0093,1.0424,1.046,1.0575,1.0684,1.0684,1.0555,1.0301,1.0082,1.0062,1.0136,1.0249,1.0356,1.0399,1.0541,1.2644,1.5471,1.5408,0.0,0.0,0.0,0.0,0.0,0.0,0.0,1.4625,1.1953,1.0775,1.0522,1.1287,1.2033,1.2969,1.4455,1.5398,1.6092,1.6347,1.6479,1.6581,1.6588,1.6944,1.7182,1.71,1.7026,1.7088,1.7397,1.7065,1.6862,1.7209,1.6899,1.656,1.653,1.654,1.6588,1.6588,1.7179,1.7645,1.8002,1.8493,1.9422,2.0876,2.0327,2.0762,2.2508,2.1272,2.0377,1.998,1.8776,1.7961,1.7545,1.8491,1.9809,2.1417,2.1993,2.2293,2.2387,2.2387,2.2274,2.2094,2.2094,2.1971,2.1782,2.1678,2.1763,2.1924,2.183,2.1915,2.2047,0.0,0.0,0.0,0.0,0.0,0.0,0.0,0.0,0.0,0.0,0.0,0.0,0.0,0.0,0.0,0.0,0.0,0.0,0.0,0.0,0.0,0.9408,0.968,0.9812,0.9897,0.9967,0.9954,0.9832,0.9805,0.9992,1.0349,1.0439,1.0561,1.0683,1.0683,1.0514,1.0229,1.0042,1.0082,1.0315,1.0315,1.0378,1.0574,1.0904,1.301,1.5747,1.5752,1.7882,2.0584,1.9898,0.0,0.0,0.0,0.0,1.3979,1.087,1.0035,1.0326,1.1387,1.2307,1.3382,1.5147,1.5859,1.6123,1.6273,1.6446,1.6594,1.6544,1.6768,1.6998,1.7066,1.6856,1.6931,1.7806,1.7107,1.6798,1.7864,1.7255,1.6761,1.6986,1.7044,1.7051,1.7028,1.7851,1.8386,1.8413,1.9258,2.0132,2.1031,2.1071,2.1446,2.234,2.2179,2.1666,2.072,1.9535,1.8504,1.7655,1.8391,1.9751,2.1562,2.1886,2.2175,2.2387,2.2349,2.2227,2.2038,2.2,2.1867,2.1669,2.1536,2.165,2.1971,2.1839,2.2,2.2264,0.0,0.0,0.0,0.0,0.0,0.0,0.0,0.0,0.0,0.0,0.8174,0.8301,0.0,0.0,0.0,0.0,0.0,0.0,0.8899,0.0,0.0,0.9564,0.9704,0.9944,1.0247,1.0076,0.9977,0.9988,0.9852,1.0039,1.0466,1.048,1.05,1.0521,1.0521,1.0358,1.0042,0.9886,1.0019,1.0315,1.0315,1.0446,1.0795,1.1971,1.3884,1.5964,1.6585,1.8482,2.0363,1.8163,1.7763,0.0,0.0,0.0,1.2515,1.0433,1.0096,1.0555,1.1138,1.2644,1.434,1.533,1.5859,1.6123,1.6273,1.6341,1.6395,1.6503,1.6768,1.6904,1.6659,1.6476,1.6418,1.652,1.6339,1.6536,1.7582,1.7632,1.7934,1.8981,1.9097,1.9152,1.926,1.9378,1.9812,2.0533,2.0716,2.1226,2.2152,2.2191,2.2165,2.2132,2.2104,2.1537,2.0277,2.008,1.9573,1.8688,1.8858,1.9102,1.9467,2.0193,2.1235,2.2378,2.2208,2.2019,2.182,2.1631,2.148,2.13,2.1271,2.1394,2.1622,2.1735,2.183,2.1867,0.0,0.0,0.0,0.0,0.0,0.0,0.0,0.0,0.0,0.0,0.0,0.8362,0.0,0.0,0.0,0.8798,0.8811,0.8838,0.8906,0.8967,0.913,0.9376,0.9496,0.9639,0.9805,0.9795,0.9771,0.9771,0.9704,0.9988,1.0622,1.0622,1.0711,1.0893,1.0697,1.05,1.0251,1.0015,0.9994,1.0217,1.1303,1.1946,1.2414,1.3756,1.5545,1.7342,1.733,1.8118,1.8957,1.7877,1.7093,1.607,1.3301,0.0,0.0,0.0,0.9958,1.0378,1.1586,1.2895,1.4329,1.6055,1.6598,1.6917,1.7759,1.7994,1.8104,1.8024,1.8219,1.8012,1.6735,1.6858,1.7408,1.8011,1.7477,1.7536,1.9061,1.8211,1.7898,1.9002,1.9166,1.9231,1.9409,1.9975,2.0498,2.0858,2.1443,2.195,2.2397,2.2387,2.2302,2.2094,2.1867,2.1507,2.0941,2.0209,1.9785,1.9598,1.9067,1.9164,1.9694,1.9513,2.0093,2.1265,2.1722,2.1877,2.1773,2.1556,2.1461,2.1375,2.1262,2.1338,2.1527,2.1622,2.1688,2.1811,0.0,0.0,0.0,0.0,0.0,0.0,0.0,0.0,0.0,0.0,0.0,0.0,0.0,0.0,0.0,0.0,0.8967,0.8953,0.8912,0.8912,0.9001,0.92,0.9288,0.9369,0.941,0.953,0.9612,0.9612,0.9656,1.01,1.0833,1.0833,1.107,1.1519,1.1036,1.0724,1.0527,1.0204,1.0336,1.091,1.2399,1.3419,1.4165,1.5619,1.7092,1.8379,1.8231,1.8301,1.8411,1.7941,1.699,1.5658,1.3725,1.2812,0.0,0.0,0.0,1.0053,1.1626,1.2542,1.3638,1.6044,1.678,1.7257,1.8744,1.9191,1.9304,1.9207,1.9296,1.8983,1.7444,1.7767,1.8486,1.9293,1.8653,1.8594,2.0253,1.9077,1.8421,1.9497,1.9676,1.9761,1.9945,2.0692,2.1219,2.1219,2.1946,2.2368,2.2321,2.2312,2.217,2.1867,2.1603,2.1385,2.1234,2.0344,1.9922,1.9979,1.9212,1.9173,1.9647,1.9173,1.9363,2.0129,2.0996,2.1469,2.1688,2.1527,2.1442,2.1423,2.1271,2.1309,2.1442,2.1499,2.1537,2.166,0.0,0.0,0.0,0.0,0.0,0.0,0.0,0.0,0.0,0.0,0.0,0.0,0.8879,0.9049,0.9187,0.92,0.9172,0.9111,0.8919,0.8912,0.9001,0.92,0.9214,0.0,0.9403,0.953,0.9612,0.9612,0.9859,1.0373,1.1172,1.1172,1.1635,1.2393,1.156,1.0975,1.0657,1.0392,1.132,1.2947,1.3201,1.4125,1.5568,1.7308,1.8042,1.8265,1.9322,0.0,0.0,0.0,1.7373,1.6954,1.5108,1.3345,1.2014,0.0,0.0,0.0,1.0555,1.1151,1.2084,1.4511,1.5592,1.653,1.8248,1.8778,1.8996,1.915,1.9191,1.9207,1.9058,1.9108,1.9149,1.9199,1.9004,1.9232,2.0333,2.0224,2.0455,2.1515,2.1827,2.1949,2.1959,2.2176,2.2338,2.2338,2.2387,2.2312,2.2113,2.2104,2.1839,2.1281,2.1243,2.0998,2.0547,2.068,2.0272,1.9365,1.9374,1.8869,1.7957,1.8915,1.942,1.9483,1.99,2.0633,2.1517,2.1319,2.1233,2.1233,2.1224,2.1224,2.1252,2.1442,2.1404,2.1281,0.0,0.0,0.0,0.0,0.0,0.0,0.0,0.0,0.0,0.0,0.0,0.0,0.0,0.924,0.9288,0.9221,0.9207,0.9117,0.8919,0.9088,0.9157,0.9022,0.9293,0.941,0.9267,0.9483,0.9612,0.9612,0.9683,1.0116,1.088,1.088,1.1206,1.1775,1.145,1.1253,1.1118,1.0622,1.1409,1.3074,1.4321,1.605,1.7969,1.8859,1.9767,2.0548,0.0,0.0,0.0,0.0,0.0,0.0,0.0,1.4055,1.3355,1.3041,1.1902,1.0897,1.161,1.133,1.1393,1.3835,1.5334,1.6722,1.8399,1.9712,2.0649,2.0855,2.099,2.1115,2.1232,2.0669,2.0226,2.0226,1.9534,1.9279,2.0224,1.903,1.8732,2.044,2.0693,2.1069,2.1838,2.2085,2.2198,2.2198,2.2321,2.2302,2.2104,2.2094,2.1811,2.1233,2.1036,2.0762,2.0292,2.0358,2.0282,2.0051,1.9418,1.8919,1.8556,1.8283,1.8547,1.9155,1.9463,2.026,2.1309,2.1045,2.096,2.096,2.096,2.096,2.0989,2.1196,2.1281,2.1262,0.0,0.0,0.0,0.0,0.0,0.0,0.0,0.0,0.0,0.0,0.0,0.0,0.0,0.0,1.0244,1.0161,0.9595,0.922,0.9061,0.9273,0.9293,0.9068,0.9374,0.9435,0.926,0.9429,0.9816,1.0399,0.9921,1.0559,1.2281,1.1207,1.1254,1.2256,1.2166,1.1845,1.1355,1.086,1.1906,1.4016,1.5431,1.7616,2.0036,2.0519,2.1162,2.1756,0.0,0.0,0.0,0.0,0.0,0.0,0.0,0.0,1.4645,1.3234,1.2115,1.1363,1.1319,1.074,1.069,1.3032,1.4372,1.5756,1.8028,1.9522,2.0601,2.1329,2.1745,2.195,2.1807,2.1214,2.0826,2.0826,1.9729,1.9092,1.9688,1.8366,1.7836,1.924,1.977,2.033,2.1138,2.1676,2.199,2.199,2.2113,2.2094,2.1896,2.182,2.1499,2.0866,2.0573,2.0283,2.0119,2.0044,2.0119,2.0292,1.9615,1.9303,1.9303,1.8685,1.8765,1.941,1.9716,2.0327,2.1055,2.0979,2.0858,2.0801,2.0922,2.0858,2.082,2.1093,2.1262,2.1356,0.0,0.0,0.0,0.0,0.0,0.0,0.0,0.0,0.0,0.9152,0.0,0.0,0.0,0.0,0.0,1.2085,1.0543,0.9533,0.9468,0.9475,0.9446,0.941,0.9417,0.9424,0.9417,0.9424,1.0244,1.1938,1.0553,1.1782,1.5333,1.2258,1.1988,1.4019,1.3704,1.2786,1.1482,1.1193,1.2967,1.6038,1.6499,1.8661,2.1689,2.2205,2.2084,0.0,2.1957,2.1515,0.0,2.175,0.0,0.0,0.0,0.0,0.0,0.0,1.1419,1.0905,0.0,0.0,0.0,1.1981,1.2593,1.3555,1.6863,1.7924,1.8659,2.0383,2.1235,2.1449,2.061,2.0619,2.0701,2.071,1.9562,1.8656,1.8656,1.8348,1.8129,1.8176,1.9214,1.9985,2.0041,2.1081,2.1782,2.1782,2.1792,2.1697,2.1527,2.1309,2.0866,2.0233,1.9807,1.9694,1.9902,1.9694,1.9694,1.9858,1.9858,1.9902,1.9921,2.011,2.0204,2.0188,2.0603,2.0782,2.0801,2.1064,2.1036,2.082,2.1074,2.1026,2.082,2.1093,2.1338,2.1508,0.0,0.0,0.0,0.0,0.0,0.0,1.0417,0.9792,0.9225,0.0,0.0,0.0,1.1833,1.3201,1.4025,1.4025,1.3593,1.268,1.1224,1.1334,1.0835,0.9446,0.9585,0.9652,0.9551,0.9646,0.9924,1.041,1.1178,1.212,1.3256,1.3528,1.4116,1.4941,1.5053,1.4763,1.4244,1.4435,1.5909,1.8179,1.8492,2.0209,2.2505,2.2205,2.2672,0.0,0.0,2.292,2.3193,0.0,2.2418,2.151,0.0,0.0,1.771,0.0,1.3878,1.2634,1.1009,0.0,0.0,0.0,0.0,0.0,1.3527,1.4902,1.6459,1.837,1.9059,1.9472,2.0015,1.9538,1.8856,1.8302,1.7853,1.7599,1.7599,1.6693,1.6587,1.8036,1.8497,1.9278,2.0732,2.1292,2.1556,2.1556,2.1707,2.1697,2.1527,2.0989,2.0497,2.0015,1.9741,1.9562,1.9467,1.941,1.941,1.9467,1.9467,1.9543,1.9684,1.9741,1.9855,2.0015,2.0235,2.0433,2.0594,2.0801,2.0848,2.0801,2.0867,2.0848,2.082,2.1093,2.1252,2.1319,0.0,0.0,0.0,0.0,0.0,1.0398,1.0493,0.9918,0.9476,0.0,0.0,0.0,1.1978,1.3277,1.3996,1.3941,1.322,1.2303,1.1112,1.1782,1.1407,0.963,1.0351,1.0439,0.97,0.969,1.0056,1.0808,1.1011,1.22,1.4309,1.4032,1.4696,1.6199,1.6593,1.67,1.6624,1.7629,1.8279,1.8706,1.9456,2.1096,2.3073,2.3255,2.3741,0.0,0.0,0.0,2.4219,2.3369,2.2155,0.0,0.0,0.0,0.0,0.0,0.0,1.2413,1.0662,0.9612,0.9103,0.9401,0.0,0.0,1.2478,1.3647,1.514,1.7507,1.8376,1.8827,1.9219,1.8997,1.8508,1.7694,1.7575,1.7432,1.7012,1.6223,1.6229,1.7726,1.8383,1.9101,2.018,2.0937,2.1356,2.1215,2.1404,2.1404,2.1102,2.0203,1.9547,1.9225,1.859,1.8215,1.8231,1.8189,1.8189,1.8231,1.8651,1.8885,1.8965,1.939,1.9666,1.9798,2.0091,2.0289,2.0377,2.0584,2.0669,2.0679,2.0763,2.0745,2.0707,2.1055,2.1271,2.1375,0.0,0.0,0.0,1.2259,1.2049,1.1569,1.0222,1.014,1.0278,0.0,1.0262,1.0929,1.2642,1.3052,1.3172,1.3032,1.1549,1.0516,1.0263,1.1492,1.1488,0.9883,1.1171,1.1269,0.9842,0.969,1.0411,1.1982,1.0816,1.2503,1.676,1.4499,1.4953,1.7721,1.8279,1.8503,1.8584,2.0312,2.0029,1.8573,2.0055,2.1742,2.3479,2.4568,2.4798,2.4453,2.3403,2.3619,2.4203,2.293,2.1245,0.0,0.0,0.0,0.0,0.0,1.1793,1.1347,0.9461,0.9096,0.9294,0.9517,0.943,0.0,1.2471,1.3141,1.4025,1.6771,1.7956,1.8343,1.7836,1.8285,1.8392,1.7512,1.761,1.7591,1.6853,1.6632,1.6834,1.7566,1.8689,1.9325,1.922,2.0382,2.1026,2.0811,2.0906,2.0785,2.0346,1.9105,1.8357,1.8103,1.6927,1.6391,1.663,1.6563,1.6579,1.6663,1.7622,1.8058,1.8028,1.9093,1.9581,1.9618,2.0015,2.0195,2.0233,2.0358,2.0452,2.0518,2.0716,2.0688,2.0575,2.1026,2.1328,2.1508,0.0,1.3051,1.2563,1.3558,1.2938,1.2632,1.3599,1.4101,1.4367,1.4367,1.4356,1.4677,1.5521,1.5329,1.5132,1.5126,1.4699,1.3721,1.2028,1.2186,1.1585,0.9883,1.0088,1.0182,0.9974,0.9947,1.0156,1.0661,1.3026,1.4675,1.5678,1.7765,1.9061,1.965,1.9768,1.972,1.9567,2.0411,2.0668,2.0628,2.211,2.3126,2.3727,2.4011,2.4231,2.4211,2.2957,2.2795,2.2971,2.1673,2.0667,1.957,0.0,0.0,0.0,1.306,0.0,0.0,0.0,0.0,0.0,0.0,0.0,0.0,1.0111,1.0308,1.0926,1.2721,1.3326,1.3705,1.4326,1.472,1.4666,1.3701,1.5001,1.6509,1.7653,1.769,1.7881,1.8615,1.894,1.9463,2.0353,2.0579,2.0669,2.0782,1.9998,1.9419,1.9133,1.81,1.7297,1.6923,1.6434,1.6138,1.6129,1.604,1.6114,1.6399,1.7167,1.7671,1.7943,1.8912,1.9448,1.9609,1.9864,2.0072,2.0214,2.0091,2.0198,2.0518,2.0716,2.0773,2.0773,2.1074,2.1243,2.1281,1.6476,1.6211,1.5666,1.4678,1.4922,1.4623,1.2818,1.4395,1.5145,1.3334,1.3309,1.347,1.3535,1.3511,1.3394,1.321,1.3091,0.0,0.0,1.1999,1.1624,0.989,1.0616,1.0765,1.0015,1.0957,1.1501,1.1593,1.4145,1.5814,1.6649,1.8434,1.9506,2.004,2.0437,2.0397,2.0054,2.0641,2.0787,2.0811,2.2765,2.3415,2.3305,2.394,2.3854,2.3244,2.1959,2.1486,2.1395,2.0632,1.9297,0.0,1.6481,1.5644,1.4748,0.0,1.2324,1.231,0.0,0.0,0.0,0.9517,0.0,0.0,0.0,1.0226,1.0604,1.2256,1.2634,1.2874,1.3567,1.3924,1.4005,1.3725,1.517,1.6467,1.6828,1.7767,1.8714,1.9373,1.9561,1.9616,1.966,2.0165,2.0537,2.0641,1.959,1.8902,1.8699,1.7148,1.6066,1.5722,1.501,1.4627,1.4586,1.4676,1.4803,1.4967,1.5881,1.665,1.729,1.8231,1.8976,1.9599,1.9713,1.9817,1.9902,1.9798,1.9883,2.01,2.0367,2.0481,2.0528,2.0885,2.1007,2.1036,1.9065,1.9348,1.8756,1.5826,1.6881,1.6706,1.2521,1.4817,1.5921,1.278,1.2133,1.1881,1.1589,1.1587,1.1559,1.1434,1.1256,1.1063,1.0909,1.1751,1.1526,0.99,1.1202,1.1503,1.0585,1.2113,1.3127,1.3478,1.5231,1.673,1.8044,1.857,1.9267,2.008,2.0788,2.0615,1.9815,2.0367,2.0275,1.9946,2.2061,2.2686,2.2395,2.3393,2.3095,2.197,2.0729,2.0119,1.9813,1.93,1.7758,1.5919,1.4912,1.3699,0.0,0.0,0.0,0.0,0.0,0.0,0.0,0.0,0.0,0.9716,0.0,0.0,0.0,1.2242,1.2508,1.2588,1.2958,1.3217,1.3496,1.3823,1.5222,1.5983,1.5033,1.6874,1.8461,1.8965,1.942,1.9333,1.839,1.9321,1.9995,2.0146,1.8814,1.799,1.806,1.6086,1.4857,1.4521,1.3629,1.3186,1.3214,1.3556,1.3748,1.3838,1.5063,1.6013,1.6808,1.7746,1.8691,1.9477,1.9524,1.9543,1.9543,1.9581,1.9571,1.9581,2.0044,2.0223,2.0217,2.0603,2.0763,2.0839,1.9401,1.8483,1.7636,1.7318,1.7832,1.812,1.765,1.9255,2.0033,1.862,1.5863,1.4208,1.458,1.3666,1.3349,1.401,1.3691,1.3321,1.3077,1.2205,1.1178,1.0032,1.0163,1.1005,1.2553,1.2887,1.3892,1.5552,1.7321,1.8259,1.8482,2.0036,2.0826,2.0962,2.1069,2.006,1.8351,1.8681,1.8586,1.8331,1.9324,2.0176,2.0831,2.1,2.0971,2.0668,1.9573,1.9052,1.8675,0.0,1.657,1.5927,0.0,1.3817,1.4639,1.1403,0.0,0.0,0.0,0.0,0.0,0.0,1.0168,0.0,0.0,0.0,0.9864,0.9706,0.0,0.9839,0.9895,0.0,0.0,1.0189,1.2003,1.3185,1.2598,1.4424,1.58,1.5836,1.6952,1.7702,1.7693,1.7853,1.8195,1.8849,1.6537,1.5363,1.6019,1.4615,1.3699,1.3569,1.3213,1.3084,1.3214,1.3886,1.4412,1.4757,1.6377,1.7264,1.7504,1.8463,1.894,1.9102,1.925,1.9335,1.9344,1.9524,1.9495,1.9392,1.9987,2.0223,2.0251,2.0443,2.0641,2.0782,1.9428,1.9347,1.8943,1.781,1.8901,1.9252,1.7291,1.7128,1.7458,1.8205,1.5401,1.3356,1.3476,1.3016,1.3125,1.4064,1.386,1.3486,1.3088,1.2479,1.1527,1.0233,1.1231,1.2186,1.2991,1.5118,1.6626,1.7409,1.9152,2.0005,2.0036,2.0748,2.0375,1.91,1.9998,1.9249,1.732,1.7649,1.7583,1.7307,1.775,1.7966,1.8186,1.993,2.0079,1.9242,1.8648,1.838,1.8199,0.0,1.629,0.0,0.0,0.0,0.0,1.2764,0.0,0.0,0.0,0.0,0.0,0.0,0.0,0.0,0.994,0.0,0.9557,0.0,0.0,0.0,0.0,0.0,0.0,0.0,1.106,1.1826,1.1005,1.283,1.4463,1.5006,1.4742,1.4641,1.4947,1.5891,1.6663,1.7231,1.5532,1.4687,1.5143,1.4098,1.339,1.3152,1.35,1.3702,1.3666,1.4632,1.5252,1.549,1.6344,1.7127,1.7761,1.8106,1.8583,1.9165,1.9127,1.9108,1.9117,1.9203,1.9184,1.9165,1.9666,1.9855,1.9902,2.0233,2.0367,2.0443,1.9495,2.0097,2.0099,1.8582,1.9855,2.0284,1.7821,1.647,1.6342,1.8051,1.5812,1.4091,1.4314,1.4338,1.4806,1.5925,1.5551,1.5118,1.479,1.3682,1.2688,1.1806,1.2637,1.3474,1.4258,1.7054,1.8736,1.9228,2.0494,2.1109,2.1109,2.1029,1.9863,1.7835,1.9044,1.8515,1.6802,1.7347,1.7413,1.7158,1.748,1.7346,1.7179,1.9135,1.9243,1.8248,1.8067,1.801,1.7924,1.744,1.6175,0.0,1.6334,1.5087,1.3271,0.0,0.0,0.0,1.1217,0.0,0.0,0.0,0.0,0.0,0.0,0.0,0.0,0.0,0.0,0.0,0.0,0.0,0.9458,0.972,0.0,1.0765,0.9951,1.1285,1.2664,1.3474,1.2884,1.2631,1.3147,1.413,1.4875,1.5178,1.3911,1.3195,1.3384,1.2671,1.2134,1.1903,1.2483,1.2906,1.3151,1.4251,1.5051,1.5516,1.5973,1.671,1.7776,1.7616,1.8132,1.9117,1.8966,1.8932,1.8941,1.8998,1.8989,1.8938,1.941,1.9562,1.9562,1.9987,2.0176,2.0188,1.9733,2.004,2.021,2.0136,2.0659,2.1171,2.1386,2.0072,1.9321,2.0098,1.8889,1.8307,1.9352,1.9514,2.0028,2.1251,2.0152,1.9495,1.9741,1.6421,1.4757,1.5489,1.3987,1.4406,1.7193,1.8081,1.9323,2.1014,2.1077,2.1109,2.1096,2.0815,1.9848,1.8281,1.86,1.8105,1.706,1.7907,1.8275,1.8299,1.8815,1.9118,1.9131,1.8367,1.8059,1.802,1.801,0.0,0.0,1.6581,1.611,0.0,0.0,0.0,0.0,0.0,0.0,0.0,0.0,0.0,0.0,1.0651,0.0,0.0,0.0,0.0,1.0337,0.0,0.0,0.0,0.0,0.0,0.0,0.0,0.9741,0.0,0.0,0.9603,0.9828,1.0111,1.1541,1.2755,1.343,1.295,1.2648,1.2702,1.0932,0.9838,0.9779,0.951,0.9281,0.9134,0.9169,0.9763,1.0978,1.1985,1.3171,1.4556,1.5416,1.6375,1.7413,1.7211,1.7724,1.8733,1.8733,1.8724,1.8702,1.8941,1.8904,1.879,1.9363,1.9477,1.9354,1.9779,2.0009,2.0195,1.9997,2.0321,2.0521,2.0521,2.0842,2.1336,2.2017,2.0805,2.0484,2.2387,2.1105,2.0704,2.2527,2.2768,2.3187,2.4218,2.2642,2.1704,2.2022,1.9234,1.733,1.6841,1.7471,1.7886,1.7921,1.9817,2.0903,2.1109,2.1109,2.1109,2.1096,2.0846,1.9786,1.8199,1.8884,1.8588,1.7699,1.8247,1.8306,1.7941,1.67,1.7445,1.9167,0.0,1.7464,1.8511,1.8718,1.8279,0.0,1.8191,1.7237,1.5895,1.6345,1.5553,1.4552,1.5016,1.548,1.57,0.0,0.0,1.7165,1.5231,0.0,0.0,0.0,0.0,0.0,0.0,0.0,0.0,0.0,0.0,0.0,0.0,0.0,0.0,0.0,0.9369,0.9026,0.8171,0.933,0.9695,0.8402,0.9709,1.0224,0.9234,0.9493,0.9549,0.9174,0.9051,0.9006,0.9005,1.0346,1.1212,1.1551,1.3479,1.4962,1.6025,1.6392,1.71,1.8052,1.7809,1.7987,1.8506,1.8506,1.8582,1.8724,1.879,1.878,1.8762,1.9212,1.9354,1.9344,1.977,1.9915,1.9971,2.0347,2.0548,2.0712,2.0712,2.1096,2.1643,2.2311,2.2182,2.2755,2.4793,2.446,2.4707,2.6561,2.6436,2.6475,2.7088,2.541,2.4329,2.4243,2.1547,1.9978,1.9952,2.0337,2.0468,0.0,0.0,0.0,2.1577,2.1363,2.1216,2.1096,2.0708,1.9632,1.8058,1.8625,1.8832,1.8799,1.9463,1.9544,1.9074,1.6536,1.6971,1.902,0.0,1.7719,1.8767,0.0,1.8433,1.7521,1.845,1.7644,1.645,1.7339,1.6721,1.5867,1.6702,1.7292,1.7679,1.7593,1.8801,0.0,1.7896,1.7969,0.0,1.6084,0.0,0.0,0.0,0.0,0.0,0.0,0.0,0.0,0.0,0.0,0.0,0.0,0.9226,0.8702,0.7138,0.7842,0.776,0.6062,0.72,0.7619,0.6582,0.7422,0.7724,0.7054,0.7294,0.7501,0.7523,0.9591,1.0861,1.1205,1.3551,1.5264,1.633,1.635,1.6884,1.7901,1.7658,1.7875,1.8402,1.8477,1.8591,1.8714,1.8714,1.8714,1.8711,1.9051,1.9184,1.924,1.9741,1.9921,1.9921,2.0726,2.0753,2.0779,2.0793,2.1462,2.2084,2.2432,2.4195,2.5959,2.7296,2.8741,3.0087,3.133,3.0552,3.0018,3.003,2.8604,2.7345,2.661,2.3556,2.2675,0.0,2.2584,2.2264,2.4224,0.0,0.0,0.0,2.1877,2.1422,2.1122,2.0477,1.9424,1.8025,1.8007,1.8741,2.0085,2.1209,2.1639,2.1266,1.8147,1.7612,1.8724,1.8509,1.8613,1.8831,1.9248,1.8547,1.7502,1.7578,1.755,1.7483,1.7435,1.8187,1.9125,1.9201,2.007,2.0879,2.0196,2.0055,1.9882,1.8871,1.8635,0.0,0.0,0.0,1.7475,0.0,0.0,0.0,0.0,0.0,0.0,0.0,0.0,0.0,0.8811,0.9103,0.873,0.6935,0.7109,0.7045,0.6279,0.5479,0.4923,0.4763,0.481,0.4489,0.3714,0.4475,0.4962,0.5056,0.7162,0.891,1.0158,1.2311,1.4121,1.5559,1.5365,1.5906,1.7038,1.6933,1.7429,1.8402,1.861,1.8705,1.8714,1.8714,1.8714,1.8733,1.8941,1.9027,1.908,1.9684,1.9911,1.9921,2.1002,2.1349,2.171,2.1937,2.1836,2.2091,2.3281,2.4422,2.6239,2.9222,3.0648,3.2305,3.4576,3.4398,3.3927,3.3546,3.1479,3.0241,3.0318,2.7624,2.6354,2.704,2.6592,2.601,2.5326,2.4698,2.4088,2.342,2.1951,2.1296,2.1448,2.0615,1.9985,1.9607,1.9593,1.9349,1.8951,1.9818,1.923,1.7639,1.5813,1.6158,1.7772,0.0,1.8205,1.9054,2.1158,2.0526,1.8888,1.9757,1.9572,1.8799,1.7913,1.7836,1.826,1.9172,2.0359,2.1562,2.2479,2.354,2.4227,2.3515,2.3174,2.2745,0.0,0.0,0.0,0.0,0.0,0.0,0.0,0.0,0.0,0.0,0.0,0.0,0.0,0.0,0.8689,0.7182,0.6828,0.5886,0.3715,0.3396,0.3208,0.2923,0.3626,0.4177,0.4397,0.4996,0.5985,0.7386,0.971,1.1442,1.252,1.3985,1.5213,1.6242,1.6306,1.6836,1.7728,1.7713,1.7955,1.8392,1.8449,1.8572,1.8714,1.8714,1.8714,1.8733,1.8941,1.9165,1.9458,1.9618,1.9779,1.9921,2.1496,2.2071,2.2659,2.2953,2.3308,2.3843,2.4807,2.5438,2.6881,2.978,3.1517,3.3013,3.4427,3.5191,3.5338,3.4629,3.3042,3.1864,3.1336,2.9551,0.0,2.8758,2.8596,2.8158,2.7384,2.6306,0.0,2.3955,2.2298,2.1042,2.0138,1.9351,1.8585,1.7918,1.8026,1.7832,1.7529,1.8936,1.829,1.639,1.6738,1.7107,0.0,1.8347,1.8775,1.9228,2.1268,2.0462,1.8509,1.9191,1.9056,1.849,1.7893,1.801,1.8595,1.9915,2.1132,2.2399,2.3884,2.4942,2.5596,2.5516,2.5344,2.501,2.4262,2.4222,2.3997,0.0,2.1842,2.0353,0.0,0.0,0.0,0.0,0.0,0.0,0.0,0.0,0.8727,0.7201,0.6936,0.6001,0.3761,0.3385,0.3326,0.3447,0.4172,0.471,0.5004,0.6272,0.749,0.8584,1.0969,1.2731,1.3763,1.4956,1.6048,1.7029,1.7108,1.7444,1.801,1.8104,1.8248,1.8402,1.8496,1.86,1.8714,1.8714,1.8714,1.8724,1.8796,1.9099,1.9467,1.9467,1.9656,1.9921,2.2151,2.2846,2.3527,2.3781,2.5168,2.6386,2.6841,2.7215,2.8177,3.0181,3.2158,3.332,3.3196,3.4656,3.5364,3.4563,3.3868,3.2812,3.1236,3.0478,3.0143,3.017,2.9716,2.9587,2.9851,2.8293,2.6451,0.0,2.2506,2.0423,1.7991,1.7387,1.6348,1.5004,1.5186,1.5543,1.6203,1.7945,1.7791,1.6599,1.8863,1.8857,1.7663,1.9187,1.943,1.9105,2.0161,1.9266,1.7655,1.7655,1.7636,1.7683,1.7672,1.8288,1.9302,2.0839,2.19,2.2955,2.4659,2.5115,2.5248,2.5797,2.5841,2.558,2.5076,2.4846,2.4197,2.2301,2.1425,2.0214,0.0,0.0,0.0,0.0,0.0,0.0,0.0,0.0,0.9314,0.7683,0.773,0.0,0.5622,0.4661,0.4428,0.5142,0.5354,0.5557,0.5743,0.7787,0.9163,0.9628,1.1857,1.3544,1.4584,1.5675,1.6637,1.7526,1.766,1.7831,1.802,1.8286,1.8439,1.8449,1.8638,1.8714,1.8714,1.8714,1.8714,1.8724,1.8743,1.8957,1.9297,1.9325,1.9581,1.9921,2.3046,2.3607,2.4062,2.4115,2.5932,2.7909,2.9476,3.0373,3.1396,3.2986,3.4563,3.5698,3.6126,3.6072,3.5832,3.5431,3.4416,0.0,0.0,0.0,0.0,3.173,3.2191,3.2231,3.1742,2.962,2.7293,0.0,0.0,1.8686,1.6476,1.593,1.5432,1.4993,1.5034,1.5381,1.5872,1.5224,1.5672,1.6936,1.7668,1.7763,1.7509,1.7771,1.7815,1.7721,1.7949,1.8395,1.8878,1.8878,1.8973,1.8944,1.798,1.7816,1.8405,2.0654,2.1295,2.1871,2.4421,2.5115,2.5157,2.5504,2.4946,2.4307,2.4207,2.3572,2.2849,2.2444,2.1346,1.9913,1.8225,0.0,0.0,0.0,0.0,0.0,0.0,0.0,0.0,1.0837,1.0638,1.0056,0.8574,0.6195,0.5006,0.5644,0.5062,0.5578,0.759,0.8719,1.0464,1.297,1.4681,1.5727,0.0,0.0,1.7106,1.6469,1.7472,1.7972,1.802,1.8447,1.8657,1.8667,1.8695,1.8714,1.8714,1.8714,1.8714,1.8733,1.8904,1.908,1.9316,1.9486,1.9703,1.9921,2.4182,2.4583,2.513,2.5879,2.7843,2.99,3.1677,3.3213,3.3988,3.348,3.4309,3.4923,3.4883,3.5591,3.5899,3.5444,3.4616,3.3855,3.3227,3.3127,3.2955,3.2688,3.353,3.3504,3.2498,3.051,2.7715,2.4074,0.0,1.7995,1.4426,1.4103,1.3349,1.2361,1.358,1.4435,1.5115,1.6794,1.7378,1.7384,1.8759,1.856,1.7433,1.7426,1.7388,1.7388,1.7388,1.7759,1.8281,1.8281,1.8323,1.8317,1.7845,1.7614,1.8048,2.0555,2.1144,2.1548,2.4126,2.485,2.4767,2.4441,2.406,2.3678,2.3185,2.2789,2.2332,2.1647,2.0849,1.9647,1.7578,1.49,0.0,0.0,0.0,0.0,0.0,0.0,1.3128,0.0,0.0,0.0,1.0271,0.8338,0.7129,0.7084,0.6887,0.7455,0.9065,1.0426,1.214,1.4257,0.0,0.0,1.7098,0.0,1.7045,1.7125,1.7861,1.821,1.822,1.8532,1.8714,1.8714,1.8714,1.8714,1.8714,1.8714,1.8714,1.8724,1.8828,1.9014,1.9306,1.9401,1.9647,1.9921,2.5531,2.5772,2.6386,2.7989,2.9873,3.169,3.328,3.5271,3.5925,3.4068,3.4242,3.4336,3.3788,3.5124,3.5859,3.5338,3.4696,3.3988,3.3227,3.369,3.3787,3.3289,3.4309,3.4251,3.2851,3.1196,2.8097,0.0,0.0,0.0,0.0,1.2471,1.1619,1.0618,1.2544,1.4167,0.0,0.0,1.998,1.8743,2.0437,1.9795,1.7827,1.7521,1.7388,1.7388,1.7388,1.7388,1.7397,1.7435,1.7425,1.7416,1.7576,1.752,1.7912,2.0467,2.111,2.1475,2.3624,2.4216,2.4009,2.3054,2.2778,2.2614,2.1862,2.1707,2.1405,2.0404,2.0057,1.9174,1.6839,1.5471,0.0,0.0,0.0,0.0,0.0,0.0,0.0,0.0,0.0,0.0,1.1363,1.0003,0.8996,0.868,0.9226,0.9803,1.0375,1.2098,1.3526,0.0,0.0,1.59,1.7022,0.0,1.7011,1.7773,1.8178,1.8392,1.8402,1.8619,1.8714,1.8714,1.8714,1.8714,1.8714,1.8714,1.8714,1.8683,1.8762,1.8966,1.9306,1.9344,1.9599,1.9921,2.7188,2.7268,2.7777,2.9798,3.1417,3.2755,3.3694,3.5578,3.6779,3.6552,3.6552,3.6485,3.6206,3.6112,3.5939,3.5618,3.4817,3.4175,3.3828,3.3937,3.3885,3.3597,3.4813,3.4803,3.3277,3.1794,2.8787,0.0,0.0,1.6644,0.0,1.156,1.1511,1.301,0.0,0.0,0.0,2.0816,2.1679,2.2186,2.1644,2.0577,1.9175,1.7874,1.7388,1.7388,1.7388,1.7388,1.7416,1.7595,1.7539,1.7388,1.7407,1.7407,1.7883,2.0307,2.1011,2.1288,2.2595,2.2967,2.2682,2.151,2.0698,2.0142,2.0046,1.9534,1.9041,1.8918,1.8706,1.8163,1.6771,1.6324,1.5748,0.0,0.0,0.0,0.0,0.0,1.6693,1.4998,0.0,0.0,1.2178,1.0192,0.9182,0.9796,1.1004,1.1703,1.1728,0.0,0.0,1.4325,1.507,1.5293,1.4885,1.6843,1.7529,1.6924,1.7929,1.8392,1.8402,1.8619,1.8714,1.8714,1.8714,1.8714,1.8714,1.8714,1.8714,1.8733,1.8913,1.9089,1.9316,1.9505,1.9722,1.9949,0.0,0.0,0.0,0.0,0.0,0.0,0.0,3.6299,3.6885,3.6885,3.6885,3.6779,3.654,3.6246,3.5885,3.5404,3.4563,3.3855,3.3374,3.4164,3.4288,3.3406,3.4835,3.4789,3.2983,3.1353,2.8453,0.0,0.0,0.0,0.0,0.0,0.0,0.0,0.0,1.9172,2.1078,2.2019,2.2318,2.2045,2.0813,1.9535,1.8357,1.7655,1.7388,1.7388,1.7388,1.7388,1.7397,1.7482,1.7454,1.7435,1.768,1.7586,1.775,1.9586,2.0016,2.0199,2.14,2.1737,2.1473,2.0385,1.9938,1.9664,1.9105,1.8819,1.8551,1.8019,1.7416,1.6993,1.7203,1.6355,1.5936,1.6907,0.0,0.0,0.0,0.0,0.0,1.5031,0.0,1.2653,1.223,0.9969,0.9561,1.2025,1.1681,1.1167,0.0,0.0,0.0,1.3413,0.0,1.6039,1.5521,1.7148,1.7974,1.7934,1.8382,1.8591,1.8591,1.8676,1.8714,1.8714,1.8714,1.8714,1.8714,1.8714,1.8714,1.8733,1.8941,1.9108,1.9325,1.9524,1.9732,1.9887,3.1042,0.0,3.0538,0.0,3.2737,3.2865,3.4567,3.5054,3.5195,3.5131,3.5195,3.553,3.6311,3.5679,3.4989,3.4412,3.3162,3.2148,3.1598,3.2676,3.2831,3.18,3.3058,0.0,3.1573,3.0147,2.7918,2.4869,2.1519,0.0,0.0,0.0,0.0,0.0,2.025,2.139,2.1981,2.2938,2.2585,2.1246,2.0185,1.8962,1.7756,1.7558,1.7444,1.7388,1.7388,1.7388,1.7407,1.7529,1.7529,1.752,1.7756,1.7708,1.7807,1.9047,1.9357,1.9453,2.0259,2.0462,2.0227,1.9203,1.9128,1.9114,1.8545,1.836,1.806,1.715,1.6443,1.6312,1.7406,1.6601,1.6349,1.8035,0.0,0.0,0.0,1.747,0.0,1.5041,1.3477,1.2605,1.2727,1.0666,1.069,1.4003,1.3039,0.0,0.0,0.0,0.0,0.0,0.0,0.0,1.6121,1.7435,1.8324,1.8714,1.8714,1.8714,1.8714,1.8714,1.8714,1.8714,1.8714,1.8714,1.8683,1.8739,1.8809,1.8787,1.9051,1.925,1.941,1.9618,1.9788,1.994,3.2648,3.1086,3.0268,3.2676,3.1207,2.9953,3.084,3.1118,3.1187,3.1001,3.1129,3.2514,3.572,3.4381,3.301,3.2409,3.0161,2.8641,2.8275,2.8794,2.8837,0.0,0.0,2.9137,2.8858,2.8195,2.7328,2.6373,0.0,0.0,2.1066,0.0,1.8722,2.0686,2.1305,2.2006,2.2731,2.3621,2.2551,2.0222,2.0291,1.9363,1.7982,1.7765,1.7558,1.7388,1.7388,1.7388,1.7454,1.7859,1.7859,1.7652,1.7454,1.7671,1.8151,1.8983,1.9347,1.9444,1.9281,1.9218,1.8967,1.7981,1.7889,1.8097,1.8345,1.7873,1.715,1.6196,1.6024,1.6279,1.724,1.7396,1.7242,1.6795,0.0,0.0,0.0,0.0,0.0,1.5399,1.3839,1.3171,1.3914,1.2618,1.2815,1.5383,0.0,0.0,0.0,0.0,0.0,1.4332,1.5292,0.0,1.6121,1.7613,1.8496,1.8714,1.8714,1.8714,1.8714,1.8714,1.8714,1.8714,1.8714,1.8714,1.8733,1.8891,1.9017,1.9055,1.9429,1.959,1.9618,1.9836,1.9921,1.9977,3.2201,3.1676,3.1353,3.1331,3.072,3.0319,3.0657,3.0843,3.0935,3.0725,3.0877,3.1296,3.2205,3.1606,3.0917,0.0,2.9082,2.8225,0.0,2.8269,2.8093,2.7226,2.7849,2.7652,2.6369,2.6827,2.6586,2.5595,0.0,0.0,0.0,2.0995,2.1726,2.3706,2.3353,2.3382,2.3505,2.2236,2.1216,2.0401,1.9404,1.8588,1.7982,1.7765,1.7567,1.7407,1.7539,1.7501,1.7454,1.7869,1.7963,1.7897,1.7831,1.7906,1.8089,1.8523,1.8475,1.8251,1.8173,1.8095,1.7922,1.7749,1.7737,1.7925,1.8496,1.7581,1.6385,1.5427,1.4712,1.4709,1.6361,1.6535,1.6837,1.8059,1.8391,0.0,1.7306,0.0,1.5569,1.3847,1.2442,1.1899,1.2695,1.2516,1.3186,1.5223,1.5288,0.0,0.0,0.0,0.0,0.0,1.5624,0.0,1.6121,1.7761,1.8648,1.8724,1.8856,1.8847,1.8714,1.8714,1.8714,1.8714,1.8714,1.8714,1.8683,1.879,1.8894,1.9046,1.9288,1.9477,1.9628,1.9845,1.9921,1.994,3.2222,3.1186,3.0231,2.9518,2.8815,2.8413,2.8371,2.8585,2.8671,2.8403,2.8585,2.8692,2.8413,2.8145,0.0,2.8242,2.7036,2.6114,2.589,2.5987,2.5652,2.488,2.5275,2.514,2.4229,2.4819,0.0,2.5405,2.4804,2.4246,2.3655,2.3404,2.4021,2.5226,2.4365,2.3732,2.3166,2.1348,2.0323,1.9825,1.8887,1.8392,1.8144,1.8012,1.7832,1.771,1.8339,1.8406,1.825,1.872,1.8769,1.8621,1.8349,1.8246,1.8276,1.8248,1.8106,1.7946,1.7831,1.7718,1.7671,1.7908,1.7689,1.7405,1.7208,1.6411,1.5453,1.4536,1.3888,1.4055,1.5949,1.6211,1.675,1.8708,1.8667,1.8114,1.7222,0.0,1.4903,0.0,0.0,0.0,0.0,1.4352,1.5379,0.0,0.0,0.0,0.0,0.0,1.5803,1.456,1.6628,1.759,1.718,1.8338,1.891,1.891,1.8998,1.891,1.8828,1.8711,1.8714,1.8714,1.8714,1.8714,1.8724,1.8799,1.8904,1.9046,1.9297,1.9486,1.9628,1.9845,1.9921,1.9896,3.2377,2.9757,2.7455,0.0,2.5959,2.4816,2.4617,2.4929,2.5033,2.4636,2.492,2.508,2.4882,2.4548,2.4831,2.6151,0.0,0.0,2.2727,2.2501,2.2198,2.1811,2.1792,2.1993,2.245,2.2584,2.3654,2.5719,2.6248,2.6466,2.644,2.5865,2.5598,2.5508,2.4401,2.3257,2.2066,2.0967,1.9774,1.8733,1.8724,1.8591,1.8392,1.8392,1.8309,1.8286,1.9585,1.987,1.9744,2.0155,2.0116,1.9696,1.8946,1.8714,1.8598,1.817,1.822,1.8354,1.8086,1.802,1.8057,1.8345,1.7736,1.6642,1.5085,1.475,1.4502,1.3597,1.3532,1.4112,1.5866,1.6242,1.686,1.8556,1.8519,1.7747,1.6259,1.5656,1.484,0.0,0.0,0.0,1.6123,1.7426,1.8608,0.0,0.0,0.0,0.0,0.0,1.6145,1.7322,1.807,1.86,1.8989,1.9193,1.9316,1.9316,1.9099,1.9036,1.8995,1.8828,1.8733,1.8733,1.8724,1.8714,1.8692,1.884,1.8893,1.8949,1.925,1.9461,1.9561,1.9715,1.9834,1.9977,0.0,0.0,2.7087,2.5742,2.5154,2.4816,2.4617,2.4797,2.4873,2.4617,2.4674,2.4712,2.4665,2.4287,2.4089,2.4067,2.3393,2.2926,2.2727,2.2368,2.2047,2.1801,2.1792,2.1535,2.1003,2.2211,2.3864,2.6004,2.6939,2.7268,2.7095,2.668,2.64,2.6107,2.3854,2.2786,2.2461,2.013,1.9045,1.8932,1.878,1.8591,1.8392,1.8392,1.8857,1.9585,2.0066,2.069,2.1263,2.0727,2.0366,2.0021,1.8995,1.8714,1.8695,1.856,1.8487,1.8383,1.8335,1.8172,1.8057,1.8345,1.8055,1.7238,1.5424,1.5093,1.4881,1.3906,1.3587,1.3784,1.4897,1.5642,1.6377,1.7304,1.7009,1.6417,1.5738,1.4707,1.383,0.0,1.3492,1.424,1.5438,1.6728,1.7277,0.0,0.0,1.7252,1.6282,1.5939,1.6186,1.7124,1.8106,1.8686,1.879,1.9269,1.9524,1.9524,1.9316,1.9221,1.9212,1.9004,1.8951,1.8941,1.878,1.8714,1.8642,1.8024,1.7933,1.8084,1.7528,1.7914,1.8758,1.8803,1.9257,1.9959,2.9892,2.7994,2.6132,2.5064,2.4958,2.4901,2.4495,2.4693,2.474,2.4406,2.4542,2.4646,2.4457,2.4918,2.5067,2.4632,2.3683,2.2992,2.2595,2.2444,2.2245,2.1943,2.1839,2.1489,2.0847,2.2237,2.4052,2.6277,2.7226,2.7549,2.7296,2.6961,2.6667,2.6307,2.4295,2.3558,2.358,2.0846,1.9769,1.9868,1.9141,1.8724,1.8584,1.9181,1.9785,2.0451,2.1753,2.2128,2.1929,2.1607,2.0932,2.0064,1.9014,1.8714,1.8733,1.8828,1.8705,1.8563,1.8657,1.856,1.8319,1.7736,1.7438,1.6823,1.4914,1.4565,1.4479,1.3923,1.3673,1.3852,1.4811,1.5225,1.5738,1.6696,1.6043,1.5376,1.523,1.4292,1.3728,1.4002,1.4568,1.5532,1.7071,1.8088,1.8301,1.7467,1.7939,0.0,1.6738,1.6985,1.7314,1.7672,1.8458,1.8862,1.8957,1.9382,1.9599,1.9599,1.9486,1.9439,1.9429,1.9221,1.9117,1.9117,1.8588,1.8334,1.8251,1.7377,1.712,1.7222,1.6828,1.7113,1.7783,1.8305,1.8821,1.9347,2.988,2.7308,2.5062,2.491,2.5033,2.4958,2.4453,2.4823,2.5013,2.45,2.5016,2.5351,2.5044,2.6177,2.6817,2.6435,2.4981,2.3721,2.2913,2.3019,2.2883,2.249,2.2327,2.2094,2.1862,2.3,2.4574,2.6653,2.7454,2.7725,2.75,2.7095,2.6707,2.6347,2.5103,2.4718,2.4763,2.2094,2.1014,2.1004,1.9783,1.9202,1.9161,2.0414,2.1001,2.1486,2.3696,2.3631,2.2486,2.2493,2.1515,2.0076,1.9062,1.8762,1.8758,1.9008,1.89,1.8847,1.9017,1.9084,1.8732,1.7205,1.6881,1.6385,1.4507,1.4064,1.4,1.3878,1.3815,1.4038,1.4841,1.4843,1.4916,1.5677,1.4921,1.4272,1.4334,0.0,1.4042,1.5221,1.6026,1.7253,1.9235,1.9749,1.9831,1.9503,1.9398,1.8966,1.7983,1.8198,1.8209,1.8046,1.8682,1.9108,1.9297,1.9533,1.9628,1.9599,1.9628,1.9647,1.9637,1.9439,1.926,1.909,1.8418,1.7935,1.7638,1.6831,1.6422,1.6334,1.6391,1.6506,1.6763,1.7886,1.8401,1.8743,2.9573,2.699,2.4721,2.4863,2.491,2.4844,2.457,2.5751,2.6589,2.6302,2.7384,2.8172,2.8094,2.8152,2.8122,2.7891,2.7761,2.6931,2.5136,2.49,2.4644,2.4328,2.4111,2.4303,2.4966,2.5884,2.6686,2.7275,2.8066,2.8434,2.8354,2.7581,2.6948,2.636,2.5306,2.4963,2.4976,2.2389,2.1432,2.1536,2.089,2.059,2.0662,2.1764,2.2895,2.3936,2.4335,2.435,2.3967,2.2883,2.1625,2.0353,1.9275,1.897,1.8966,1.9184,1.9221,1.9212,1.924,1.9373,1.9249,1.8206,1.8079,1.7721,1.5842,1.53,1.5024,1.4208,1.3933,1.3763,1.3721,1.4145,1.3894,1.201,1.2259,1.244,1.1874,0.0,1.4256,1.577,1.7355,1.8482,1.9045,1.8969,1.9026,1.9324,1.8131,1.7517,1.7652,1.6976,1.651,1.6295,1.8231,1.9259,1.9297,1.9675,1.9779,1.9599,1.9779,1.9873,1.9864,1.9647,1.9124,1.842,1.8854,1.8189,1.6704,1.661,1.6187,1.55,1.4793,1.5061,1.5975,1.6972,1.7907,1.892,2.8167,2.6286,2.474,2.4721,2.491,2.5237,2.5642,2.6462,2.7155,2.7606,2.845,2.8905,2.8683,2.9311,2.9751,2.9694,3.0463,3.0201,2.855,2.7286,2.6469,2.6216,2.5854,2.6323,2.7755,2.7883,2.8539,2.9787,2.9488,2.9104,2.8571,2.7717,2.6988,2.64,2.608,2.6083,2.6203,2.4478,2.3802,2.3798,2.2816,2.2281,2.2151,2.3341,2.3655,2.3536,2.4228,2.3576,2.2292,2.1687,2.068,1.9647,1.9021,1.9008,1.9165,1.9269,1.9373,1.9486,1.9599,1.9703,1.9609,1.8858,1.8602,1.819,1.6916,1.6497,1.6117,1.5155,1.4851,1.4493,1.3759,1.3714,1.345,1.2314,1.2474,0.0,1.3329,1.4316,1.559,1.7159,1.8341,1.9089,1.9288,1.9335,1.9429,1.9618,1.8406,1.7769,1.805,1.711,1.6254,1.5709,1.7363,1.8657,1.9458,1.9543,1.959,1.9599,1.9817,1.9921,1.9921,1.9817,1.951,1.9111,1.8933,1.838,1.7552,1.7077,1.6649,1.6284,1.5847,1.6032,1.6585,1.7507,1.8276,1.8955,2.6954,2.5602,2.4636,2.4532,2.4778,2.524,2.5953,2.6849,2.769,2.8405,2.9431,2.9951,2.9599,3.0562,3.1302,3.1353,3.2372,3.2544,3.144,2.9858,2.8694,2.8138,2.7877,2.8482,3.0087,2.9636,3.0271,3.2022,3.0738,2.9705,2.8995,2.7894,2.7162,2.6707,2.6921,2.7188,2.7399,2.5945,2.5529,2.5727,2.4207,2.3552,2.3604,2.449,2.4037,2.3055,2.3776,2.2533,2.0607,2.0607,1.9874,1.8932,1.8818,1.9004,1.9306,1.9354,1.9543,1.9779,1.9949,1.9981,1.9918,1.9518,1.9151,1.8717,1.7968,1.7654,1.7229,1.6341,1.5896,1.5381,1.4406,1.3755,1.324,1.2891,0.0,1.361,1.4826,1.5687,1.6791,1.8416,1.9089,1.9524,1.9722,1.994,1.9931,1.9711,1.8681,1.8025,1.7909,1.6856,1.6158,1.5859,1.68,1.8002,1.9524,1.9477,1.9495,1.9599,1.9817,1.9905,1.9987,1.9896,1.9818,1.9593,1.9057,1.8558,1.8121,1.7639,1.7288,1.7112,1.7112,1.7112,1.72,1.8207,1.8699,1.9026,2.6722,2.5147,2.4141,2.4311,2.4368,2.4302,2.4232,2.6796,2.8717,2.8512,3.0939,3.2706,3.2666,3.2563,3.2465,3.2465,3.279,3.2879,3.2479,3.2328,3.1542,2.9996,3.0535,3.1127,3.161,3.16,3.1942,3.2651,3.1095,3.0326,3.0238,2.8496,2.7642,2.7602,2.7629,2.7802,2.7943,2.5276,2.4861,2.5889,2.4007,2.3962,2.4993,2.465,2.444,2.4175,2.3055,2.1768,2.0607,2.0607,1.9774,1.8771,1.89,1.9108,1.9335,1.9524,1.9855,2.0176,2.0195,2.0301,2.0462,2.04,2.0231,1.9897,1.9159,1.8829,1.8466,1.7702,1.6778,1.5995,1.5569,1.4514,1.3288,1.1784,0.0,0.0,1.4021,1.547,1.7147,1.8996,1.9609,1.9905,2.0157,2.032,2.0084,1.914,1.8178,1.7195,1.6151,1.5198,1.5394,1.692,1.6928,1.7708,1.9325,1.9684,1.9779,1.9599,1.9817,2.0015,2.0195,1.9962,1.9533,1.8938,1.9515,1.8821,1.7288,1.8077,1.7902,1.7112,1.7112,1.7112,1.7216,1.8354,1.8901,1.923,2.4774,2.3981,2.3635,2.3833,2.3984,2.4323,2.4998,2.7104,2.8834,2.9469,3.1417,3.2362,3.1353,3.1903,3.1944,3.1187,3.1929,3.2465,3.2594,3.242,3.1943,3.1133,3.1173,3.1732,3.2904,3.2734,3.2778,3.301,3.1896,3.0693,2.9472,2.7405,2.6358,2.6109,2.4831,2.4362,2.4383,2.29,2.2525,2.2938,2.273,2.2821,2.3054,2.3452,2.2953,2.1929,2.0869,2.0039,1.9377,1.8929,1.8853,1.8941,1.9108,1.9316,1.9524,1.9732,2.0047,2.0377,2.0377,2.0433,2.0556,2.0866,2.0677,2.0334,2.0179,1.9978,1.9635,1.8761,1.8273,1.7776,1.6916,1.5842,1.4951,1.462,0.0,1.5417,1.6093,1.7355,1.8559,1.9368,1.9855,2.0185,2.0358,2.0565,2.0326,1.9483,1.8417,1.7359,1.634,1.5687,1.5913,1.7068,1.7615,1.8452,1.9641,1.9713,1.9751,1.9798,2.0006,2.0148,2.0214,2.0138,1.9927,1.9673,1.9831,1.9485,1.8864,1.9223,1.917,1.8821,1.8821,1.8892,1.9052,1.9522,1.9849,2.0234,2.3648,2.3281,2.3309,2.3375,2.3559,2.3971,2.478,2.6382,2.7773,2.8614,3.0033,3.057,2.9481,3.0027,3.0133,2.9286,3.0537,3.1469,3.1574,3.1837,3.1877,3.1724,3.1383,3.1833,3.3122,3.2882,3.2749,3.2782,3.1869,3.0439,2.844,2.6352,2.5083,2.4471,2.2681,2.1948,2.1979,2.0975,2.0746,2.1005,2.112,2.1191,2.1249,2.0972,2.016,1.8952,1.7536,1.6872,1.6617,1.6618,1.7002,1.7579,1.8211,1.8749,1.9207,1.942,1.9948,2.0499,2.0499,2.0594,2.0809,2.1093,2.0904,2.0641,2.0848,2.0735,2.0432,1.9862,1.9507,1.9027,1.8251,1.7213,1.6596,1.7059,1.7111,1.7358,1.807,1.8978,1.9637,1.9779,2.0157,2.0424,2.0575,2.0818,2.0584,1.9759,1.8942,1.7978,1.6911,1.6543,1.6706,1.7507,1.8164,1.8979,1.9971,1.9807,1.977,1.9877,2.0085,2.0207,2.0273,2.0273,2.0273,2.0264,2.0056,1.9977,1.9921,1.9921,1.9921,1.993,1.9987,2.01,2.0233,2.032,2.0547,2.0801,2.3677,2.3281,2.3215,2.3049,2.3011,2.3011,2.3011,2.4408,2.5508,2.5508,2.6672,2.7496,2.7496,2.717,2.6973,2.6973,2.8717,2.9684,2.9411,3.0843,3.1664,3.1664,3.1383,3.1494,3.2207,3.1945,3.1774,3.1798,3.0837,2.9385,2.7324,2.5543,2.4089,2.301,2.1713,2.1342,2.1491,1.9852,1.9852,2.0802,1.9277,1.9288,1.9972,1.7263,1.6142,1.5622,1.3004,1.2095,1.2306,1.379,1.4175,1.4378,1.596,1.7254,1.8217,1.8409,1.9408,2.049,2.0445,2.0801,2.1214,2.1214,2.1007,2.0858,2.1121,2.0998,2.0858,2.1167,2.0417,1.9659,1.9457,1.8588,1.8048,1.8435,1.8681,1.8972,1.9536,1.9959,2.0223,2.0223,2.0547,2.0792,2.0792,2.1045,2.0797,1.9767,1.9674,1.9084,1.7656,1.7469,1.7734,1.848,1.8514,1.9042,2.0169,2.0015,1.9921,1.9877,2.0085,2.0283,2.049,2.049,2.049,2.0481,2.0264,2.0056,1.9921,1.9877,1.9877,1.994,2.0138,2.0223,2.027,2.0641,2.0792,2.0829,2.3254,2.2992,2.2879,2.2812,2.2803,2.2746,2.2595,2.4027,2.5106,2.4939,2.621,2.6748,2.5631,2.639,2.6539,2.5475,2.6897,2.7789,2.7707,2.8849,2.9585,2.9715,3.07,3.1494,3.2207,3.1721,3.1238,3.0837,3.0535,2.8791,2.5627,2.4064,2.1766,1.8876,1.6649,1.5221,1.4469,1.4353,1.4433,1.4635,1.4772,1.4987,1.5036,1.3823,1.3321,1.3074,1.1647,1.1504,1.2028,1.2053,1.2349,1.2988,1.4707,1.6262,1.7249,1.6318,1.7604,1.9107,1.8099,1.9239,2.08,2.1093,2.1121,2.1093,2.1205,2.1121,2.1093,2.1159,2.0983,2.0733,2.0668,1.9864,1.9389,2.0033,1.9617,1.9473,2.0121,2.032,2.0396,2.0396,2.0631,2.0792,2.0792,2.1045,2.0797,1.9767,1.9061,1.8345,1.7664,1.8178,1.8537,1.848,1.9126,1.9643,2.0006,1.9949,1.9987,2.0129,2.0195,2.0207,2.0273,2.0273,2.0273,2.0264,2.01,1.9977,1.993,2.0028,2.0044,1.994,2.0138,2.0308,2.0415,2.0537,2.0818,2.1083,2.2935,2.2794,2.269,2.2605,2.2586,2.2538,2.2406,2.3277,2.3945,2.3815,2.4612,2.4855,2.3892,2.4612,2.4806,2.3892,2.5109,2.6216,2.6736,2.7346,2.7766,2.7911,2.8716,2.9613,3.0595,3.0052,2.907,2.7724,2.7622,2.6112,2.3228,2.1054,1.869,1.6177,1.3274,1.156,1.0833,1.1147,1.1188,1.1042,1.16,1.173,1.1495,1.0704,1.0344,1.0104,0.9074,0.9047,0.9469,0.9726,1.0432,1.1463,1.2433,1.3705,1.4662,1.381,1.4981,1.6485,1.6226,1.7612,1.9328,2.0263,2.076,2.1064,2.1195,2.1214,2.1214,2.1214,2.1214,2.1214,2.1214,2.0705,2.04,2.0738,2.0409,2.018,2.0447,2.0641,2.0762,2.0622,2.0801,2.097,2.097,2.1093,2.0937,2.0325,1.9642,1.9124,1.8891,1.923,1.94,1.9165,1.9653,1.9959,2.0034,1.9959,1.9977,2.01,2.0226,2.0301,2.0301,2.0386,2.0377,2.0292,2.0129,1.9953,1.993,2.0053,2.0081,2.0053,2.0176,2.0311,2.0499,2.0499,2.0752,2.1045,2.2756,2.2708,2.2642,2.2425,2.2387,2.2387,2.2387,2.2387,2.2387,2.2387,2.2387,2.2387,2.2387,2.2387,2.2387,2.2387,2.3487,2.4689,2.5949,2.6058,2.6128,2.6151,2.6051,2.6479,2.7594,2.7263,2.5898,2.3587,2.3317,2.2295,2.0513,1.7299,1.535,1.4448,1.1206,0.9684,0.9552,0.964,0.9615,0.9446,0.9578,0.946,0.9118,0.8011,0.7432,0.7091,0.6053,0.5608,0.5742,0.7258,0.8867,1.0135,0.9902,1.0597,1.1427,1.1161,1.1983,1.3234,1.4589,1.586,1.7238,1.8897,2.0025,2.0738,2.1111,2.1214,2.1214,2.1214,2.1214,2.1214,2.1214,2.1214,2.1102,2.0858,2.1036,2.1036,2.0603,2.0932,2.1093,2.082,2.1017,2.1177,2.1158,2.1158,2.1158,2.1158,2.0932,2.0763,2.0745,2.0332,2.0081,2.0062,1.9796,1.9743,1.992,1.9743,1.9756,1.9949,2.0273,2.0443,2.0443,2.0631,2.0622,2.0462,2.0165,1.9978,1.9818,1.9706,1.9843,2.0062,2.0081,2.0248,2.0471,2.0471,2.0603,2.0801,2.2756,2.2708,2.2642,2.2425,2.2387,2.2387,2.2387,2.2387,2.2387,2.2387,2.2387,2.2387,2.2387,2.2387,2.2387,2.2387,2.2394,2.2566,2.3009,2.3603,2.4081,2.4262,2.5145,2.4873,2.3302,2.402,2.4127,2.3587,2.2681,2.1031,1.8711,1.6739,1.4186,1.1165,0.9127,0.76,0.6702,0.7801,0.8181,0.8129,0.8145,0.8133,0.7933,0.6602,0.6,0.5884,0.5627,0.5509,0.5676,0.722,0.9513,1.1527,1.0347,1.0929,1.1571,0.9344,1.0154,1.186,1.2171,1.3794,1.5986,1.8322,1.9213,1.9744,2.0945,2.1214,2.1214,2.1214,2.1214,2.1214,2.1214,2.1214,2.1205,2.1102,2.114,2.114,2.1045,2.1158,2.1093,2.082,2.0839,2.0801,2.065,2.0631,2.0631,2.0631,2.0594,2.049,2.032,1.9551,1.9035,1.8892,1.8094,1.7743,1.7785,1.7743,1.8497,2.0113,2.0047,2.0009,2.0009,2.01,2.0185,2.0245,1.9391,1.9035,1.9009,1.8365,1.8404,1.8901,1.9044,1.9577,2.0289,2.0289,2.0481,2.082,2.2576,2.2557,2.2519,2.2406,2.2472,2.251,2.2406,2.2482,2.251,2.2406,2.2387,2.2387,2.2387,2.2387,2.2349,2.2255,2.1971,2.1792,2.1792,2.2133,2.2354,2.251,2.3092,2.2846,2.1602,2.0483,2.0052,2.0299,1.9598,1.8601,1.729,1.5317,1.3134,1.0801,0.8762,0.7058,0.5695,0.6435,0.6682,0.6584,0.6584,0.6603,0.6553,0.5851,0.5566,0.5525,0.5583,0.6012,0.6762,0.818,0.9757,1.1039,1.0243,1.051,1.0861,0.9348,0.9789,1.0845,1.1456,1.2972,1.4808,1.6856,1.8182,1.932,2.0684,2.1093,2.1214,2.1214,2.1214,2.1214,2.1214,2.1214,2.1214,2.1214,2.1214,2.1214,2.1214,2.1083,2.097,2.0811,2.0298,1.9934,1.9825,1.9815,1.9995,2.0455,1.9993,1.967,1.9705,1.8583,1.7993,1.7985,1.7417,1.7112,1.7112,1.7112,1.7645,1.8708,1.8699,1.8955,1.936,1.891,1.9008,1.9452,1.839,1.7949,1.7958,1.7526,1.759,1.8029,1.8479,1.9026,1.9585,1.9934,2.0292,2.0633,2.2387,2.2387,2.2406,2.2444,2.2595,2.2661,2.2519,2.2652,2.269,2.2472,2.2444,2.2434,2.2397,2.2387,2.2321,2.216,2.1962,2.1754,2.1537,2.1385,2.1252,2.1214,2.1214,2.1029,2.0705,1.7779,1.6378,1.658,1.5768,1.5512,1.5696,1.3437,1.2157,1.1685,0.9454,0.7702,0.6373,0.61,0.5813,0.5538,0.5277,0.5132,0.5009,0.5105,0.5092,0.5103,0.5594,0.6949,0.8646,0.9687,1.0369,1.0688,1.0461,1.0377,1.0332,1.0065,0.9843,0.9908,1.1209,1.2076,1.2991,1.4627,1.6515,1.8297,1.9554,2.051,2.1075,2.0973,2.0937,2.089,2.0705,2.0705,2.0705,2.0705,2.0705,2.0705,2.0705,2.0474,2.0281,2.0244,1.9355,1.8765,1.8765,1.8765,1.9088,1.9849,1.9018,1.8591,1.8765,1.754,1.6973,1.7141,1.6804,1.6645,1.6668,1.6645,1.6629,1.6629,1.6771,1.7457,1.8477,1.7679,1.7784,1.852,1.7394,1.6889,1.6889,1.6712,1.682,1.7174,1.7785,1.8303,1.8867,1.9665,2.0169,2.0393,2.2387,2.2387,2.2453,2.2633,2.269,2.2756,2.2907,2.2954,2.2897,2.2699,2.2671,2.2595,2.2406,2.2387,2.2378,2.2349,2.217,2.1962,2.1763,2.1546,2.1394,2.1224,2.1214,2.0371,1.8642,1.8121,1.7273,1.5996,1.2772,1.1878,1.3178,1.1453,1.1298,1.2369,1.0675,0.9788,0.9486,0.8081,0.6989,0.6083,0.4793,0.38,0.3083,0.3158,0.315,0.3341,0.5324,0.829,1.1279,1.1483,1.2518,1.3496,1.2287,1.1882,1.166,1.0372,0.9126,0.8482,0.98,0.9391,0.9136,1.1357,1.3211,1.4739,1.5809,1.855,2.0666,2.001,1.9907,1.9628,1.8782,1.8596,1.8596,1.8596,1.8596,1.8596,1.8596,1.8429,1.8209,1.8052,1.7648,1.7362,1.7362,1.7362,1.7406,1.7538,1.7425,1.7329,1.7353,1.6432,1.5956,1.6114,1.5173,1.4708,1.484,1.4759,1.4697,1.4697,1.4718,1.5646,1.732,1.7189,1.7314,1.7542,1.6493,1.6084,1.6084,1.5198,1.5268,1.5955,1.602,1.7076,1.8655,1.9767,2.0292,2.0393,2.2387,2.2387,2.2416,2.2519,2.2727,2.2869,2.285,2.3039,2.3077,2.2756,2.2708,2.2633,2.2416,2.2387,2.2387,2.2387,2.2208,2.2056,2.1962,2.165,2.148,2.1385,2.0714,1.9953,1.9061,1.7087,1.5723,1.506,1.3743,1.3438,1.4092,1.3377,1.2905,1.2586,1.1839,1.1,0.993,0.8437,0.7228,0.6153,0.4709,0.358,0.2765,0.2795,0.2787,0.3064,0.528,0.7613,0.9797,1.1318,1.2404,1.3179,1.3312,1.3356,1.3211,1.2513,1.134,1.0327,1.0724,0.9552,0.8444,0.9382,1.0667,1.2021,1.3355,1.5859,1.8014,1.858,1.8799,1.8735,1.8269,1.8223,1.8223,1.8223,1.8223,1.8223,1.8223,1.8014,1.7606,1.684,1.6478,1.6352,1.64,1.6375,1.6541,1.7068,1.6629,1.6321,1.6321,1.544,1.4946,1.501,1.4554,1.4333,1.4394,1.4333,1.4299,1.4299,1.4299,1.5006,1.6321,1.5793,1.5874,1.6385,1.5409,1.5017,1.5017,1.4572,1.4619,1.4962,1.5484,1.6541,1.7779,1.8303,1.8653,1.8742]},{"header":{"parameterUnit":"m.s-1","parameterCategory":1,"la1":30.6,"la2":28.766,"lo1":-90.7593,"lo2":-88.6598,"dy":0.0162,"dx":0.0183,"nx":116,"ny":114,"refTime":"2023-09-27T18:00:00:Z","depth":0,"parameterNumber":3,"parameterNumberName":"V-component_of_WINDS"},"data":[0.0,0.0,0.0,0.0,0.0,0.0,0.0,0.0,0.0,0.0,0.0,0.0,0.0,0.0,0.0,0.0,0.0,0.0,0.0,0.0,0.0,0.0,0.0,0.0,0.0,0.0,0.0,0.0,0.0,0.0,0.0,0.0,0.0,0.0,0.0,0.0,0.0,0.0,0.0,0.0,0.0,0.0,0.0,0.0,0.0,0.0,0.0,0.0,0.0,0.0,0.0,0.0,0.0,0.0,0.0,0.0,0.0,0.0,0.0,0.0,0.0,0.0,0.0,0.0,0.0,0.0,0.0,0.0,0.0,0.0,0.0,0.0,0.0,0.0,0.0,0.0,0.0,0.0,0.0,0.0,0.0,0.0,0.0,0.0,0.0,0.0,0.0,0.0,0.0,0.0,0.0,0.0,0.0,0.0,0.0,0.0,0.0,0.0,0.0,0.0,0.0,0.0,0.0,0.0,0.0,0.0,0.0,0.0,0.0,0.0,0.0,0.0,0.0,0.0,0.0,0.0,0.0,0.0,0.0,0.0,0.0,0.0,0.0,0.0,0.0,0.0,0.0,0.0,0.0,0.0,0.0,0.0,0.0,0.0,0.0,0.0,0.0,0.0,0.0,0.0,0.0,0.0,0.0,0.0,0.0,0.0,0.0,0.0,0.0,0.0,0.0,0.0,0.0,0.0,0.0,0.0,0.0,0.0,0.0,0.0,0.0,0.0,0.0,0.0,0.0,0.0,0.0,0.0,0.0,0.0,0.0,0.0,0.0,0.0,0.0,0.0,0.0,0.0,0.0,0.0,0.0,0.0,0.0,0.0,0.0,0.0,0.0,0.0,0.0,0.0,0.0,0.0,0.0,0.0,0.0,0.0,0.0,0.0,0.0,0.0,0.0,0.0,0.0,0.0,0.0,0.0,0.0,0.0,0.0,0.0,0.0,0.0,0.0,0.0,0.0,0.0,0.0,0.0,0.0,0.0,0.0,0.0,0.0,0.0,0.0,0.0,0.0,0.0,0.0,0.0,0.0,0.0,0.0,0.0,0.0,0.0,0.0,0.0,0.0,0.0,0.0,0.0,0.0,0.0,0.0,0.0,0.0,0.0,0.0,0.0,0.0,0.0,0.0,0.0,0.0,0.0,0.0,0.0,0.0,0.0,0.0,0.0,0.0,0.0,0.0,0.0,0.0,0.0,0.0,0.0,0.0,0.0,0.0,0.0,0.0,0.0,0.0,0.0,0.0,0.0,0.0,0.0,0.0,0.0,0.0,0.0,0.0,0.0,0.0,0.0,0.0,0.0,0.0,0.0,0.0,0.0,0.0,0.0,0.0,0.0,0.0,0.0,0.0,0.0,0.0,0.0,0.0,0.0,0.0,0.0,0.0,0.0,0.0,0.0,0.0,0.0,0.0,0.0,0.0,0.0,0.0,0.0,0.0,0.0,0.0,0.0,0.0,0.0,0.0,0.0,0.0,0.0,0.0,0.0,0.0,0.0,0.0,0.0,0.0,0.0,0.0,0.0,0.0,0.0,0.0,0.0,0.0,0.0,0.0,0.0,0.0,0.0,0.0,0.0,0.0,0.0,0.0,0.0,0.0,0.0,0.0,0.0,0.0,0.0,0.0,0.0,0.0,0.0,0.0,0.0,0.0,0.0,0.0,0.0,0.0,0.0,0.0,0.0,0.0,0.0,0.0,0.0,0.0,0.0,0.0,0.0,0.0,0.0,0.0,0.0,0.0,0.0,0.0,0.0,0.0,0.0,0.0,0.0,0.0,0.0,0.0,0.0,0.0,0.0,0.0,0.0,0.0,0.0,0.0,0.0,0.0,0.0,0.0,0.0,0.0,0.0,0.0,0.0,0.0,0.0,0.0,0.0,0.0,0.0,0.0,0.0,0.0,0.0,0.0,0.0,0.0,0.0,0.0,0.0,0.0,0.0,0.0,0.0,0.0,0.0,0.0,0.0,0.0,0.0,0.0,0.0,0.0,0.0,0.0,0.0,0.0,0.0,0.0,0.0,0.0,0.0,0.0,0.0,0.0,0.0,0.0,0.0,0.0,0.0,0.0,0.0,0.0,0.0,0.0,0.0,0.0,0.0,0.0,0.0,0.0,0.0,0.0,0.0,0.0,0.0,0.0,0.0,0.0,0.0,0.0,0.0,0.0,0.0,0.0,0.0,0.0,0.0,0.0,0.0,0.0,0.0,0.0,0.0,0.0,0.0,0.0,0.0,0.0,0.0,0.0,0.0,0.0,0.0,0.0,0.0,0.0,0.0,0.0,0.0,0.0,0.0,0.0,0.0,0.0,0.0,0.0,0.0,0.0,0.0,0.0,0.0,0.0,0.0,0.0,0.0,0.0,0.0,0.0,0.0,0.0,0.0,0.0,0.0,0.0,0.0,0.0,0.0,0.0,0.0,0.0,0.0,0.0,0.0,0.0,0.0,0.0,0.0,0.0,0.0,0.0,0.0,0.0,0.0,0.0,0.0,0.0,0.0,0.0,0.0,0.0,0.0,0.0,0.0,0.0,0.0,0.0,0.0,0.0,0.0,0.0,0.0,0.0,0.0,0.0,0.0,0.0,0.0,0.0,0.0,0.0,0.0,0.0,0.0,0.0,0.0,0.0,0.0,0.0,0.0,0.0,0.0,0.0,0.0,0.0,0.0,0.0,0.0,0.0,0.0,0.0,0.0,0.0,0.0,0.0,0.0,0.0,0.0,0.0,0.0,0.0,0.0,0.0,0.0,0.0,0.0,0.0,0.0,0.0,0.0,0.0,0.0,0.0,0.0,0.0,0.0,0.0,0.0,0.0,0.0,0.0,0.0,0.0,0.0,0.0,0.0,0.0,0.0,0.0,0.0,0.0,0.0,0.0,0.0,0.0,0.0,0.0,0.0,0.0,0.0,0.0,0.0,0.0,0.0,0.0,0.0,0.0,0.0,0.0,0.0,0.0,0.0,0.0,0.0,0.0,0.0,0.0,0.0,0.0,0.0,0.0,0.0,0.0,0.0,0.0,0.0,0.0,0.0,0.0,0.0,0.0,0.0,0.0,0.0,0.0,0.0,0.0,0.0,0.0,0.0,0.0,0.0,0.0,0.0,0.0,0.0,0.0,0.0,0.0,0.0,0.0,0.0,0.0,0.0,0.0,0.0,0.0,0.0,0.0,0.0,0.0,0.0,0.0,0.0,0.0,0.0,0.0,0.0,0.0,0.0,0.0,0.0,0.0,0.0,0.0,0.0,0.0,0.0,0.0,0.0,0.0,0.0,0.0,0.0,0.0,0.0,0.0,0.0,0.0,0.0,0.0,0.0,0.0,0.0,0.0,0.0,0.0,0.0,0.0,0.0,0.0,0.0,0.0,0.0,0.0,0.0,0.0,0.0,0.0,0.0,0.0,0.0,0.0,0.0,0.0,0.0,0.0,0.0,0.0,0.0,0.0,0.0,0.0,0.0,0.0,0.0,0.0,0.0,0.0,0.0,0.0,0.0,0.0,0.0,0.0,0.0,0.0,0.0,0.0,0.0,0.0,0.0,0.0,0.0,0.0,0.0,0.0,0.0,0.0,0.0,0.0,0.0,0.0,0.0,0.0,0.0,0.0,0.0,0.0,0.0,0.0,0.0,0.0,0.0,0.0,0.0,0.0,0.0,0.0,0.0,0.0,0.0,0.0,0.0,0.0,0.0,0.0,0.0,0.0,0.0,0.0,0.0,0.0,0.0,0.0,0.0,0.0,0.0,0.0,0.0,0.0,0.0,0.0,0.0,0.0,0.0,0.0,0.0,0.0,0.0,0.0,0.0,0.0,0.0,0.0,0.0,0.0,0.0,0.0,0.0,0.0,0.0,0.0,0.0,0.0,0.0,0.0,0.0,0.0,0.0,0.0,0.0,0.0,0.0,0.0,0.0,0.0,0.0,0.0,0.0,0.0,0.0,0.0,0.0,0.0,0.0,0.0,0.0,0.0,0.0,0.0,0.0,0.0,0.0,0.0,0.0,0.0,0.0,0.0,0.0,0.0,0.0,0.0,0.0,0.0,0.0,0.0,0.0,0.0,0.0,0.0,0.0,0.0,0.0,0.0,0.0,0.0,0.0,0.0,0.0,0.0,0.0,0.0,0.0,0.0,0.0,0.0,0.0,0.0,0.0,0.0,0.0,0.0,0.0,0.0,0.0,0.0,0.0,0.0,0.0,0.0,0.0,0.0,0.0,0.0,0.0,0.0,0.0,0.0,0.0,0.0,0.0,0.0,0.0,0.0,0.0,0.0,0.0,0.0,0.0,0.0,0.0,0.0,0.0,0.0,0.0,0.0,0.0,0.0,0.0,0.0,0.0,0.0,0.0,0.0,0.0,0.0,0.0,0.0,0.0,0.0,0.0,0.0,0.0,0.0,0.0,0.0,0.0,0.0,0.0,0.0,0.0,0.0,0.0,0.0,0.0,0.0,0.0,0.0,0.0,0.0,0.0,0.0,0.0,0.0,0.0,0.0,0.0,0.0,0.0,0.0,0.0,0.0,0.0,0.0,0.0,0.0,0.0,0.0,0.0,0.0,0.0,0.0,0.0,0.0,0.0,0.0,0.0,0.0,0.0,0.0,0.0,0.0,0.0,0.0,0.0,0.0,0.0,0.0,0.0,0.0,0.0,0.0,0.0,0.0,0.0,0.0,0.0,0.0,0.0,0.0,0.0,0.0,0.0,0.0,0.0,0.0,0.0,0.0,0.0,0.0,0.0,0.0,0.0,0.0,0.0,0.0,0.0,0.0,0.0,0.0,0.0,0.0,0.0,0.0,0.0,0.0,0.0,0.0,0.0,0.0,0.0,0.0,0.0,0.0,0.0,0.0,0.0,0.0,0.0,0.0,0.0,0.0,0.0,0.0,0.0,0.0,0.0,0.0,0.0,0.0,0.0,0.0,0.0,0.0,0.0,0.0,0.0,0.0,0.0,0.0,0.0,0.0,0.0,0.0,0.0,0.0,0.0,0.0,0.0,0.0,0.0,0.0,0.0,0.0,0.0,0.0,0.0,0.0,0.0,0.0,0.0,0.0,0.0,0.0,0.0,0.0,0.0,0.0,0.0,0.0,0.0,0.0,0.0,0.0,0.0,0.0,0.0,0.0,0.0,0.0,0.0,0.0,0.0,0.0,0.0,0.0,0.0,0.0,0.0,0.0,0.0,0.0,0.0,0.0,0.0,0.0,0.0,0.0,0.0,0.0,0.0,0.0,0.0,0.0,0.0,0.0,0.0,0.0,0.0,0.0,0.0,0.0,0.0,0.0,0.0,0.0,0.0,0.0,0.0,0.0,0.0,0.0,0.0,0.0,0.0,0.0,0.0,0.0,0.0,0.0,0.0,0.0,0.0,0.0,0.0,0.0,0.0,0.0,0.0,0.0,0.0,0.0,0.0,0.0,0.0,0.0,0.0,0.0,0.0,0.0,0.0,0.0,0.0,0.0,0.0,0.0,0.0,0.0,0.0,0.0,0.0,0.0,0.0,0.0,0.0,0.0,0.0,0.0,0.0,0.0,0.0,0.0,0.0,0.0,0.0,0.0,0.0,0.0,0.0,0.0,0.0,0.0,0.0,0.0,0.0,0.0,0.0,0.0,0.0,0.0,0.0,0.0,0.0,0.0,0.0,0.0,0.0,0.0,0.0,0.0,0.0,0.0,0.0,0.0,0.0,0.0,0.0,0.0,0.0,0.0,0.0,0.0,0.0,0.0,0.0,0.0,0.0,0.0,0.0,0.0,0.0,0.0,0.0,0.0,0.0,0.0,0.0,0.0,0.0,0.0,0.0,0.0,0.0,0.0,0.0,0.0,0.0,0.0,0.0,0.0,0.0,0.0,0.0,0.0,0.0,0.0,0.0,0.0,0.0,0.0,0.0,0.0,0.0,0.0,0.0,0.0,0.0,0.0,0.0,0.0,0.0,0.0,0.0,0.0,0.0,0.0,0.0,0.0,0.0,0.0,0.0,0.0,0.0,0.0,0.0,0.0,0.0,0.0,0.0,0.0,0.0,0.0,0.0,0.0,0.0,0.0,0.0,0.0,0.0,0.0,0.0,0.0,0.0,0.0,0.0,0.0,0.0,0.0,0.0,0.0,0.0,0.0,0.0,0.0,0.0,4.6399,0.0,0.0,0.0,0.0,0.0,0.0,0.0,0.0,0.0,0.0,0.0,0.0,0.0,0.0,0.0,0.0,0.0,0.0,0.0,0.0,0.0,0.0,0.0,0.0,0.0,0.0,0.0,0.0,0.0,0.0,0.0,0.0,0.0,0.0,0.0,0.0,0.0,0.0,4.0456,4.0578,4.129,4.2606,4.2956,4.221,4.0577,0.0,0.0,0.0,0.0,0.0,0.0,0.0,0.0,0.0,0.0,0.0,0.0,0.0,0.0,0.0,0.0,0.0,0.0,0.0,0.0,0.0,0.0,0.0,0.0,0.0,0.0,0.0,0.0,0.0,0.0,0.0,0.0,0.0,0.0,0.0,0.0,0.0,0.0,0.0,0.0,0.0,0.0,0.0,0.0,0.0,0.0,0.0,0.0,0.0,0.0,0.0,0.0,0.0,0.0,0.0,0.0,0.0,0.0,0.0,0.0,0.0,0.0,0.0,0.0,0.0,0.0,0.0,0.0,0.0,0.0,0.0,4.9396,0.0,0.0,0.0,0.0,0.0,0.0,0.0,0.0,0.0,0.0,0.0,0.0,0.0,0.0,0.0,0.0,0.0,0.0,0.0,0.0,0.0,0.0,0.0,4.0268,4.1635,4.1737,4.2433,4.2728,0.0,0.0,0.0,0.0,0.0,0.0,4.1958,4.1958,4.2436,4.3388,4.4153,4.5682,4.7848,4.8226,4.6693,4.3584,4.2954,0.0,0.0,0.0,0.0,0.0,0.0,0.0,0.0,0.0,0.0,0.0,0.0,0.0,0.0,0.0,0.0,0.0,0.0,0.0,0.0,0.0,0.0,0.0,0.0,0.0,0.0,0.0,0.0,0.0,0.0,0.0,0.0,0.0,0.0,0.0,0.0,0.0,0.0,0.0,0.0,0.0,0.0,0.0,0.0,0.0,0.0,0.0,0.0,0.0,0.0,0.0,0.0,0.0,0.0,0.0,0.0,0.0,0.0,0.0,0.0,0.0,0.0,0.0,6.1518,6.2229,6.345,6.2759,6.2801,6.3268,5.9569,5.6774,5.4688,5.3133,0.0,0.0,0.0,0.0,0.0,0.0,0.0,0.0,0.0,0.0,0.0,0.0,0.0,0.0,0.0,0.0,0.0,0.0,0.0,3.9628,3.9799,4.1741,4.3259,4.3916,4.5112,4.5247,4.3905,0.0,0.0,0.0,0.0,4.3051,4.2596,4.2586,4.3054,4.4055,4.6956,4.9496,5.158,5.1637,5.1661,5.1517,4.8268,4.6975,4.705,0.0,0.0,0.0,0.0,0.0,0.0,0.0,0.0,0.0,0.0,0.0,0.0,0.0,0.0,0.0,0.0,0.0,0.0,0.0,0.0,0.0,0.0,0.0,0.0,0.0,0.0,0.0,0.0,0.0,0.0,0.0,0.0,0.0,0.0,0.0,0.0,0.0,0.0,0.0,0.0,0.0,4.7401,4.7507,0.0,0.0,0.0,0.0,0.0,0.0,0.0,0.0,0.0,0.0,0.0,0.0,0.0,6.0475,6.2159,6.5252,6.6651,6.6425,7.0096,7.1659,7.1305,7.1252,7.1276,7.1315,6.9997,0.0,5.8258,5.7333,0.0,0.0,0.0,0.0,0.0,0.0,0.0,0.0,0.0,0.0,0.0,0.0,0.0,0.0,0.0,0.0,0.0,0.0,0.0,0.0,0.0,4.3886,4.6163,4.7061,4.965,4.9987,4.7036,4.7411,0.0,0.0,4.3613,4.3813,4.4472,4.4509,4.5952,4.8933,5.2917,5.5216,5.5886,5.7012,5.7432,5.7152,5.5049,5.2698,5.0138,4.7653,0.0,0.0,0.0,0.0,0.0,0.0,0.0,0.0,0.0,0.0,0.0,0.0,0.0,0.0,0.0,0.0,0.0,0.0,0.0,0.0,0.0,0.0,0.0,0.0,0.0,0.0,0.0,0.0,0.0,0.0,0.0,0.0,0.0,0.0,0.0,0.0,0.0,0.0,0.0,4.6979,4.9666,4.7266,4.8934,4.8743,0.0,0.0,0.0,0.0,0.0,0.0,0.0,0.0,0.0,6.2618,6.576,6.822,6.9919,7.1857,7.3463,7.4663,7.5581,7.6441,7.7142,7.6203,7.6026,7.6454,7.556,7.2804,6.8595,6.3933,6.022,5.7303,0.0,0.0,0.0,0.0,5.4609,5.4805,0.0,0.0,0.0,0.0,0.0,0.0,0.0,0.0,0.0,0.0,0.0,0.0,4.3084,4.6472,4.9205,5.0462,5.3484,5.3689,4.9777,4.9564,4.8116,4.4819,4.3938,4.4167,4.5553,4.7021,4.9718,5.3683,5.7885,5.9861,5.971,6.1214,6.1704,6.13,6.0481,5.7912,5.3969,5.1326,4.8633,4.5983,0.0,0.0,0.0,0.0,0.0,0.0,0.0,0.0,0.0,0.0,0.0,0.0,0.0,0.0,0.0,0.0,0.0,0.0,0.0,0.0,0.0,0.0,0.0,0.0,0.0,0.0,0.0,0.0,0.0,0.0,0.0,0.0,0.0,0.0,0.0,0.0,0.0,5.0304,5.2637,4.8783,5.2723,5.3501,0.0,0.0,0.0,0.0,0.0,0.0,6.1736,6.5198,6.7818,6.9358,7.2977,7.568,7.7344,7.7929,7.9266,8.137,8.0019,8.0045,8.1193,7.9678,7.9212,7.9562,7.8707,7.8107,7.7217,7.0418,6.5951,6.3182,6.0976,5.9432,5.8608,5.9998,6.0234,6.0195,0.0,0.0,0.0,0.0,0.0,0.0,0.0,0.0,0.0,0.0,0.0,4.4499,4.6535,4.9466,5.206,5.3881,5.5377,5.4748,5.1229,4.9575,4.7563,4.4819,4.3938,4.391,4.4737,5.0058,5.4084,5.6605,5.987,6.185,6.2584,6.267,6.3172,6.3882,6.3025,6.1655,5.9612,5.4179,5.2033,5.1815,4.6523,0.0,0.0,0.0,0.0,0.0,0.0,0.0,0.0,0.0,0.0,0.0,0.0,0.0,0.0,0.0,0.0,0.0,0.0,0.0,0.0,0.0,0.0,0.0,0.0,0.0,0.0,0.0,0.0,0.0,0.0,0.0,0.0,0.0,0.0,0.0,0.0,0.0,0.0,5.5517,6.0411,0.0,0.0,0.0,0.0,6.1441,6.4089,6.6367,6.8066,7.1512,7.494,7.8251,8.0097,8.187,8.3528,8.3466,8.3611,8.4017,8.3784,8.3423,8.2946,8.2087,8.1271,8.0489,7.96,7.9722,8.0153,7.5744,7.1822,6.8484,6.7011,6.5344,6.3758,6.3943,6.4531,6.5117,0.0,0.0,0.0,0.0,0.0,0.0,0.0,0.0,4.2903,4.3178,4.4977,4.6892,4.8669,5.2743,5.6121,5.8016,6.0011,5.9567,5.5724,5.3302,5.1084,4.8901,4.6406,4.6654,5.0095,5.3691,5.6701,5.9123,6.2401,6.387,6.3649,6.4714,6.5338,6.5595,6.4774,6.4371,6.4016,5.9355,5.5989,5.3548,5.0804,4.7702,0.0,0.0,0.0,0.0,0.0,0.0,0.0,0.0,0.0,0.0,0.0,0.0,0.0,0.0,0.0,0.0,0.0,0.0,0.0,0.0,0.0,0.0,0.0,0.0,0.0,0.0,0.0,0.0,0.0,0.0,0.0,0.0,0.0,0.0,0.0,0.0,0.0,6.0781,6.5859,0.0,6.3172,6.5116,6.7212,6.8601,7.2256,7.5115,7.6805,7.9747,8.194,8.313,8.4314,8.5194,8.5813,8.5681,8.5701,8.5878,8.5297,8.4942,8.4797,8.4058,8.3546,8.3237,8.2925,8.2947,8.3139,8.1096,7.7848,7.4048,7.3016,7.1195,6.9275,7.0467,7.0781,7.0508,0.0,0.0,0.0,0.0,0.0,0.0,0.0,0.0,4.3716,4.4336,4.6704,4.9407,5.2299,5.6345,5.9699,6.1891,6.3004,6.1868,5.763,5.4643,5.2057,4.9832,4.8355,4.9444,5.3508,5.648,5.8939,6.0786,6.3539,6.4457,6.3686,6.511,6.5958,6.6215,6.5752,6.5987,6.654,6.3566,6.0089,5.6482,5.4419,5.1518,4.808,0.0,0.0,0.0,0.0,0.0,0.0,0.0,0.0,0.0,0.0,0.0,0.0,0.0,0.0,0.0,0.0,0.0,0.0,0.0,0.0,0.0,0.0,0.0,0.0,0.0,0.0,0.0,0.0,0.0,0.0,0.0,0.0,0.0,0.0,6.1554,6.6079,6.5246,7.1184,7.3691,6.9455,7.244,7.5121,7.6236,7.9876,8.242,8.3221,8.5607,8.6782,8.651,8.7055,8.7361,8.7345,8.6937,8.6782,8.6874,8.6337,8.6008,8.5812,8.5334,8.4969,8.4695,8.4695,8.4865,8.5122,8.4296,8.2076,7.9104,7.7992,7.6162,7.425,7.5468,7.5351,7.4531,0.0,0.0,0.0,0.0,0.0,0.0,4.3453,4.3532,4.4152,4.5955,4.8419,5.2011,5.7276,6.0063,6.2592,6.5203,6.3946,6.1097,5.6588,5.3219,5.0129,4.7334,4.9637,5.2107,5.4568,5.8423,6.0847,6.1704,6.332,6.3711,6.294,6.3984,6.493,6.5755,6.5971,6.6535,6.7192,6.6386,6.4219,6.0996,5.7323,5.506,5.3549,0.0,0.0,0.0,0.0,0.0,0.0,0.0,0.0,0.0,0.0,0.0,0.0,0.0,0.0,0.0,0.0,0.0,0.0,0.0,0.0,0.0,0.0,0.0,0.0,0.0,0.0,0.0,0.0,0.0,0.0,0.0,0.0,0.0,6.1281,6.6372,6.9893,6.9298,7.6604,8.0037,7.5952,8.0785,8.4152,8.4146,8.6663,8.7813,8.6993,8.8723,8.9344,8.8526,8.8509,8.8473,8.8449,8.7507,8.7075,8.7156,8.7082,8.6668,8.5946,8.5949,8.5519,8.478,8.478,8.5284,8.6068,8.5207,8.4365,8.3476,8.1758,8.0039,7.8554,7.8554,7.7969,7.6914,0.0,0.0,0.0,0.0,0.0,0.0,4.3779,4.3865,4.4411,4.5998,4.9544,5.32,5.6594,6.0358,6.2958,6.3711,6.2257,5.9918,5.6743,5.2752,5.0368,5.0018,5.3062,5.6206,5.9207,6.0344,6.19,6.3901,6.4359,6.4766,6.516,6.6023,6.6646,6.7086,6.78,6.8208,6.8369,6.7712,6.6925,6.581,6.2343,5.97,5.7486,0.0,0.0,0.0,0.0,0.0,0.0,0.0,0.0,0.0,0.0,0.0,0.0,0.0,0.0,0.0,0.0,0.0,0.0,0.0,0.0,0.0,0.0,0.0,0.0,0.0,0.0,0.0,0.0,0.0,0.0,0.0,6.3157,6.672,6.7371,7.1578,7.5701,7.8593,8.265,8.4752,8.3652,8.6188,8.7681,8.7158,8.9075,9.0167,8.9933,9.0408,9.0624,9.0351,8.9164,8.8776,8.9418,8.8526,8.8095,8.8128,8.8154,8.7716,8.6906,8.7014,8.6945,8.671,8.671,8.687,8.7068,8.617,8.5311,8.4414,8.332,8.1444,7.9369,7.9369,7.8035,7.6026,0.0,0.0,0.0,0.0,0.0,0.0,4.4191,4.4247,4.5043,4.7308,5.0973,5.4561,5.7561,6.0999,6.3019,6.2758,6.068,5.8213,5.5364,5.2527,5.1578,5.2997,5.6565,5.9779,6.2463,6.3056,6.4129,6.5689,6.5678,6.594,6.6389,6.7337,6.7814,6.8012,6.896,6.9416,6.9388,6.9017,6.8877,6.8687,6.638,6.4159,6.1949,5.9214,5.7142,5.5517,5.362,5.29,5.2593,5.1244,0.0,0.0,0.0,0.0,0.0,0.0,0.0,0.0,0.0,0.0,0.0,0.0,0.0,0.0,0.0,0.0,0.0,0.0,0.0,0.0,0.0,0.0,0.0,0.0,6.9093,7.3286,7.5564,7.7782,8.0501,8.4187,8.656,8.8059,8.8481,8.9789,9.0585,9.0531,9.154,9.2144,9.2147,9.2527,9.2424,9.1722,9.0731,9.0262,9.0395,8.956,8.9128,8.9068,8.8764,8.8388,8.7881,8.7616,8.75,8.75,8.75,8.75,8.7422,8.6562,8.5703,0.0,0.0,0.0,0.0,0.0,7.794,7.6138,0.0,0.0,0.0,0.0,0.0,0.0,4.4449,4.4587,4.5795,4.8971,5.2195,5.5433,5.8794,6.1222,6.241,6.1862,5.9165,5.6271,5.3422,5.2734,5.3619,5.6275,5.9999,6.289,6.4801,6.6006,6.6776,6.7099,6.7023,6.7023,6.7137,6.8186,6.8695,6.8769,6.9901,7.0419,7.0419,7.0419,7.0419,7.0343,6.9564,6.8176,6.6223,6.2895,6.1411,6.0773,5.8455,5.6803,5.5676,5.5313,0.0,0.0,0.0,0.0,0.0,0.0,0.0,0.0,0.0,0.0,0.0,0.0,0.0,0.0,0.0,0.0,0.0,0.0,0.0,0.0,0.0,0.0,0.0,0.0,7.5216,8.0086,8.4238,8.4221,8.4631,8.695,8.8806,9.0184,9.102,9.1923,9.2786,9.3578,9.381,9.3927,9.3931,0.0,0.0,0.0,0.0,9.2185,9.1383,9.0544,9.0114,9.0055,8.9216,8.8789,8.8672,8.7851,8.75,8.75,8.75,8.75,8.7422,8.6679,8.5781,8.4804,8.3827,8.2382,8.0663,7.9089,7.7801,7.6646,0.0,0.0,0.0,0.0,0.0,0.0,4.3994,4.4564,4.5881,4.8355,5.1022,5.3534,5.5661,5.8091,5.9525,5.9482,5.7051,5.4951,5.3624,5.4623,5.6747,5.9944,6.2862,6.5251,6.6958,6.7239,6.7733,6.8432,6.7785,6.7785,6.847,6.9351,6.9908,7.0192,7.1737,7.2434,7.2434,7.2434,7.2434,7.2417,7.2014,7.044,6.8168,6.6823,6.5846,6.5129,6.412,6.3608,6.2987,6.0426,5.9363,5.8665,5.6285,5.351,0.0,0.0,0.0,0.0,0.0,0.0,0.0,0.0,0.0,0.0,0.0,0.0,0.0,0.0,0.0,0.0,0.0,0.0,0.0,7.5204,8.0107,8.4436,8.8105,8.8552,8.8394,8.818,8.9732,9.0903,9.1165,9.2574,9.3604,9.3822,9.5151,9.5933,9.5933,9.6091,9.5741,9.4725,9.332,9.25,9.2342,9.1484,9.1054,9.1014,0.0,0.0,8.8672,8.7851,8.75,8.75,8.75,8.75,8.75,8.7304,8.6288,8.4679,8.31,8.1414,7.9808,7.9424,7.7854,7.5808,0.0,0.0,0.0,0.0,0.0,0.0,4.4614,4.5055,4.6028,4.7897,4.9987,5.1796,5.3156,5.5023,5.5915,5.5253,5.4046,5.3594,5.4289,5.6943,6.014,6.3934,6.6071,6.7806,6.9222,6.9105,6.9327,6.9835,6.9881,7.0111,7.0524,7.0953,7.1475,7.201,7.2425,7.2847,7.3261,7.3261,7.3261,7.3254,7.3099,7.2285,7.1075,7.0353,6.9688,6.9027,6.8258,6.7535,6.6573,6.4174,6.3051,6.2243,5.971,5.7434,5.5275,0.0,0.0,0.0,0.0,0.0,0.0,0.0,0.0,0.0,0.0,0.0,0.0,0.0,0.0,6.2941,6.7227,0.0,7.5663,8.0859,8.4361,8.7374,9.0047,9.0477,9.0313,8.9847,9.0617,9.1673,9.3076,9.3586,9.4371,9.5703,9.6601,9.7304,9.7734,9.8164,9.7812,9.6484,9.5234,9.414,9.3242,9.2383,9.1953,9.1914,9.0625,8.9765,8.9297,8.8086,8.75,8.75,8.75,8.75,8.7422,8.6562,8.5389,8.401,8.2696,8.1113,7.961,7.9562,7.8194,7.6142,0.0,0.0,0.0,0.0,0.0,0.0,0.0,4.5385,4.6079,4.7468,4.8925,5.0144,5.0823,5.2068,5.233,5.1042,5.1984,5.3525,5.5594,5.9547,6.3518,6.7443,6.8841,6.9947,7.0891,7.0836,7.0951,7.1168,7.2014,7.2367,7.2213,7.2514,7.2976,7.3469,7.3091,7.3322,7.4007,7.4007,7.4007,7.4007,7.4007,7.4007,7.3894,7.3245,7.2639,7.2042,7.1122,6.9668,6.7968,6.6782,6.559,6.4282,6.2551,6.1343,5.9776,5.6016,5.5527,0.0,0.0,0.0,0.0,0.0,0.0,0.0,0.0,5.9037,6.1157,6.5504,6.7677,7.0409,7.5707,7.8807,8.1905,8.6055,8.8149,8.9832,9.139,9.1674,9.1661,9.1505,9.1466,9.2451,9.4961,9.457,9.5195,9.7773,9.8125,9.8594,9.9453,10.0195,9.9765,9.8008,9.7148,9.5898,9.4179,9.3281,9.2851,9.2812,9.1094,9.0156,8.9961,8.8437,8.7656,8.75,8.75,8.75,8.7383,8.5781,8.4605,8.3652,8.2755,8.1226,7.9547,7.9562,7.8369,7.6532,0.0,0.0,0.0,0.0,0.0,0.0,0.0,0.0,4.5928,4.6866,4.7784,4.8395,4.8476,4.9303,4.949,4.8553,5.332,5.6857,5.7889,6.2577,6.6551,6.9283,7.0224,7.0755,7.0898,7.1647,7.2031,7.2059,7.2937,7.2976,7.2213,7.3707,7.4084,7.3546,7.4938,7.563,7.5707,7.5707,7.5707,7.5707,7.5707,7.5707,7.5623,7.4802,7.3988,7.3202,7.2325,6.9962,6.7321,6.793,6.6545,6.482,6.6019,6.5374,6.3797,6.1713,5.9193,5.6725,5.5245,5.5928,5.7376,5.8674,6.0341,6.3236,0.0,7.0158,7.0947,7.5255,7.6948,7.8568,8.15,8.368,8.6218,8.9752,9.1273,9.2386,9.3361,9.3546,9.332,9.2539,9.2421,9.3164,9.5039,9.5117,9.6094,9.8672,9.957,10.039,10.1289,10.1406,10.0703,9.8906,9.8008,9.6758,9.5078,9.4179,9.375,9.3711,9.1992,9.0742,8.9961,8.8984,8.8164,8.75,8.75,8.75,8.7422,8.6401,8.5449,8.4558,8.3513,8.1537,7.9334,7.9471,7.7979,7.583,0.0,0.0,0.0,0.0,0.0,0.0,0.0,0.0,4.59,4.6213,4.6546,4.673,4.6642,4.6975,4.7052,4.6667,5.165,5.585,5.8212,6.3196,6.7436,7.0486,7.0869,7.1018,7.1018,7.1792,7.2213,7.2213,7.3553,7.4014,7.3668,7.4361,7.4776,7.4976,7.5168,7.5515,7.6015,7.6015,7.6284,7.6707,7.6207,7.6015,7.5861,7.4507,7.3161,7.1822,7.0475,6.909,0.0,6.6055,6.5501,6.5558,6.6322,6.576,6.4437,6.2684,6.1208,6.0369,6.163,6.193,6.2501,6.5182,6.7514,7.0152,7.4028,7.5423,7.7263,8.2188,8.39,8.5323,8.7957,8.9554,9.0902,9.234,9.341,9.437,9.5268,9.453,9.375,9.3398,9.289,9.3281,9.5039,9.5195,9.6054,9.8086,9.9062,9.9922,10.0781,10.1289,10.1015,9.9804,9.8906,9.7656,9.5976,9.4609,9.3906,9.3867,9.2148,9.0859,8.9961,8.9101,8.8241,8.7457,8.7457,8.7413,8.7323,8.6348,8.5405,8.4529,8.3451,8.173,7.9821,7.9381,7.7926,7.6099,0.0,0.0,0.0,0.0,0.0,0.0,0.0,0.0,0.0,0.0,4.5691,4.5803,4.5707,4.5692,4.5669,4.5653,5.0143,5.4339,5.7516,6.2789,6.7242,7.044,7.1168,7.1484,7.1447,7.2668,7.3294,7.3252,7.4707,7.5438,7.5399,7.5204,7.5435,7.5976,7.5596,7.581,7.6426,7.6614,7.6967,7.7312,7.6614,7.5938,7.513,7.343,7.1437,6.936,6.8167,6.7083,6.5955,6.3582,6.3327,6.4077,6.4889,6.4845,6.4175,6.2645,6.2016,6.2414,6.5006,6.5965,6.7142,7.0853,7.4031,7.6738,7.8729,8.0712,8.3282,8.7348,8.8914,9.0122,9.2052,9.3006,9.3696,9.4437,9.4918,9.5586,9.6679,9.5156,9.3828,9.3554,9.2578,9.2656,9.4648,9.5273,9.6367,9.8281,9.9219,10.0117,10.1015,10.1406,10.1211,10.0312,9.9453,9.8281,9.6836,9.5351,9.4492,9.4258,9.2734,9.1445,9.0311,8.9176,8.8194,8.7361,8.7362,8.735,8.7207,8.6249,8.5321,8.4384,8.3319,8.1812,8.014,7.9198,7.7999,7.6762,0.0,0.0,0.0,0.0,0.0,0.0,0.0,0.0,0.0,0.0,0.0,0.0,0.0,4.5909,4.5859,4.5787,4.9663,5.3249,5.5803,6.152,6.6008,6.865,7.1209,7.2505,7.2379,7.4803,7.6002,7.5861,7.6784,7.7215,7.7215,7.6472,7.6111,7.6022,7.6934,7.7388,7.7504,7.8166,7.8072,7.7465,7.7312,7.5784,7.3392,7.1629,6.8936,6.6051,6.5974,6.3865,6.1058,6.1075,6.0037,5.9155,6.1658,6.3038,6.352,6.2409,6.1613,6.1436,6.321,6.6286,7.0016,7.4363,7.8676,8.2515,8.5125,8.766,8.9765,9.0776,9.173,9.239,9.2467,9.2571,9.3476,9.6015,9.5742,9.5781,9.7422,9.5508,9.3594,9.2734,9.1133,9.1094,9.3672,9.5469,9.75,10.0,10.1015,10.1914,10.2812,10.1992,10.1211,10.0312,9.9453,9.8554,9.7656,9.6836,9.6015,9.5156,9.4258,9.2928,9.1197,8.9417,8.8112,8.729,8.7292,8.7292,8.7246,8.6346,8.5381,8.438,8.333,8.1749,7.9964,7.8903,7.8194,7.777,0.0,0.0,0.0,0.0,0.0,0.0,0.0,0.0,0.0,0.0,0.0,0.0,0.0,0.0,0.0,0.0,4.8795,5.1671,5.413,5.9522,6.3724,6.6199,6.9319,7.127,7.181,7.3661,7.4878,7.5381,7.6172,7.6587,7.6549,7.623,7.6027,7.6015,7.6335,7.6787,7.7326,7.7006,7.7699,7.8789,7.5982,7.4685,7.3914,6.9373,6.591,6.3075,0.0,5.8906,5.8355,5.7893,5.7777,5.8152,6.0293,6.0683,6.0263,5.9941,6.1794,6.4532,6.7397,7.1628,7.6236,8.061,8.4025,8.7046,8.9655,9.0901,9.193,9.3377,9.1677,8.9937,8.9955,8.9999,9.0508,9.1953,9.4375,9.6445,9.7539,9.7461,9.6133,9.2969,9.3086,9.3125,9.2265,9.375,9.6054,9.9219,9.9726,10.0508,10.1992,10.1797,10.1211,10.0312,10.0,9.9179,9.7728,9.6868,9.6277,9.5911,9.3919,9.2041,9.0314,8.913,8.8135,8.7286,8.7289,8.7237,8.7085,8.6623,8.5548,8.4055,8.3571,8.229,8.0706,8.0354,7.9389,7.8089,0.0,0.0,0.0,0.0,0.0,0.0,0.0,0.0,0.0,0.0,0.0,0.0,0.0,0.0,0.0,0.0,0.0,4.9901,5.2055,5.6306,5.981,6.2354,6.539,6.7429,6.8242,6.9771,7.0987,7.1796,7.2938,7.3954,7.4842,7.4848,7.5131,7.5669,7.5716,7.6051,7.6552,7.6229,7.6378,7.6572,7.3472,7.151,6.9892,6.5457,6.2184,0.0,5.6614,5.574,5.5922,5.5433,5.5639,5.6433,5.8332,5.8773,5.8836,5.9805,6.304,6.7328,7.198,7.6653,8.1317,8.5964,8.8802,9.0854,9.2569,9.3194,9.3358,9.3226,9.0534,8.7921,8.7031,8.6094,8.6172,8.8281,9.0742,9.3515,9.6797,9.6679,9.5781,9.457,9.4609,9.4414,9.3672,9.4336,9.5859,9.8359,9.9414,10.039,10.1484,10.1289,10.0898,10.031,9.9685,9.8821,9.7668,9.712,9.6525,9.584,9.3248,9.1249,8.9885,8.8971,8.8069,8.718,8.718,8.7086,8.6889,8.6744,8.5771,8.4291,8.3871,8.2794,8.1477,8.0862,7.9939,7.8784,0.0,0.0,0.0,0.0,0.0,0.0,0.0,0.0,0.0,0.0,0.0,0.0,0.0,0.0,0.0,0.0,0.0,0.0,4.9683,5.2165,5.4749,5.7313,5.9783,6.1465,6.2191,6.3792,6.5015,6.5729,6.7488,6.9574,7.1973,7.2147,7.3031,7.4512,7.4624,7.4715,7.4793,7.5365,7.3909,7.1107,6.9844,6.6543,6.2102,6.023,5.8041,5.5812,5.5091,5.4408,5.3822,5.39,5.4098,5.4567,5.6315,5.7937,5.9688,6.2313,6.5634,6.9914,7.6598,8.1122,8.5195,9.0117,9.2695,9.4023,9.3906,9.4492,9.4062,9.0547,8.8281,8.6172,8.3554,8.1133,8.0976,8.5312,8.5664,8.8047,9.5586,9.3906,9.3359,9.7226,9.5625,9.5117,9.7422,9.7031,9.6953,9.7695,10.0117,10.1601,10.1719,10.0781,10.031,10.0299,9.8656,9.7706,9.7595,9.7552,9.6693,9.5053,9.243,9.0685,8.9863,8.8901,8.7947,8.6967,8.6967,8.6879,8.6681,8.6681,8.6062,8.5018,8.4207,8.323,8.2093,8.0477,7.9854,7.9669,0.0,0.0,0.0,0.0,0.0,0.0,0.0,0.0,0.0,0.0,0.0,0.0,0.0,0.0,0.0,0.0,0.0,0.0,4.7984,5.0529,5.2504,5.3693,5.6883,5.9017,5.9851,6.1495,6.2756,6.3589,6.4511,6.5271,6.592,6.5766,6.5922,6.631,6.6346,6.6711,6.7289,6.683,6.6952,6.7232,6.4492,6.3045,6.2128,5.8533,5.6764,5.6013,5.4572,5.3955,5.4017,5.5308,5.7911,6.0932,6.2582,6.4346,6.6276,6.8854,7.2532,7.6598,8.027,8.5194,8.9804,9.1797,9.4062,9.5508,9.4219,9.3554,9.2109,8.8008,8.3242,7.9023,7.6406,7.6953,7.9023,8.2695,8.8515,9.3945,9.7812,9.9258,9.9375,9.789,9.8281,9.8164,9.6914,9.7731,9.8467,9.8662,9.9881,10.1211,10.25,10.1715,10.0889,10.0298,9.9186,9.8256,9.7624,9.6917,9.6034,9.4943,9.2853,9.1045,8.9557,8.857,8.7624,8.6766,8.6766,8.6663,8.6474,8.6474,8.5878,8.4882,8.4004,8.3118,8.217,8.1131,8.0362,7.9777,0.0,0.0,0.0,0.0,0.0,0.0,0.0,0.0,0.0,0.0,0.0,0.0,0.0,0.0,0.0,0.0,0.0,0.0,0.0,4.8254,4.9454,5.0263,5.2085,5.3549,5.4442,5.5338,5.621,5.7064,5.8183,5.9144,5.9918,6.093,6.1604,6.1953,6.2345,6.2775,6.3197,6.2736,6.2474,0.0,0.0,5.8685,5.7916,5.5515,5.4864,5.515,5.4656,5.5921,5.8151,6.0299,6.2926,6.5586,6.7217,6.9254,7.1523,7.4101,7.7656,8.1367,8.4297,8.8711,9.2656,9.3515,9.4844,9.5078,9.1836,9.0117,8.7695,8.2226,7.75,7.3672,7.1484,7.3164,7.6055,7.9492,8.6367,9.2812,9.7265,9.9179,10.0117,9.9958,10.0505,10.0386,9.9363,9.9781,10.0318,10.0592,10.0801,10.1315,10.2214,10.1813,10.1095,10.0182,9.9339,9.8383,9.7446,9.5801,9.4851,9.4592,9.2447,9.069,8.932,8.8412,8.7465,8.6571,0.0,8.6446,8.6269,8.6269,8.5953,8.5363,8.4516,8.3862,8.3285,8.2093,8.1323,8.0862,0.0,0.0,0.0,0.0,0.0,0.0,0.0,0.0,0.0,0.0,0.0,0.0,0.0,0.0,0.0,0.0,0.0,0.0,0.0,0.0,4.6502,4.7383,4.7207,4.7478,4.836,4.8369,4.8706,4.9402,5.1105,5.2749,5.4383,5.6708,5.8197,5.9012,5.9796,6.0107,6.0107,6.0107,5.8861,5.6838,5.5956,5.4328,5.2348,0.0,5.2973,5.3956,5.5076,5.8555,6.3125,6.6328,6.8281,6.9726,7.164,7.4023,7.664,7.9101,8.2109,8.5273,8.8398,9.1679,9.4414,9.5039,9.5195,9.3789,8.8398,8.582,8.2539,7.539,7.1914,6.9648,6.7851,6.9805,7.2969,7.6875,8.25,8.8866,9.5975,9.6991,9.8434,10.2287,10.2088,10.2002,10.2714,10.2119,10.1998,10.27,10.2108,10.1681,10.1694,10.161,10.1002,9.9971,9.9059,9.8155,9.7206,9.4887,9.3908,9.4292,9.1818,9.0133,8.9131,8.8287,8.7365,8.638,8.638,8.6262,8.6094,8.6094,8.6094,8.6017,8.5201,8.4893,8.47,8.3054,8.2554,8.2516,0.0,0.0,0.0,0.0,0.0,0.0,0.0,0.0,0.0,0.0,4.4095,4.4101,0.0,0.0,0.0,0.0,0.0,0.0,0.0,0.0,0.0,4.6523,4.6482,4.6558,4.6717,4.7417,4.7806,4.7962,4.8906,4.9858,5.0872,5.1228,5.1848,5.267,5.2826,5.2906,5.2906,5.2906,5.2696,5.2338,5.2131,5.1887,5.16,5.16,0.0,0.0,5.5781,5.8281,6.1797,6.7969,7.2539,7.6172,7.9297,8.207,8.4531,8.6406,8.8359,9.0234,9.1562,9.3945,9.5898,9.5351,9.5195,9.3476,8.6875,8.3984,8.039,7.2031,6.8828,6.6797,6.4336,6.7226,7.1991,7.8232,8.3739,9.0101,9.8399,9.9569,10.0388,10.2488,10.2681,10.2601,10.2789,10.2597,10.2608,10.2686,10.252,10.2497,10.259,10.1814,10.0709,9.908,9.8039,9.7407,9.7201,9.5893,9.4905,9.4285,9.2292,9.0499,8.8998,8.7981,8.7008,8.6159,8.6159,0.0,8.6094,8.6094,8.6094,8.6017,8.5201,8.4893,8.4786,8.3747,8.3824,8.4209,0.0,0.0,0.0,0.0,0.0,0.0,0.0,4.2405,4.3503,4.526,4.5951,4.6275,4.6236,4.6238,0.0,0.0,0.0,0.0,0.0,0.0,0.0,4.6289,4.6245,4.6245,4.6289,4.6719,4.6914,4.6914,0.0,4.7918,4.8777,4.9146,4.9797,5.0657,5.1088,5.1244,5.1244,5.1244,5.126,5.1317,5.1317,5.1324,5.1484,5.2422,0.0,0.0,5.6289,5.8515,6.1797,6.6484,7.2109,7.8125,8.3359,8.6484,8.8515,9.0234,9.1328,9.2265,9.3594,9.5195,9.6289,9.5429,9.4179,9.1133,8.3359,7.9531,7.5273,6.707,6.4765,6.3828,6.2539,6.6211,7.082,7.4996,8.0772,8.7444,9.5123,9.6986,9.8842,10.2288,10.2712,10.2702,10.2707,10.2715,10.2617,10.2617,10.2581,10.2596,10.2701,10.1685,10.06,9.9145,9.777,9.6977,9.6876,9.549,9.4718,9.4636,9.285,9.1366,9.0094,8.87,8.7594,8.6748,8.6286,8.6094,8.6094,8.6094,8.6094,8.6055,8.567,8.5517,8.544,8.4593,8.4824,8.5286,0.0,0.0,0.0,0.0,0.0,0.0,0.0,4.2961,4.4219,4.6355,4.7674,4.8333,4.8229,4.7369,4.6678,0.0,0.0,0.0,0.0,0.0,0.0,0.0,0.0,0.0,4.6289,0.0,0.0,4.6562,4.6562,0.0,0.0,0.0,0.0,0.0,5.1133,5.1406,5.1406,5.1406,5.1406,0.0,0.0,5.1406,5.1601,0.0,0.0,0.0,0.0,5.832,6.1133,6.4453,6.9765,7.6172,8.289,8.707,8.9687,9.0898,9.1875,9.2969,9.4726,9.5976,9.6523,9.5469,9.3242,8.8984,8.0234,7.5664,7.1094,6.3281,6.1719,6.1719,6.1719,6.5156,6.8906,7.1562,7.6869,8.3343,9.11,9.3698,9.6709,10.1798,10.2611,10.2705,10.2916,10.2718,10.2706,10.2794,10.2608,10.2486,10.2517,10.152,10.0499,9.9726,9.7999,9.7035,9.6854,9.5284,9.4651,9.4989,9.348,9.221,9.1133,8.944,8.8218,8.7363,8.6478,8.6094,8.6094,8.6094,8.6094,8.6094,8.6094,8.6094,8.6017,8.5401,8.567,8.6132,0.0,0.0,0.0,0.0,0.0,0.0,0.0,4.3066,4.4752,4.8037,4.7818,4.8228,5.0572,4.9414,4.7856,0.0,0.0,0.0,0.0,0.0,0.0,0.0,0.0,0.0,0.0,0.0,0.0,4.7461,4.7461,0.0,0.0,0.0,0.0,0.0,0.0,5.1406,5.1406,5.1406,0.0,0.0,0.0,0.0,0.0,0.0,0.0,0.0,0.0,5.6797,5.793,6.3672,6.6601,6.8906,7.5039,8.1914,8.7617,8.6953,8.9531,9.2969,9.4726,9.6367,9.7226,9.5586,9.3242,8.8867,7.9453,7.5234,7.1094,6.3281,6.1719,6.1719,6.1719,6.2734,6.5429,7.1081,7.3811,7.8988,8.9728,9.2719,9.5741,10.0905,10.2184,10.292,10.3692,10.3107,10.2902,10.3509,10.2602,10.2111,10.2321,10.1296,10.0702,10.0605,9.874,9.772,9.7696,9.6604,9.5738,9.4989,9.4027,9.2749,9.1133,8.944,8.8218,8.7363,8.6478,8.6094,0.0,8.6094,8.6094,8.6094,8.6094,8.6094,8.6094,8.6017,8.6555,8.7055,0.0,0.0,0.0,0.0,0.0,0.0,4.2913,4.3765,4.5336,4.831,4.9179,4.9995,5.1198,5.0208,4.8796,4.714,0.0,0.0,0.0,0.0,0.0,0.0,0.0,0.0,0.0,0.0,4.7266,4.7617,4.8633,0.0,0.0,0.0,0.0,0.0,0.0,5.1406,5.1406,5.1406,0.0,0.0,0.0,0.0,0.0,0.0,0.0,0.0,0.0,0.0,5.7031,5.9961,6.2578,6.4883,6.6758,7.1953,7.8437,8.3828,8.7383,9.0351,9.4179,9.6406,9.7304,9.5625,9.1679,8.6289,7.8906,7.3594,6.8594,6.289,6.1719,6.1719,6.1719,6.1992,6.3359,6.6794,6.8312,7.2087,8.0686,8.3828,8.8089,9.5833,9.7974,9.9952,10.2796,10.3183,10.3221,10.3393,10.2402,10.1881,10.1899,10.1501,10.0798,9.96,9.8824,9.7914,9.6912,9.6497,9.6134,9.5788,9.4364,9.3364,9.2633,9.0441,8.8979,8.8141,8.7248,8.6594,0.0,8.6094,8.6094,8.6094,8.6094,8.6094,8.6094,8.6094,8.6632,8.7209,0.0,0.0,0.0,0.0,0.0,4.1542,4.3024,4.389,4.5362,4.8023,4.9333,5.035,5.1288,5.01,4.8997,4.8437,4.7109,0.0,0.0,0.0,0.0,0.0,0.0,0.0,0.0,0.0,4.7969,4.8711,4.9961,5.082,0.0,0.0,5.1797,5.1758,0.0,0.0,0.0,0.0,0.0,0.0,0.0,0.0,0.0,0.0,0.0,0.0,0.0,0.0,0.0,0.0,0.0,6.1445,6.1055,6.4219,6.9805,7.8828,8.3594,8.7031,9.1953,9.4883,9.6289,9.5117,9.0273,8.4297,7.8515,7.2539,6.6953,6.2617,6.1719,6.1719,6.1719,6.1719,6.2187,6.3672,6.5037,6.8233,7.4864,7.7956,8.2591,9.0765,9.2986,9.5627,10.0085,10.2289,10.3192,10.2807,10.1986,10.1603,10.1603,10.1603,10.0811,9.9221,9.8942,9.8096,9.6673,9.6442,9.6172,9.5903,9.4403,9.3595,9.3249,9.071,8.9248,8.8641,8.7517,8.6671,0.0,8.6094,8.6094,8.6094,8.6094,8.6094,8.6094,8.6094,8.6632,8.7325,0.0,0.0,0.0,0.0,0.0,0.0,4.2305,4.3164,4.4648,4.7266,4.7521,4.8448,5.1093,4.9006,4.8176,5.0,4.7812,0.0,0.0,0.0,0.0,0.0,0.0,0.0,0.0,0.0,4.8828,5.1367,5.1367,5.2266,5.3945,5.3086,5.2695,5.2656,0.0,0.0,0.0,0.0,0.0,0.0,0.0,0.0,0.0,0.0,0.0,0.0,0.0,0.0,0.0,0.0,0.0,0.0,0.0,6.039,6.332,7.1133,7.7656,8.3281,8.7617,9.1289,9.3945,9.3906,8.9375,8.3554,7.8398,7.2539,6.6953,6.2617,6.1719,6.1719,6.1719,6.1719,6.1992,6.2851,6.5195,6.8983,7.4945,7.7889,8.1313,8.6558,8.77,9.0109,9.5285,10.0085,10.2588,10.1807,10.1498,10.1289,10.1289,10.1289,10.0904,10.0106,9.9259,9.8365,9.7519,9.6711,9.5865,9.4989,9.4134,9.3287,9.2441,8.9872,8.8718,8.8603,8.6863,8.6094,0.0,8.6094,8.6094,8.6094,8.6094,8.6094,8.6094,8.6094,8.6632,8.7401,0.0,0.0,0.0,0.0,0.0,0.0,0.0,4.2614,4.375,4.6367,4.6583,4.755,5.0273,4.8693,4.8176,5.0039,4.7812,0.0,0.0,0.0,0.0,0.0,0.0,0.0,0.0,0.0,4.9453,5.1406,5.2578,5.3476,5.3984,5.3711,5.3281,5.2656,5.1797,5.1406,0.0,0.0,0.0,0.0,0.0,0.0,5.3984,0.0,0.0,0.0,0.0,0.0,0.0,0.0,0.0,0.0,0.0,0.0,0.0,6.414,7.0508,7.6836,8.0,8.2929,8.4804,8.3672,8.0156,7.6094,7.2695,6.8633,6.4805,6.2226,6.1719,6.1719,6.1719,6.1632,6.2444,6.5234,6.6131,6.8017,7.2361,7.6588,8.1085,8.6223,9.3164,9.8368,10.0403,10.1508,10.2109,10.2298,10.1684,10.1279,10.1279,10.1279,10.0712,9.9259,9.8942,9.8134,9.6711,9.5826,9.5258,9.4989,9.3566,9.2749,9.2441,9.0441,8.921,8.8641,8.7478,8.6632,8.6094,8.6094,8.6094,8.6094,8.6094,8.6094,8.617,8.6786,8.7171,8.7478,0.0,0.0,0.0,0.0,0.0,0.0,0.0,4.2185,4.3086,4.5078,4.554,4.659,4.8945,4.8196,4.8193,5.0039,4.8398,0.0,0.0,0.0,0.0,0.0,0.0,0.0,0.0,4.9258,5.0859,5.2851,5.4297,5.5156,5.5469,5.5117,5.4336,5.3164,5.2223,5.1634,0.0,0.0,0.0,0.0,0.0,0.0,5.3984,0.0,0.0,0.0,0.0,0.0,0.0,0.0,0.0,0.0,0.0,0.0,0.0,0.0,6.41,6.9375,7.3594,7.6875,7.8906,7.8203,7.5156,7.1836,6.9922,6.6562,6.3398,6.1992,6.1677,6.1632,6.1632,6.1512,6.2253,6.4803,6.5565,6.7304,7.1482,7.5767,8.0609,8.63,9.4012,9.9142,9.9857,10.0912,10.1679,10.2106,10.1587,10.1212,10.0904,10.0789,10.0096,9.8365,9.8634,9.798,9.6326,9.5451,9.4835,9.4489,9.3133,9.2326,9.1941,9.0248,8.9171,8.8641,8.744,8.6594,0.0,8.6094,8.6094,8.6094,8.6094,8.6094,8.617,8.6709,8.7325,8.7979,0.0,0.0,0.0,0.0,0.0,0.0,0.0,4.1875,4.2695,4.3594,4.4453,4.5625,4.7305,4.7578,4.8281,4.9961,0.0,0.0,0.0,0.0,0.0,0.0,0.0,0.0,0.0,5.0586,5.2656,5.5195,5.6133,5.7031,5.7851,5.7031,5.5742,5.4022,5.3016,5.2055,0.0,0.0,0.0,0.0,5.2304,5.3164,0.0,0.0,0.0,0.0,0.0,0.0,0.0,0.0,0.0,0.0,0.0,0.0,0.0,0.0,0.0,0.0,0.0,7.2304,7.5078,7.582,7.3047,6.9921,6.9101,6.5859,0.0,6.1835,6.1578,6.1534,6.1649,6.1447,6.166,6.2756,6.4254,6.7041,7.2212,7.6147,8.0885,8.7366,9.1748,9.4518,9.522,9.8942,10.1279,10.1279,10.1279,10.0904,10.0106,10.0106,9.9298,9.7557,9.8288,9.7942,9.6326,9.5365,9.4489,9.3672,9.2826,9.1979,9.1133,8.944,8.8718,0.0,8.6863,8.6094,8.6094,8.6094,8.6094,8.6094,8.6094,8.6094,8.6094,8.617,8.7209,8.8641,0.0,0.0,0.0,0.0,0.0,0.0,0.0,0.0,0.0,0.0,4.4453,4.5391,4.6484,4.7187,4.8047,0.0,0.0,0.0,0.0,0.0,0.0,0.0,0.0,0.0,0.0,5.0898,5.2344,5.4297,5.5859,5.6988,5.7658,5.7463,5.6421,5.4636,5.3749,5.253,0.0,0.0,0.0,0.0,5.1984,5.247,0.0,0.0,0.0,0.0,5.5982,5.638,0.0,0.0,0.0,0.0,0.0,0.0,0.0,0.0,5.7277,5.8589,6.0893,0.0,6.4922,6.4453,6.4483,6.442,0.0,6.3008,6.2442,6.158,6.1361,6.1726,6.3003,6.2058,6.2455,6.6718,6.6969,6.8712,7.4614,8.27,8.9756,9.4566,9.7711,9.9096,9.8019,9.9981,10.1279,10.1279,10.1279,10.0904,10.0106,10.0106,9.9298,9.7557,9.7711,9.7326,9.6326,9.4749,9.3912,9.3672,9.221,9.1402,9.1133,8.944,8.8718,8.8603,8.6863,8.6094,8.6094,8.6094,8.6094,8.6094,8.6094,8.6094,8.617,8.6863,8.7363,8.7902,0.0,0.0,0.0,0.0,0.0,0.0,0.0,0.0,0.0,0.0,0.0,0.0,0.0,0.0,0.0,0.0,0.0,0.0,0.0,0.0,0.0,0.0,0.0,4.9219,5.0195,5.1758,5.3437,5.5195,5.6869,5.806,5.8804,5.872,5.7534,5.5397,5.3656,5.2188,0.0,0.0,0.0,0.0,5.2487,0.0,0.0,0.0,0.0,0.0,5.5977,5.6253,0.0,5.6107,5.6042,5.6068,0.0,0.0,0.0,0.0,5.6452,5.6936,5.7401,5.918,6.1009,6.1275,6.1749,6.2061,6.1978,6.1967,6.1873,6.1403,6.1227,6.144,6.2365,6.1961,6.2694,6.6322,6.8015,7.1511,7.9171,8.5221,9.0864,9.6288,9.8173,9.925,9.9904,10.0789,10.1087,10.0789,10.0712,10.0212,9.8981,9.8904,9.8288,9.698,9.6942,9.6775,9.6446,9.5097,9.4277,9.3964,9.269,9.1647,9.0821,8.9447,8.8629,8.8158,8.672,8.6094,8.6094,8.6094,8.6094,8.6094,8.6094,8.6094,8.617,8.6632,8.7055,8.7517,0.0,0.0,0.0,0.0,0.0,0.0,0.0,0.0,0.0,0.0,0.0,0.0,0.0,0.0,0.0,0.0,0.0,0.0,0.0,0.0,0.0,0.0,0.0,5.0391,5.0781,5.2891,5.4843,5.6561,5.8297,5.947,6.013,6.0316,5.8916,5.6136,5.3468,5.1885,0.0,0.0,0.0,0.0,5.3305,0.0,0.0,0.0,0.0,0.0,0.0,0.0,0.0,5.5932,5.587,5.5836,5.5743,0.0,0.0,0.0,0.0,0.0,5.6586,5.8571,6.0725,6.1699,6.1576,6.1444,6.2138,6.1732,6.121,6.121,6.1193,6.1291,6.1678,6.2265,6.3364,6.5436,6.9629,7.5784,8.4786,8.6978,8.9902,9.598,9.6903,9.8096,10.0712,10.101,10.0789,10.0183,9.999,9.9221,9.7596,9.7519,9.7134,9.6326,9.6288,9.6385,9.6583,9.5741,9.5042,9.4486,9.3555,9.2276,9.0674,8.9545,8.8552,8.7652,0.0,0.0,8.6094,8.6094,8.6094,8.6094,8.6094,8.6094,8.6094,8.6094,8.6555,8.7209,0.0,0.0,0.0,0.0,0.0,0.0,0.0,0.0,0.0,0.0,0.0,0.0,0.0,0.0,0.0,0.0,0.0,0.0,0.0,0.0,0.0,5.1985,5.0815,5.1211,5.3359,5.3789,5.48,5.6444,5.8937,6.0015,5.9809,6.1431,6.0281,5.6737,5.4164,5.295,5.2796,0.0,0.0,5.4106,5.3646,0.0,0.0,0.0,0.0,0.0,0.0,0.0,0.0,5.5743,5.5733,5.5722,5.5719,0.0,0.0,0.0,0.0,0.0,5.8405,6.0834,6.2218,5.9853,6.0169,6.1091,6.1207,6.1046,6.0883,6.0883,6.1428,6.2589,6.474,6.5242,6.6558,7.0405,7.6399,8.3054,9.0325,9.3287,9.5634,9.8134,9.9673,10.0212,9.925,9.9827,10.0221,10.0106,9.9413,9.8557,9.7557,9.7519,9.7134,9.6326,9.6288,9.6385,9.6583,9.5741,9.532,9.5384,9.3833,9.2586,9.1533,8.9913,8.8649,8.7659,0.0,8.6254,8.6094,8.6094,8.6094,8.6094,8.6094,8.6094,8.6094,8.6094,8.617,8.6401,0.0,0.0,0.0,0.0,0.0,0.0,0.0,0.0,0.0,0.0,0.0,0.0,0.0,0.0,0.0,0.0,0.0,0.0,0.0,0.0,0.0,5.459,5.3547,5.3047,5.3281,5.4687,5.6165,5.7749,5.9811,6.1178,6.1792,6.1212,5.95,5.6929,5.4813,5.3626,5.3159,5.2774,5.3351,5.4483,0.0,0.0,0.0,0.0,0.0,0.0,0.0,0.0,0.0,0.0,5.5708,5.5708,5.5708,0.0,0.0,0.0,0.0,0.0,5.7126,5.8973,6.069,6.109,6.3451,6.5561,6.5098,6.4956,6.4782,6.4282,6.4519,6.5288,6.6936,6.8398,7.1598,7.8592,8.2708,8.6786,9.1787,9.271,9.3971,9.7096,9.8134,9.9019,10.0019,10.0096,9.9913,9.9452,9.8596,9.7711,9.6903,9.6865,9.6673,9.6326,9.6288,9.6154,9.5888,9.5509,9.5223,9.5062,9.4285,9.3286,9.2088,9.0688,8.9737,8.912,0.0,8.6994,8.6786,8.6286,8.6094,8.6094,8.6094,8.6094,8.6094,8.6094,8.6094,8.6209,0.0,0.0,0.0,0.0,0.0,0.0,0.0,0.0,0.0,0.0,0.0,0.0,0.0,0.0,0.0,0.0,0.0,0.0,0.0,0.0,5.5284,5.5974,5.5861,5.5307,5.4258,5.5936,5.7713,5.9469,6.0817,6.2232,6.3539,6.1023,5.8957,5.7236,5.5579,5.4457,5.378,5.3587,5.401,5.478,0.0,0.0,0.0,0.0,0.0,0.0,0.0,0.0,0.0,0.0,0.0,0.0,0.0,0.0,0.0,5.5708,5.5708,5.5785,5.6203,5.7857,6.0083,6.266,6.5468,6.7898,6.9052,6.866,6.8205,6.8513,6.8905,6.9283,6.9545,7.2168,7.7015,8.5363,8.794,9.0133,9.3749,9.3133,9.3586,9.7057,9.748,9.8481,10.1087,10.0404,9.9529,9.8865,9.7827,9.6942,9.6326,9.6095,9.6019,9.6019,9.5788,9.5434,9.4912,9.4921,9.4808,9.454,9.4345,9.3556,9.2221,9.1261,9.0478,8.9833,8.8404,8.7538,8.7107,8.6388,8.6094,8.6094,8.6094,8.6094,8.6132,8.6324,8.6252,8.6142,0.0,0.0,0.0,0.0,0.0,0.0,0.0,0.0,0.0,0.0,0.0,0.0,0.0,0.0,0.0,0.0,0.0,0.0,0.0,0.0,5.4621,5.4816,5.638,5.7728,5.8711,5.7945,5.8691,6.1145,6.1984,6.2825,6.3558,6.1735,5.9934,5.8132,5.653,5.57,5.5478,5.4703,5.4857,5.5593,5.5593,0.0,0.0,0.0,0.0,0.0,0.0,0.0,0.0,0.0,0.0,0.0,0.0,0.0,5.5708,5.5708,5.5708,5.6049,5.7665,6.0467,6.3006,6.3237,6.2358,6.3288,7.0321,6.9482,6.8321,7.2238,7.4284,7.4899,7.3392,7.7169,8.2247,8.7641,9.118,9.472,9.8952,9.9452,9.975,10.0779,10.0894,10.101,10.1279,9.9827,9.8865,9.8788,9.7288,9.6365,9.6288,9.5518,9.5104,9.5104,9.4296,9.3882,9.3823,9.3823,9.3986,9.4296,9.3547,9.2733,9.1814,9.1115,8.9846,8.8154,8.8044,8.7423,8.6457,8.6191,8.6094,8.6094,8.6094,8.6094,8.6209,8.7017,8.6675,8.5949,0.0,0.0,0.0,0.0,0.0,0.0,0.0,0.0,0.0,0.0,0.0,0.0,0.0,0.0,0.0,0.0,0.0,0.0,0.0,5.3837,5.5109,5.6191,5.7512,5.8428,5.8864,5.9656,6.0667,6.1911,6.3206,6.3758,6.3558,6.118,5.9458,5.8242,5.6544,5.5763,5.567,5.5401,5.5439,5.5708,5.5708,5.5708,0.0,0.0,0.0,0.0,0.0,0.0,0.0,0.0,5.5708,5.5708,5.5708,5.5708,5.5708,5.5708,5.5708,5.5824,5.6511,5.9935,6.3314,6.3314,6.4012,6.6288,7.236,7.4399,7.563,7.7784,7.9977,8.1016,7.9285,8.3593,8.8017,8.994,9.398,9.7634,9.9798,10.0481,10.0981,10.1289,10.0904,10.0606,10.0606,9.8981,9.798,9.798,9.6942,9.6057,9.5518,9.5672,9.5326,9.422,9.4412,9.4027,9.2941,9.2941,9.2747,9.2373,9.2207,9.1998,9.179,9.1115,9.0939,9.1068,8.9333,8.8246,8.765,8.6298,8.5742,8.5742,8.5742,8.5742,8.578,8.6087,8.5963,8.5667,0.0,0.0,0.0,0.0,0.0,0.0,0.0,0.0,0.0,0.0,0.0,0.0,0.0,0.0,0.0,0.0,0.0,0.0,5.1043,5.2798,5.4555,5.6256,5.7321,5.7936,5.8154,6.0014,6.1256,6.1899,6.3191,6.3438,6.267,6.0545,5.9095,5.8242,5.7107,5.6557,5.6511,5.6247,5.6285,5.6511,5.6209,5.6093,0.0,0.0,0.0,0.0,0.0,0.0,0.0,0.0,5.5594,5.5708,5.5708,5.5708,5.5708,5.5708,5.5901,5.6093,5.6093,5.905,6.2352,6.3429,6.5628,6.9129,7.5322,7.79,8.0015,8.3555,8.5055,8.5555,8.517,8.8017,9.0671,9.1479,9.5403,9.8673,9.9567,10.0212,10.0519,10.0519,9.9981,9.9683,9.9683,9.8365,9.7403,9.7134,9.6596,9.5788,9.4643,9.5172,9.4826,9.3364,9.3642,9.3133,9.171,9.1941,9.1491,9.0275,9.0697,9.1029,9.1209,9.1023,9.121,9.1609,8.9933,8.8799,8.7974,8.6499,8.5731,8.5501,8.5501,8.5501,8.554,8.5817,8.5691,8.5439,0.0,0.0,0.0,0.0,0.0,0.0,0.0,0.0,0.0,0.0,0.0,0.0,0.0,0.0,0.0,0.0,0.0,0.0,4.9356,5.0966,5.2659,5.4395,5.5479,5.6304,5.695,5.8794,6.0188,6.1001,6.1742,6.1633,6.0793,6.0056,5.9186,5.833,5.8437,5.8414,5.8242,5.7363,5.7478,5.8198,5.7324,5.6983,5.6983,0.0,0.0,0.0,0.0,0.0,0.0,0.0,5.5369,5.5698,5.5698,5.5703,5.5703,5.5703,5.6324,5.6983,5.6983,5.8248,6.0358,6.3743,6.6545,7.0699,7.9169,7.9169,8.0015,8.9325,8.921,8.8209,9.0748,8.9863,8.9603,9.2095,9.5326,9.7827,9.8673,9.8788,9.8788,9.8788,9.8788,9.8788,9.8788,9.8019,9.7134,9.6365,9.6288,9.5518,9.3787,9.371,9.3326,9.2509,9.1672,9.0778,8.9932,9.0778,9.0228,8.8337,8.919,8.9715,8.9932,9.0796,9.026,8.8672,8.9536,8.882,8.6998,8.6805,8.6217,8.554,8.554,8.5501,8.5616,8.6467,8.6133,8.5323,0.0,0.0,0.0,0.0,0.0,0.0,0.0,0.0,0.0,0.0,0.0,0.0,0.0,0.0,0.0,0.0,0.0,0.0,5.0245,5.1313,5.239,5.3549,5.4983,5.5609,5.5247,5.6953,5.9177,6.1905,6.14,6.1401,6.1795,5.9701,5.8858,5.9127,5.8594,5.8011,5.7363,5.7093,5.6786,5.6511,5.6863,5.6632,5.6209,0.0,0.0,0.0,0.0,0.0,0.0,0.0,0.0,0.0,5.4848,5.5455,5.6078,5.5454,5.6084,5.6868,5.6247,5.9511,6.332,6.4359,6.9206,7.5207,8.0669,8.2747,8.5478,9.245,9.2787,9.1518,9.047,9.2364,9.3518,9.1864,9.5441,9.8288,9.7942,9.8942,9.9259,9.8019,9.7904,9.7673,9.7096,9.6826,9.6288,9.5451,9.5412,9.4848,9.3544,9.3637,9.3159,9.2051,9.2065,9.1648,9.0617,9.0985,9.0843,9.0139,9.0193,8.9962,8.9486,8.9848,9.0071,9.011,8.9629,8.9075,8.8481,8.7568,8.7042,8.6852,8.6852,8.6472,8.594,8.6217,8.5755,8.5004,0.0,0.0,0.0,0.0,0.0,0.0,0.0,0.0,0.0,0.0,4.5898,0.0,0.0,0.0,0.0,0.0,0.0,0.0,0.0,5.0971,5.1967,5.3159,5.4164,5.478,5.4972,5.667,5.8384,6.0181,5.992,6.0113,6.0674,5.976,5.9358,5.9511,5.9704,5.9127,5.7978,5.7632,5.7401,5.7242,5.744,5.7203,5.6896,0.0,0.0,0.0,0.0,0.0,0.0,0.0,0.0,0.0,5.4678,5.5278,5.5872,5.5855,5.6414,5.7176,5.8017,6.1358,6.532,6.8359,7.336,7.8977,8.4555,8.7825,9.0941,9.5566,9.5297,9.3941,9.3086,9.421,9.4711,9.2979,9.5595,9.7634,9.7096,9.7942,9.8211,9.7134,9.7019,9.6826,9.6365,9.6288,9.5788,9.4566,9.4797,9.4243,9.2497,9.2834,9.2526,9.1319,9.1575,9.127,9.0379,9.0501,9.0347,8.987,8.9626,8.9367,8.9157,8.9595,8.9877,8.9982,8.927,8.8792,8.8417,8.7718,8.7213,8.6872,8.6872,8.6746,8.6557,8.6216,8.5988,8.5837,0.0,0.0,0.0,0.0,0.0,0.0,0.0,0.0,0.0,0.0,4.6278,4.6774,0.0,0.0,0.0,0.0,0.0,0.0,0.0,0.0,5.1399,5.3005,5.3313,5.4203,5.5901,5.7396,5.778,5.6983,5.778,5.8275,5.8434,5.9973,6.0281,5.9704,6.1287,6.1018,5.9358,5.855,5.8588,5.9204,5.855,5.8313,5.8396,5.9204,0.0,0.0,0.0,0.0,0.0,0.0,0.0,0.0,5.4893,5.5109,5.5477,5.6508,5.7077,5.8055,6.1325,6.3666,6.6974,7.4476,7.8554,8.2585,8.9787,9.321,9.5566,9.7942,9.6797,9.5758,9.7134,9.5557,9.4258,9.4912,9.5711,9.6249,9.6095,9.6134,9.6134,9.6057,9.6134,9.6172,9.6172,9.6249,9.5586,9.3808,9.4423,9.3716,9.1097,9.1605,9.1515,9.0578,9.0506,9.0238,8.9698,8.9717,8.9305,8.8529,8.8325,8.8519,8.9052,8.9726,8.9676,8.8969,8.8787,8.8236,8.7516,8.7516,8.6985,8.6216,8.6216,8.672,8.7289,8.653,8.672,8.7289,0.0,0.0,0.0,0.0,0.0,0.0,0.0,0.0,0.0,0.0,0.0,0.0,0.0,0.0,0.0,0.0,0.0,0.0,0.0,0.0,5.1125,5.2159,5.4087,5.5972,5.7703,5.744,5.717,5.6983,5.717,5.794,5.9242,5.9627,6.005,6.055,6.0902,6.0127,5.8511,5.7632,5.7363,5.7594,5.8088,5.8313,5.8396,5.9204,5.8372,0.0,0.0,0.0,0.0,0.0,0.0,0.0,5.4128,5.5212,5.639,5.5731,5.7638,6.0435,6.2474,6.6205,7.1052,7.7392,8.3393,8.8662,9.2326,9.3595,9.4335,9.5566,9.699,9.7673,9.6749,9.6634,9.6326,9.5181,9.5711,9.5826,9.4441,9.4864,9.5018,9.4326,9.4864,9.5297,9.5297,9.5903,9.5492,9.3611,9.364,9.3011,9.1375,9.0992,9.0868,9.0958,9.0678,9.0433,9.0322,9.0531,9.0532,9.0331,9.0085,8.9942,8.9901,8.9249,8.9192,8.9597,8.9549,8.9108,8.835,8.835,8.7857,8.7137,8.7137,8.7251,8.7364,8.7175,8.7251,8.7289,0.0,0.0,0.0,0.0,0.0,0.0,0.0,0.0,0.0,0.0,0.0,0.0,0.0,0.0,0.0,0.0,0.0,0.0,0.0,0.0,5.1246,5.2467,5.4549,5.6126,5.7049,5.7016,5.6786,5.6362,5.6362,5.7242,5.8929,5.9319,5.9973,6.0787,6.0787,5.9858,5.8236,5.7363,5.7247,5.7671,5.8127,5.8544,5.8973,5.9781,5.9012,5.7486,5.7503,0.0,0.0,0.0,0.0,0.0,0.0,0.0,5.6295,5.6084,5.7435,5.9863,6.4012,6.8244,7.3553,8.1977,8.7325,9.097,9.271,9.3758,9.4335,9.4373,9.6095,9.7442,9.698,9.6557,9.5991,9.5022,9.4963,9.4722,9.3706,9.404,9.422,9.3749,9.4104,9.4373,9.4373,9.4704,9.434,9.2881,9.2705,9.2115,9.0875,9.0519,9.038,9.0485,8.99,8.9827,9.0356,8.9776,8.9783,9.0263,8.9636,8.9354,8.9424,8.9244,8.9411,8.979,8.979,8.9335,8.8615,8.8615,8.8122,8.7364,8.6947,8.7289,8.7933,8.7554,8.7895,8.8426,0.0,0.0,0.0,0.0,0.0,0.0,0.0,0.0,0.0,0.0,0.0,0.0,0.0,0.0,0.0,0.0,0.0,0.0,0.0,0.0,0.0,5.3356,5.4895,5.5824,5.6126,5.6709,5.6632,5.5939,5.5785,5.6665,5.8506,5.9204,5.9896,6.0589,6.0589,5.9627,5.8011,5.7132,5.7363,5.8313,5.8313,5.8858,5.9775,6.0113,5.9452,5.8261,5.7652,5.715,5.665,5.561,0.0,0.0,0.0,0.0,5.5936,5.6582,5.7093,5.8748,6.4788,7.002,7.6137,8.6179,8.994,9.1441,9.2287,9.3566,9.4412,9.3826,9.5095,9.6403,9.6788,9.5595,9.4511,9.435,9.3725,9.3185,9.2987,9.3102,9.3271,9.335,9.3379,9.3417,9.358,9.3467,9.2965,9.2043,9.183,9.1283,9.0198,9.0148,8.9979,8.9601,8.8956,8.8962,8.9748,8.8574,8.8476,8.9525,8.8659,8.8406,8.8746,8.923,8.9561,8.979,8.9638,8.9146,8.8388,8.8236,8.7705,8.6909,8.6178,8.6834,8.8122,8.7592,8.8236,8.9297,0.0,0.0,0.0,0.0,0.0,0.0,0.0,0.0,0.0,0.0,4.6355,4.6928,0.0,0.0,0.0,0.0,0.0,0.0,5.063,0.0,0.0,5.4241,5.5208,5.6395,5.7929,5.7324,5.6945,5.6824,5.6055,5.6934,5.9358,5.9435,5.955,5.9665,5.9665,5.8742,5.7132,5.6247,5.6819,5.8313,5.8313,5.9242,6.045,5.8674,5.8532,5.8809,5.5545,5.5438,5.6522,5.4679,5.4975,0.0,0.0,0.0,5.6161,5.595,5.744,5.9858,6.2968,7.1706,8.1323,8.7218,8.994,9.1441,9.2287,9.2672,9.2979,9.3595,9.5095,9.5865,9.448,9.3441,9.2817,9.2799,9.2077,9.1446,9.1251,9.1241,9.1461,9.2008,9.2063,9.2331,9.3107,9.3162,9.2711,9.1674,9.1552,9.1034,8.9889,8.9839,8.9523,8.8767,8.8653,8.8431,8.8047,8.7851,8.8286,8.9356,8.92,8.9148,8.9189,8.8346,8.8664,8.9752,8.907,8.8312,8.7516,8.6758,8.595,8.523,8.5117,8.5609,8.6519,8.7175,8.7554,8.7705,0.0,0.0,0.0,0.0,0.0,0.0,0.0,0.0,0.0,0.0,0.0,4.7274,0.0,0.0,0.0,5.0053,5.013,5.0284,5.0668,5.1015,5.1779,5.3005,5.3857,5.4664,5.5428,5.5549,5.5593,5.5593,5.5208,5.6824,6.0242,6.0242,6.0742,6.1583,6.0666,5.955,5.8325,5.6978,5.6863,5.7577,5.7812,5.8878,6.0178,5.8562,5.8396,5.8662,5.6136,5.5763,5.635,5.5431,5.58,5.6509,5.594,0.0,0.0,0.0,5.6472,5.8858,6.5705,7.3129,8.0492,8.6888,8.9012,8.9906,9.1097,9.1768,9.2065,9.1921,9.2918,9.3754,9.3713,9.2936,9.2239,9.2123,9.151,9.0743,8.9916,9.0012,9.0234,9.0367,9.0412,9.0718,9.1559,9.1517,9.1281,9.0799,9.0622,9.034,8.9828,8.979,8.9449,8.8615,8.7705,8.707,8.6807,8.6458,8.6997,8.84,8.8516,8.8495,8.8379,8.8019,8.8129,8.8577,8.8144,8.7743,8.7326,8.6455,8.5874,8.5533,8.5079,8.5382,8.614,8.6519,8.6985,8.7478,0.0,0.0,0.0,0.0,0.0,0.0,0.0,0.0,0.0,0.0,0.0,0.0,0.0,0.0,0.0,0.0,5.1015,5.0938,5.0707,5.0707,5.1048,5.1846,5.2505,5.2967,5.3197,5.4049,5.4511,5.4511,5.4939,5.728,6.1435,6.1435,6.2781,6.5122,6.2589,6.0819,5.9704,5.8055,5.7516,5.7808,5.7866,5.856,5.9429,5.8417,5.8166,5.8181,5.6424,5.5909,5.6037,5.5943,5.6117,5.6341,5.5958,5.5774,0.0,0.0,0.0,5.7011,6.5936,7.1129,7.5894,8.3512,8.6075,8.7255,8.9384,9.0527,9.1062,9.0604,9.1024,9.1768,9.2709,9.221,9.163,9.1504,9.0919,9.0133,8.9054,8.9034,8.9052,8.8863,8.8983,8.9365,8.9964,9.0076,9.0113,9.0113,8.9899,8.9714,8.9525,8.9487,8.8918,8.7705,8.6443,8.5571,8.5166,8.4941,8.5442,8.6752,8.6885,8.6934,8.6828,8.6934,8.6892,8.6758,8.7034,8.712,8.6985,8.614,8.5799,8.5723,8.5117,8.5268,8.5799,8.6026,8.6379,8.6872,0.0,0.0,0.0,0.0,0.0,0.0,0.0,0.0,0.0,0.0,0.0,0.0,5.0515,5.1318,5.1769,5.1846,5.1851,5.1505,5.0745,5.0707,5.1048,5.1846,5.1923,0.0,5.3159,5.4049,5.4511,5.4511,5.6093,5.9017,6.316,6.316,6.5776,7.0283,6.5352,6.2243,6.0633,5.8934,5.8922,5.9946,5.909,5.8555,5.8228,5.7735,5.7551,5.7275,5.5233,0.0,0.0,0.0,5.5099,5.5025,5.471,5.4282,5.3912,0.0,0.0,0.0,5.9858,6.3243,6.7243,7.5533,7.9979,8.3337,8.7253,8.8818,8.961,9.0336,9.0527,9.0604,9.0635,9.0624,9.0576,9.0565,8.9888,8.928,8.8956,8.8259,8.7725,8.7511,8.8158,8.8651,8.8689,8.9359,8.9802,8.9802,8.979,8.9487,8.8691,8.8653,8.7592,8.5154,8.5003,8.4218,8.26,8.3331,8.3834,8.4088,8.4126,8.4241,8.448,8.423,8.4115,8.4181,8.5768,8.6358,8.6102,8.5306,8.4965,8.4965,8.4927,8.4927,8.5041,8.5799,8.5647,8.5154,0.0,0.0,0.0,0.0,0.0,0.0,0.0,0.0,0.0,0.0,0.0,0.0,0.0,5.2236,5.2505,5.1962,5.1885,5.1543,5.0745,5.1707,5.1933,5.1164,5.2702,5.3197,5.239,5.378,5.4511,5.4511,5.5093,5.7555,6.1704,6.1704,6.3551,6.6782,6.4936,6.382,6.3051,6.0242,5.8865,5.8518,5.8386,5.8745,5.9004,5.6465,5.7105,5.8943,0.0,0.0,0.0,0.0,0.0,0.0,0.0,5.3981,5.3193,5.2184,5.2335,5.371,5.7711,6.0034,6.32,7.0969,7.537,7.8672,8.2144,8.517,8.7479,8.8353,8.8923,8.9456,8.995,9.0201,9.0301,9.0301,8.9734,8.903,8.8259,8.7645,8.719,8.6805,8.7027,8.7338,8.7793,8.8577,8.9032,8.9032,8.9525,8.9449,8.8653,8.8615,8.7478,8.4965,8.437,8.3271,8.1576,8.1842,8.2303,8.2922,8.3073,8.3188,8.327,8.333,8.3232,8.3174,8.4306,8.5001,8.5268,8.4408,8.4067,8.4067,8.4067,8.4067,8.4181,8.5014,8.5154,8.5079,0.0,0.0,0.0,0.0,0.0,0.0,0.0,0.0,0.0,0.0,0.0,0.0,0.0,0.0,5.3163,5.2582,5.241,5.212,5.1553,5.2587,5.2702,5.1592,5.3164,5.351,5.2351,5.3472,5.4117,5.4286,5.4693,5.68,6.0365,6.0653,6.2233,6.4748,6.3891,6.3911,6.4397,6.1589,5.9683,5.8661,5.8871,5.9233,5.9449,5.7545,5.8143,5.9673,0.0,0.0,0.0,0.0,0.0,0.0,0.0,0.0,5.2365,5.1289,5.1324,5.2335,5.502,5.6568,5.9119,6.627,6.9666,7.2567,7.7701,8.1121,8.3794,8.5746,8.7213,8.845,8.933,8.9874,9.0205,9.0205,8.9452,8.8631,8.79,8.7108,8.646,8.6119,8.6279,8.655,8.7,8.7753,8.8198,8.8198,8.8691,8.8615,8.7819,8.7516,8.6227,8.3688,8.2513,8.1538,8.0694,8.039,8.0694,8.1576,8.1702,8.1776,8.1776,8.216,8.2302,8.2232,8.3324,8.4061,8.4446,8.4143,8.3851,8.3623,8.3915,8.3851,8.3699,8.4597,8.5079,8.5458,0.0,0.0,0.0,0.0,0.0,0.0,0.0,0.0,0.0,5.1736,0.0,0.0,0.0,0.0,0.0,5.3816,5.3462,5.3215,5.3187,5.3226,5.3231,5.3197,5.3236,5.3274,5.3236,5.3274,5.3481,5.3849,5.5092,5.6958,5.9421,6.025,6.2215,6.4909,6.2459,6.2494,6.4295,6.268,6.1499,6.0649,6.0647,6.0099,5.949,6.1006,6.0676,0.0,6.0224,5.9013,0.0,5.9758,0.0,0.0,0.0,0.0,0.0,0.0,5.0723,5.0356,0.0,0.0,0.0,6.1102,6.2773,6.5168,7.3961,7.6683,7.8476,8.252,8.5367,8.7447,8.8611,8.9531,9.0114,9.0152,8.8928,8.8005,8.8005,8.6553,8.5521,8.5511,8.6005,8.635,8.6377,8.6974,8.7364,8.7364,8.7402,8.7023,8.614,8.5268,8.3688,8.1148,7.9443,7.8988,7.9822,7.8988,7.8988,7.9833,7.9833,7.9822,7.9898,8.0656,8.1035,8.1159,8.2827,8.3548,8.3623,8.4484,8.437,8.3699,8.4522,8.4332,8.3699,8.4597,8.5382,8.6064,0.0,0.0,0.0,0.0,0.0,0.0,5.0778,5.1579,5.2318,0.0,0.0,0.0,5.3792,5.4076,5.4231,5.4231,5.414,5.3719,5.2805,5.3899,5.4161,5.3231,5.4357,5.4741,5.4164,5.4703,5.505,5.5159,5.5248,5.5968,5.7275,5.7171,5.8235,6.0205,6.0096,6.0048,6.0052,6.0127,6.0158,6.0165,6.0723,6.1285,6.1728,6.1006,6.2291,0.0,0.0,6.2866,6.3723,0.0,6.1594,5.9098,0.0,0.0,5.1616,0.0,5.047,5.0555,5.0573,0.0,0.0,0.0,0.0,0.0,6.4854,6.8275,7.201,7.726,7.9385,8.1696,8.6263,8.7453,8.8002,8.8718,8.849,8.8223,8.8223,8.6887,8.5834,8.5541,8.5642,8.563,8.533,8.5997,8.6455,8.6455,8.7061,8.7023,8.614,8.4181,8.221,8.0277,7.9177,7.8457,7.8078,7.7851,7.7851,7.8078,7.8078,7.8382,7.895,7.9177,7.9632,8.0277,8.1349,8.2145,8.2789,8.3623,8.3813,8.3623,8.3889,8.3813,8.3699,8.4597,8.5041,8.5306,0.0,0.0,0.0,0.0,0.0,5.2575,5.2158,5.3026,5.3741,0.0,0.0,0.0,5.488,5.5705,5.6133,5.5784,5.5598,5.5208,5.4464,5.4842,5.4842,5.4269,5.5011,5.5313,5.5011,5.5131,5.5264,5.5441,5.5042,5.5031,5.5328,5.5761,5.6317,5.696,5.8107,5.8361,5.7976,5.8576,5.8868,5.9102,6.1241,6.2595,6.3392,6.3783,6.5228,0.0,0.0,0.0,6.6883,6.6108,6.3554,0.0,0.0,0.0,0.0,0.0,0.0,5.1333,5.0568,5.0778,5.1625,5.3318,0.0,0.0,6.1162,6.4031,6.7422,7.345,7.6174,7.8798,8.3039,8.4812,8.592,8.6968,8.7112,8.714,8.7263,8.6221,8.5226,8.4528,8.4668,8.4629,8.4057,8.4958,8.5458,8.509,8.5848,8.5848,8.4635,8.2564,8.0834,7.9505,7.8372,7.7738,7.7614,7.7624,7.7624,7.7614,7.7876,7.81,7.8242,7.85,7.8874,7.9405,8.058,8.1376,8.1918,8.2752,8.3093,8.3131,8.3472,8.3396,8.3244,8.4446,8.5117,8.5533,0.0,0.0,0.0,5.2574,5.3384,5.3849,5.3525,5.4216,5.4786,0.0,5.4869,5.5417,5.6733,5.8123,5.8656,5.7887,5.7404,5.7086,5.6934,5.5861,5.5383,5.5692,5.5369,5.5389,5.5818,5.5131,5.5,5.5478,5.5001,5.4562,5.4186,5.5561,5.5805,5.5153,5.6573,5.7158,5.709,5.766,5.7759,5.7915,6.1952,6.382,6.4617,6.7961,6.8833,6.8459,6.9567,6.9329,6.8465,6.8407,6.5385,0.0,0.0,0.0,0.0,0.0,5.2921,5.2818,5.1362,5.1587,5.2544,5.3972,5.3313,0.0,6.0286,6.1822,6.3589,6.969,7.3382,7.6222,7.8427,8.0808,8.2746,8.3735,8.4433,8.5035,8.5702,8.5069,8.4153,8.3085,8.344,8.3496,8.2838,8.3887,8.4332,8.3661,8.4241,8.3949,8.2368,8.094,7.971,7.8807,7.7349,7.6905,7.7613,7.7508,7.7584,7.7766,7.8275,7.8216,7.7701,7.8211,7.8533,7.8685,8.0277,8.0997,8.1148,8.1842,8.2221,8.2486,8.3282,8.3168,8.2714,8.4332,8.5344,8.6064,0.0,5.198,5.2582,5.302,5.4019,5.4853,5.5185,5.5905,5.6442,5.6442,5.7049,5.8056,5.9614,5.9543,5.9311,5.9151,5.8413,5.7567,5.6587,5.6274,5.6002,5.5692,5.5616,5.5956,5.6747,5.6593,5.6874,5.7695,5.6847,5.6363,5.6295,5.5918,5.5654,5.5491,5.5822,5.559,5.5064,5.6463,5.7367,5.8252,6.2327,6.4412,6.5524,6.9732,7.1638,7.2098,7.2671,7.3131,7.2994,6.9798,6.7206,6.4641,0.0,0.0,0.0,5.4793,0.0,0.0,0.0,0.0,0.0,0.0,0.0,0.0,5.5056,5.5615,5.7208,6.0992,6.2861,6.5176,6.9635,7.1947,7.3313,7.3698,7.7626,8.1828,8.5102,8.4815,8.3897,8.2896,8.2863,8.3063,8.3372,8.3115,8.3093,8.3548,8.3297,8.2672,8.1655,8.081,7.9667,7.8149,7.6497,7.5721,7.5883,7.5263,7.5606,7.6944,7.6255,7.6541,7.7721,7.7652,7.8002,7.8647,7.967,8.0504,8.1073,8.058,8.1197,8.2486,8.3282,8.351,8.351,8.4522,8.5003,8.5154,5.186,5.3128,5.4187,5.4422,5.5449,5.6417,5.6934,5.7603,5.8299,5.878,6.0346,6.1231,6.0737,6.1102,6.1048,6.0208,5.9355,0.0,0.0,5.6753,5.6193,5.5731,5.5915,5.6364,5.6978,5.7202,5.7494,5.7953,5.7263,5.6784,5.6545,5.6523,5.5955,5.506,5.6246,5.6136,5.5097,5.6712,5.8196,5.9803,6.3296,6.5553,6.7207,7.1035,7.2875,7.3441,7.3835,7.4015,7.3553,7.0642,6.7856,0.0,6.2876,6.1599,6.0413,0.0,5.7363,5.7605,0.0,0.0,0.0,5.3972,0.0,0.0,0.0,5.4677,5.552,5.9573,6.0412,6.1559,6.5404,6.7126,6.8266,6.9199,7.3131,7.6649,7.833,8.1404,8.2914,8.1478,8.1674,8.1902,8.1892,8.2211,8.2562,8.2979,8.239,8.1669,8.0794,7.9819,7.8529,7.6846,7.5674,7.5033,7.5041,7.5501,7.6153,7.6996,7.6773,7.709,7.7789,7.7614,7.7918,7.8609,7.9064,7.9481,7.9822,7.9405,7.9746,8.0618,8.188,8.2335,8.2524,8.3764,8.4256,8.437,5.238,5.3981,5.5552,5.5766,5.6762,5.7668,5.8279,5.8746,5.9549,6.094,6.334,6.4302,6.2529,6.3482,6.3924,6.3232,6.1478,6.0242,5.9953,5.8081,5.6652,5.5967,5.6318,5.6696,5.7113,5.7607,5.7866,5.7945,5.7469,5.7051,5.669,5.7259,5.6657,5.517,5.7116,5.722,5.6054,5.7516,5.9409,6.1617,6.4413,6.6593,6.8543,7.1998,7.3528,7.3872,7.4433,7.4114,7.3145,7.1099,6.8356,6.5676,6.475,6.326,0.0,0.0,0.0,0.0,0.0,0.0,0.0,0.0,0.0,5.3897,0.0,0.0,0.0,5.9017,5.9321,5.9543,6.1621,6.2684,6.3663,6.5031,6.8485,7.0636,6.9606,7.5721,7.9766,7.8242,7.9176,7.9761,7.9262,8.0286,8.1328,8.2136,8.0888,8.0114,8.0219,7.8844,7.7336,7.5809,7.4903,7.4546,7.47,7.5908,7.6747,7.7247,7.7495,7.7623,7.7615,7.7446,7.7665,7.8116,7.8306,7.8382,7.8382,7.8533,7.8495,7.8533,8.039,8.111,8.1273,8.2827,8.3472,8.3775,5.3214,5.4159,5.5303,5.6098,5.688,5.769,5.8529,5.8392,5.912,6.1868,6.4524,6.6667,6.7865,6.7737,6.8675,7.1452,6.6735,6.4219,6.5743,6.1535,5.8353,5.6896,5.6912,5.7113,5.7513,5.828,5.8851,5.9202,5.8709,5.8465,5.8395,5.8087,5.7808,5.7593,5.7886,5.7748,5.733,5.825,6.0204,6.2891,6.5367,6.6907,6.8137,7.2488,7.4203,7.4369,7.5512,7.5363,7.421,0.0,6.9858,6.8645,0.0,6.4314,6.5693,6.006,0.0,0.0,0.0,0.0,0.0,0.0,5.7665,0.0,0.0,0.0,5.5061,5.3343,0.0,5.4073,5.438,0.0,0.0,5.5995,6.1217,6.4446,6.2094,6.7499,7.1638,7.143,7.3981,7.5732,7.5694,7.5817,7.7462,8.124,7.7593,7.6799,8.0531,7.8614,7.6954,7.5985,7.4462,7.3969,7.47,7.4021,7.4796,7.7037,7.6029,7.5913,7.658,7.6354,7.6318,7.6438,7.7207,7.7548,7.7586,7.8306,7.8192,7.7775,8.0163,8.111,8.1224,8.2183,8.2979,8.3548,5.3287,5.4728,5.6107,5.6272,5.711,5.8063,5.8962,6.1244,6.322,6.4146,6.7043,6.9112,6.9327,6.9177,6.9752,7.1521,6.8893,6.6657,6.5422,6.2915,6.0354,5.7852,5.7945,5.8111,5.8297,5.8589,5.8828,5.9009,5.8508,5.8304,5.8293,5.8085,5.7637,5.7085,5.8389,5.8805,5.8587,5.9345,6.1318,6.403,6.5529,6.7049,6.8769,7.2789,7.4125,7.3903,7.3934,7.372,7.3161,0.0,6.9523,0.0,0.0,0.0,0.0,6.2738,0.0,0.0,0.0,0.0,0.0,0.0,0.0,0.0,5.5841,0.0,5.4203,0.0,0.0,0.0,0.0,0.0,0.0,0.0,5.8256,6.0137,5.8664,6.2366,6.6092,6.8572,7.0107,7.1564,7.3057,7.3577,7.4967,7.7722,7.5289,7.4902,7.7678,7.7001,7.5938,7.4591,7.3735,7.3261,7.3069,7.3559,7.4549,7.6135,7.6076,7.6465,7.7122,7.652,7.6486,7.6865,7.6714,7.6638,7.6676,7.7017,7.6941,7.6865,7.8874,7.9632,7.9822,8.1148,8.188,8.2183,5.3471,5.5122,5.6367,5.6145,5.7157,5.829,5.9212,6.2556,6.5089,6.5366,6.815,7.0241,7.0555,7.1267,7.2368,7.3929,7.2771,7.0746,6.794,6.542,6.2714,5.9862,5.9133,5.8948,5.9246,5.8868,5.8642,5.8524,5.8175,5.7997,5.7997,5.7776,5.7279,5.6674,5.883,5.9858,6.0077,6.1507,6.3597,6.605,6.7137,6.83,6.9711,7.2679,7.358,7.3189,7.263,7.2403,7.2223,7.0934,6.9029,0.0,6.9031,6.6674,6.3631,0.0,0.0,0.0,5.9975,0.0,0.0,0.0,0.0,0.0,0.0,0.0,0.0,0.0,0.0,0.0,0.0,0.0,5.3467,5.5126,0.0,5.704,5.6077,5.8054,6.0884,6.4426,6.5901,6.7739,7.0503,7.0432,7.1516,7.4604,7.2625,7.252,7.5423,7.5467,7.4764,7.3337,7.3122,7.2731,7.2052,7.3315,7.4391,7.5213,7.5756,7.6357,7.6998,7.6113,7.6072,7.6676,7.6069,7.5756,7.5794,7.6021,7.5983,7.5956,7.7851,7.8457,7.8457,8.0163,8.0921,8.1159,5.4216,5.506,5.5622,5.5607,5.6955,5.8265,5.9059,6.0425,6.2225,6.4602,6.6835,6.9383,7.2541,7.5285,7.8501,8.2543,8.0081,7.783,7.6679,7.0255,6.5547,6.3449,6.0434,5.9291,6.0332,5.9256,5.8492,5.8031,5.8008,5.7997,5.796,5.7189,5.7036,5.7434,5.9218,6.0636,6.1911,6.5122,6.7613,6.9506,7.1148,7.135,7.078,7.1991,7.2431,7.2441,7.2403,0.0,0.0,6.9735,6.8923,0.0,0.0,0.0,0.0,0.0,0.0,0.0,0.0,0.0,0.0,5.9087,0.0,0.0,0.0,0.0,5.6285,0.0,0.0,0.0,0.0,0.0,0.0,0.0,5.5241,0.0,0.0,5.4115,5.5385,5.7159,6.0789,6.4493,6.7903,6.529,6.6225,7.2965,6.9022,6.891,7.4911,7.4434,7.3597,7.2749,7.2705,7.2628,7.2375,7.3086,7.3755,7.445,7.4316,7.4631,7.5238,7.4362,7.4362,7.496,7.496,7.4922,7.5008,7.5794,7.5642,7.5188,7.7661,7.8116,7.7623,7.9329,8.0439,8.0997,5.5034,5.5831,5.6381,5.6381,5.7262,5.8621,6.0493,6.2405,6.5464,7.0598,7.2702,7.5777,8.1231,8.2623,8.3966,8.5869,8.4317,8.1535,7.7599,7.338,6.9996,6.7702,6.3945,6.2247,6.2887,6.0879,5.9232,5.7997,5.7997,5.7997,5.796,5.7178,5.7057,5.7501,5.8553,6.0326,6.2625,6.4297,6.643,6.8752,6.9064,6.9806,7.0609,0.0,6.9882,6.9693,7.0163,7.0521,0.0,7.0181,6.9133,6.8171,6.8908,6.7368,6.5472,6.6529,6.5902,6.4926,0.0,0.0,6.5927,6.1662,0.0,0.0,0.0,0.0,0.0,0.0,0.0,0.0,0.0,0.0,0.0,0.0,0.0,0.0,0.0,5.2967,5.3224,5.4469,5.7688,6.0359,6.1735,6.2176,6.3874,6.7575,6.6237,6.7413,7.2429,7.2405,7.2371,7.2686,7.2468,7.2062,7.1415,7.2508,7.3133,7.3228,7.3747,7.4067,7.4122,7.3297,7.3334,7.4051,7.4051,7.4354,7.4922,7.5188,7.515,7.5074,7.7055,7.7623,7.7586,7.9291,8.006,8.0288,5.5904,5.6455,5.6811,5.6811,5.796,5.9465,6.13,6.4536,6.863,7.3963,7.6702,8.0186,8.5541,8.6806,8.7447,8.7913,8.7356,8.4497,7.853,7.6719,7.4395,7.104,6.8245,6.6818,0.0,0.0,0.0,5.9281,5.8694,5.829,5.796,5.6895,5.6614,5.7054,5.7857,5.9841,6.2834,6.4796,6.7053,6.9217,6.7737,6.775,6.8583,0.0,6.7599,6.8248,0.0,6.9552,6.9948,7.0234,6.9474,6.8682,7.0195,6.8496,6.6251,6.7777,6.6863,6.5548,6.638,6.7509,0.0,6.399,6.3848,0.0,5.8493,0.0,0.0,0.0,0.0,0.0,0.0,0.0,0.0,0.0,0.0,0.0,0.0,5.2159,5.2526,5.288,5.5582,5.7723,5.8593,5.9173,6.042,6.2624,6.3002,6.4657,6.8191,7.0129,7.1365,7.1951,7.1941,7.1603,7.0996,7.2017,7.2592,7.272,7.2996,7.3315,7.3677,7.2851,7.2879,7.3634,7.3937,7.4392,7.4884,7.4884,7.4884,7.5046,7.6411,7.6941,7.7169,7.9177,7.9898,7.9898,5.6847,5.6921,5.6994,5.7031,5.8866,6.0676,6.163,6.6476,7.1321,7.4867,7.883,8.2663,8.6077,8.826,8.9391,8.9264,8.9526,8.6892,8.011,8.0328,7.8591,0.0,7.3156,7.2682,7.2135,0.0,0.0,0.0,6.0003,5.8756,5.8033,5.6356,5.5818,5.6204,5.7111,5.9214,6.2394,6.6382,6.9154,7.0658,6.7283,6.5728,6.5298,6.4547,6.5858,6.819,6.8966,6.9521,6.9872,6.9853,6.9901,6.9958,6.9929,6.9697,6.9405,6.9384,6.9138,6.8694,6.8043,6.784,6.7524,6.5947,6.5527,0.0,0.0,0.0,6.0942,0.0,0.0,0.0,0.0,0.0,0.0,0.0,0.0,0.0,4.9971,5.1625,5.2878,5.2237,5.4223,5.6358,5.8217,5.6257,5.5916,5.8478,5.9454,6.085,6.2976,6.7704,7.0411,7.0639,7.1125,7.1281,7.1153,7.1645,7.2226,7.2809,7.2092,7.2494,7.3801,7.2983,7.2947,7.3634,7.4467,7.4846,7.4884,7.4884,7.4884,7.496,7.5794,7.6135,7.6524,7.895,7.986,7.9898,5.7703,5.8657,5.9648,6.0272,5.9893,6.0591,6.3857,6.71,7.2092,8.0151,8.4205,8.8757,9.4997,9.5643,9.5148,9.3915,9.2567,8.9893,8.532,8.3313,8.1715,8.0378,7.7642,7.5943,7.5556,6.9988,6.6182,6.4347,6.0309,5.851,5.8829,5.6638,5.5662,5.5754,5.6008,5.7413,5.9763,6.2028,6.4662,6.7297,6.6666,6.6503,6.6615,0.0,6.7065,6.8128,6.8404,6.8882,6.943,6.9187,6.9686,7.0465,7.0695,7.0715,7.0607,7.0324,6.999,6.971,6.983,7.0098,6.9988,6.8415,6.7541,6.6408,0.0,0.0,0.0,0.0,0.0,0.0,0.0,0.0,0.0,0.0,0.0,0.0,0.0,0.0,5.2449,5.2992,5.2527,5.268,5.3974,5.4073,5.4906,5.6956,5.7229,5.9737,6.5438,6.6257,6.7979,7.1023,7.1058,7.1235,7.1688,7.1735,7.1764,7.1779,7.2245,7.2564,7.2794,7.2557,7.2859,7.3596,7.3823,7.4316,7.4884,7.4884,7.4884,7.496,7.5794,7.6865,7.804,7.8685,7.9329,7.9898,5.9061,6.0639,6.2254,6.3062,6.393,6.5398,6.8041,6.9889,7.3854,8.1819,8.6591,9.0702,9.4427,9.6685,9.7089,9.5144,9.3307,9.045,8.6241,8.5671,0.0,8.2639,8.1744,8.049,7.8692,7.3521,0.0,6.5815,6.1263,5.881,5.8382,5.6298,5.5444,5.5663,5.5998,5.7207,5.9177,6.218,6.4447,6.6043,6.6359,6.6749,0.0,6.6864,6.7557,6.8606,6.8493,6.8941,6.9532,6.9347,6.9748,7.0385,7.0942,7.0751,7.0317,7.032,6.9801,6.9323,6.9734,7.0068,7.0206,6.9986,6.9633,6.8715,6.6659,6.6549,6.6381,0.0,6.4116,6.3702,0.0,0.0,0.0,0.0,0.0,0.0,0.0,0.0,5.268,5.3344,5.2907,5.2667,5.2952,5.2077,5.2042,5.3483,5.4528,5.668,6.0222,6.3323,6.6061,6.8369,6.9254,7.0183,7.1221,7.0741,7.0742,7.1275,7.1778,7.2139,7.2403,7.2782,7.3189,7.3634,7.4013,7.443,7.4884,7.4884,7.4884,7.4922,7.5387,7.66,7.8078,7.8078,7.8836,7.9898,6.086,6.2768,6.464,6.5338,6.9032,7.2371,7.3744,7.4771,7.7414,8.292,8.8353,9.1546,9.1051,9.5217,9.7163,9.496,9.3051,9.0152,8.582,8.7583,8.7079,8.3174,8.5242,8.4873,8.1461,7.7081,7.2306,0.0,6.2684,5.9523,5.7607,5.5995,5.5412,5.5751,5.643,5.7628,5.9432,6.3895,6.568,6.5508,6.6193,6.6722,6.7089,6.6913,6.79,6.933,6.903,6.9326,6.9834,6.9834,6.9919,7.0109,7.0877,7.0398,6.96,6.993,6.9195,6.8358,6.88,6.8885,6.9252,7.0756,7.1239,7.1001,6.9605,6.9439,6.9047,6.7259,6.5696,6.4975,0.0,0.0,0.0,0.0,0.0,0.0,0.0,0.0,5.4205,5.4027,5.4572,0.0,5.3494,5.0724,4.9372,5.0245,5.203,5.3148,5.3246,6.0162,6.443,6.5152,6.7244,6.9075,7.0499,6.9624,6.9802,7.0953,7.1162,7.1683,7.2441,7.3341,7.3785,7.3823,7.4581,7.4884,7.4884,7.4884,7.4884,7.4922,7.4998,7.6032,7.7396,7.751,7.8533,7.9898,6.3319,6.4861,6.6109,6.6256,7.1248,7.668,8.0849,8.3308,8.6261,9.0629,9.496,9.808,9.9255,9.9108,9.8447,9.7346,9.4556,0.0,0.0,0.0,0.0,8.7178,8.6676,8.5493,8.3506,7.7543,7.3119,0.0,0.0,6.0296,5.8911,5.732,5.6241,5.5713,5.5864,5.6782,5.847,6.106,6.2277,6.2795,6.5794,6.7022,6.725,6.8716,6.9511,6.9777,6.9719,6.9562,6.9392,6.9392,6.9892,7.0547,7.096,7.0962,7.069,7.0147,6.9383,6.8712,6.8844,6.8885,6.9119,7.0073,7.1061,7.1736,7.144,7.2145,7.2746,7.2422,7.1776,7.0605,6.8314,0.0,0.0,0.0,0.0,0.0,0.0,0.0,0.0,5.7424,5.6706,5.5264,5.2468,5.1858,5.1986,5.2864,5.1392,5.2792,5.8139,5.9679,6.2529,6.7117,6.8882,7.0213,0.0,0.0,7.0573,7.0284,7.157,7.2251,7.2441,7.3985,7.4657,7.4695,7.4809,7.4884,7.4884,7.4884,7.4884,7.496,7.5642,7.6524,7.7472,7.8154,7.9026,7.9898,6.6439,6.754,6.9045,7.1101,7.6497,8.215,8.7031,9.1253,9.3382,9.1987,9.4263,9.5951,9.5841,9.7787,9.8631,9.7383,9.5107,9.3015,9.1289,8.9495,8.8142,8.7283,8.6502,8.4918,8.2502,7.833,7.4004,6.9545,0.0,6.0994,5.8401,5.7635,5.6692,5.5756,5.6838,5.8439,6.0483,6.2267,6.3606,6.4738,6.7074,6.8223,6.8641,6.9569,6.9901,6.9901,6.9901,6.9767,6.9592,6.9592,6.9904,7.035,7.0914,7.0811,7.0419,7.0095,6.943,6.8733,6.8368,6.8274,6.8512,6.9499,7.0499,7.1411,7.2024,7.2969,7.3764,7.3968,7.3466,7.2219,6.9692,6.5514,0.0,0.0,0.0,0.0,0.0,0.0,6.0946,0.0,0.0,0.0,5.4589,5.302,5.154,5.0206,5.0194,5.1613,5.4723,5.7659,6.1031,6.4978,0.0,0.0,7.1218,0.0,7.0829,7.1332,7.248,7.3037,7.3075,7.4326,7.4884,7.4884,7.4884,7.4884,7.4884,7.4884,7.4884,7.4922,7.5339,7.6259,7.7434,7.7813,7.8798,7.9898,7.0146,7.0807,7.2496,7.69,8.2076,8.7068,9.1436,9.6906,9.8704,9.3602,9.4079,9.4336,9.2831,9.6502,9.8521,9.7089,9.5327,9.3382,9.1289,8.966,8.8161,8.6721,8.586,8.4114,8.1309,7.8816,7.4528,0.0,0.0,0.0,0.0,5.805,5.743,5.6431,5.8234,6.0311,0.0,0.0,6.5864,6.7444,6.8582,6.9461,7.0032,6.9948,6.9901,6.9901,6.9901,6.9901,6.9939,7.009,7.0053,7.0015,7.0659,7.0432,6.9889,6.9795,6.9318,6.8633,6.8006,6.7797,6.8036,6.9025,7.0103,7.1181,7.2069,7.3135,7.4038,7.4361,7.3727,7.2507,7.0477,6.8028,0.0,0.0,0.0,0.0,0.0,0.0,0.0,0.0,0.0,0.0,5.6804,5.3646,5.0534,4.7852,4.9777,5.1179,5.1425,5.6013,5.9778,0.0,0.0,6.7689,7.0393,0.0,7.1199,7.2461,7.3247,7.3596,7.3634,7.4505,7.4884,7.4884,7.4884,7.4884,7.4884,7.4884,7.4884,7.4932,7.5074,7.6069,7.7434,7.7586,7.8609,7.9898,7.4698,7.4918,7.6188,8.1729,8.617,8.984,9.2574,9.775,10.122,10.0596,10.0596,10.0413,9.9475,9.9218,9.8741,9.786,9.5658,9.3896,9.2941,9.0319,8.8417,8.7523,8.5361,8.3506,8.2106,7.8324,7.4264,0.0,0.0,6.3358,0.0,5.9473,5.9045,5.8532,0.0,0.0,0.0,6.4785,6.6722,6.8283,6.9439,7.017,7.0485,7.006,6.9901,6.9901,6.9901,6.9901,7.0015,7.0735,7.0507,6.9901,6.9977,6.9977,6.9776,6.9109,6.8858,6.8691,6.8272,6.8148,6.8284,6.8744,7.0297,7.1717,7.1825,7.3382,7.4802,7.4833,7.4162,7.2848,7.0533,6.9836,6.8726,0.0,0.0,0.0,0.0,0.0,6.8543,6.4008,0.0,0.0,5.6835,5.3053,5.0619,5.0106,5.1493,5.3061,5.4734,0.0,0.0,6.1438,6.4633,6.6907,6.8199,7.0837,7.232,7.2584,7.3268,7.3596,7.3634,7.4505,7.4884,7.4884,7.4884,7.4884,7.4884,7.4884,7.4884,7.496,7.568,7.6562,7.7472,7.823,7.9102,8.0011,0.0,0.0,0.0,0.0,0.0,0.0,0.0,9.9732,10.1514,10.1514,10.1514,10.122,10.0393,9.9585,9.8594,9.7273,9.496,9.3015,9.1693,8.9146,8.7464,8.6885,8.5015,8.3216,8.1509,7.8712,7.4978,0.0,0.0,0.0,0.0,0.0,0.0,0.0,0.0,6.3701,6.5357,6.7269,6.8815,7.005,7.0263,7.0589,7.0823,7.0156,6.9901,6.9901,6.9901,6.9901,6.9939,7.028,7.0166,7.009,7.1076,7.0697,6.989,6.9885,6.9519,6.9019,6.8656,6.855,6.8756,6.9656,7.0841,7.1971,7.2728,7.3931,7.4925,7.5055,7.4876,7.4532,7.3963,7.1914,7.0607,7.1625,0.0,0.0,0.0,0.0,0.0,6.368,0.0,5.7971,5.6624,5.1585,4.9913,5.3549,5.1624,5.0899,0.0,0.0,0.0,5.9883,0.0,6.7455,6.8418,7.1086,7.2935,7.399,7.4242,7.4392,7.4392,7.4733,7.4884,7.4884,7.4884,7.4884,7.4884,7.4884,7.4884,7.496,7.5794,7.6638,7.751,7.8306,7.914,7.9946,8.5143,0.0,8.6237,0.0,9.358,9.4941,9.9684,10.1087,10.1493,10.1308,10.1493,10.121,10.0102,9.9375,9.8294,9.6675,9.4465,9.2544,9.1122,8.887,8.7229,8.6487,8.5009,0.0,8.106,7.9181,7.5803,7.0964,6.8905,0.0,0.0,0.0,0.0,0.0,6.4841,6.62,6.7651,6.9434,7.0822,7.1724,7.1421,7.1392,7.1379,7.0583,7.0128,6.9901,6.9901,6.9901,6.9977,7.047,7.047,7.0432,7.1379,7.119,7.0601,7.0317,6.9949,6.9557,6.9083,6.8941,6.9255,7.0437,7.1388,7.2281,7.3356,7.4328,7.5045,7.5218,7.5336,7.5524,7.5961,7.374,7.2436,7.4408,0.0,0.0,0.0,7.0726,0.0,6.3878,5.9709,5.7302,5.7555,5.1844,5.0562,5.6292,5.2788,0.0,0.0,0.0,0.0,0.0,0.0,0.0,6.88,7.1418,7.3492,7.4884,7.4884,7.4884,7.4884,7.4884,7.4884,7.4884,7.4884,7.4884,7.4932,7.516,7.5263,7.5349,7.6411,7.7207,7.7851,7.8685,7.9367,7.9973,8.9546,8.9646,9.0955,9.7481,9.7675,9.7781,10.0287,10.1386,10.1611,10.0809,10.1424,10.1194,9.9318,9.8798,9.7946,9.6335,9.44,9.2953,9.2125,9.0121,8.826,0.0,0.0,8.3582,8.1071,7.9483,7.664,7.2459,0.0,0.0,6.5935,0.0,6.4363,6.4744,6.6433,6.7602,6.8433,7.0854,7.2348,7.3074,7.3014,7.274,7.2289,7.1417,7.0583,6.9901,6.9901,6.9901,7.0166,7.1796,7.1796,7.0962,7.0166,7.1038,7.1965,6.993,6.9911,7.0411,6.9524,6.9298,6.957,7.0799,7.1749,7.2583,7.3406,7.4447,7.5218,7.5389,7.5386,7.5371,7.5237,7.5161,7.4315,7.1852,0.0,0.0,0.0,0.0,0.0,6.5559,6.1469,5.9257,5.9969,5.4656,5.3124,5.7914,0.0,0.0,0.0,0.0,0.0,6.1316,6.5424,0.0,6.88,7.1978,7.4013,7.4884,7.4884,7.4884,7.4884,7.4884,7.4884,7.4884,7.4884,7.4884,7.496,7.5766,7.6097,7.6249,7.7927,7.8571,7.8685,7.9556,7.9898,8.0125,9.3187,9.382,9.5081,9.8619,9.8934,9.8976,9.9689,10.049,10.0789,9.9913,10.0602,10.0596,9.9487,9.8736,9.7685,0.0,9.3839,9.2141,0.0,8.8812,8.7269,8.7012,8.587,8.4167,8.1915,8.0614,7.8181,7.4598,0.0,0.0,0.0,6.7227,6.7241,6.7646,6.9543,7.0521,7.0892,7.2731,7.3686,7.3875,7.3538,7.3023,7.2289,7.1417,7.0621,6.9977,7.0507,7.0356,7.0166,7.1834,7.2213,7.1948,7.1683,7.1986,7.2383,7.2273,7.16,7.0891,7.0589,7.0125,6.9927,7.0858,7.1304,7.2062,7.4013,7.5399,7.6267,7.6467,7.613,7.5892,7.6153,7.5755,7.5169,7.4683,7.428,0.0,7.0726,0.0,6.6121,6.1507,5.8376,5.6894,5.7562,5.476,5.4401,5.8077,5.5835,0.0,0.0,0.0,0.0,0.0,6.5868,0.0,6.88,7.2585,7.4619,7.4922,7.5453,7.5415,7.4884,7.4884,7.4884,7.4884,7.4884,7.4884,7.4932,7.5188,7.5604,7.6211,7.7358,7.8116,7.8723,7.9594,7.9898,7.9973,9.578,9.6697,9.7736,9.9055,9.9465,9.9499,9.9145,10.01,10.04,9.9258,10.01,10.0475,9.9702,9.856,0.0,9.5725,9.3514,9.1827,9.1038,8.8978,8.7651,8.7305,8.6541,8.487,8.2125,8.1337,0.0,7.6065,7.3465,7.1426,6.9936,6.9319,6.915,6.9426,7.1138,7.1969,7.2235,7.3689,7.4383,7.4477,7.4196,7.3596,7.2772,7.2241,7.1521,7.0867,7.1232,7.0851,7.0408,7.2061,7.2412,7.2329,7.3083,7.3351,7.3303,7.3189,7.262,7.1976,7.1683,7.1228,7.1038,7.1824,7.212,7.2671,7.4724,7.5782,7.6382,7.6562,7.6563,7.6532,7.6679,7.6265,7.5948,7.6093,7.4695,7.282,7.0545,0.0,6.4712,0.0,0.0,0.0,0.0,5.7695,5.8157,0.0,0.0,0.0,0.0,0.0,6.2083,6.3067,6.8438,7.138,7.156,7.4414,7.5842,7.5842,7.6021,7.5842,7.5339,7.5046,7.4884,7.4884,7.4884,7.4884,7.4922,7.5225,7.5642,7.6211,7.7396,7.8154,7.8723,7.9594,7.9898,7.9984,9.7293,9.8289,9.8998,0.0,9.9481,9.9531,9.8735,9.9986,10.0403,9.8811,9.9948,10.0592,9.9796,9.8229,9.6666,9.5305,0.0,0.0,9.1155,9.0245,8.9032,8.7478,8.7402,8.5619,8.1819,8.1783,8.0177,7.6866,7.4122,7.2716,7.2642,7.1064,7.033,7.0321,7.1498,7.2247,7.2742,7.3879,7.4611,7.496,7.4922,7.4392,7.3596,7.3596,7.3093,7.2334,7.1993,7.1347,7.0896,7.2525,7.2536,7.2246,7.4262,7.4884,7.4591,7.3047,7.3075,7.3444,7.2706,7.2441,7.2592,7.3406,7.3877,7.4492,7.5619,7.5884,7.5932,7.6139,7.6746,7.7078,7.6696,7.6618,7.6444,7.601,7.445,7.2186,6.9049,6.7144,6.4927,0.0,0.0,0.0,6.2202,6.2702,6.3583,0.0,0.0,0.0,0.0,0.0,6.4011,6.9636,7.2307,7.443,7.5983,7.6979,7.7472,7.7472,7.66,7.6173,7.6183,7.5339,7.496,7.496,7.4922,7.4884,7.497,7.5739,7.6128,7.6356,7.7931,7.8603,7.882,7.9627,7.9919,8.0125,0.0,0.0,9.914,9.9537,9.9728,9.9531,9.8735,9.9455,9.9758,9.8735,9.8962,9.9114,9.8924,9.7408,9.5726,9.412,9.2961,9.195,9.1155,8.9714,8.8426,8.744,8.7402,8.5775,8.2324,8.2532,8.1052,7.7718,7.6074,7.4918,7.4316,7.3303,7.2532,7.1974,7.2875,7.3666,7.4337,7.4638,7.5163,7.5756,7.515,7.4392,7.3596,7.3596,7.2913,7.1993,7.2509,7.2008,7.1352,7.3338,7.3439,7.2967,7.4451,7.4884,7.4809,7.444,7.3975,7.3558,7.3368,7.2886,7.2592,7.3406,7.5207,7.696,7.7543,7.7648,7.7689,7.7869,7.7053,7.6225,7.5975,7.5825,7.543,7.4581,7.1882,6.9212,6.7165,6.4997,6.2872,0.0,6.2306,6.3741,6.4305,6.4829,6.5332,0.0,0.0,6.5096,6.607,6.6073,6.6938,6.884,7.262,7.4771,7.5188,7.7282,7.8306,7.8306,7.7472,7.7093,7.7055,7.6221,7.5832,7.5794,7.515,7.4884,7.4943,7.5254,7.6159,7.7368,7.7856,7.877,7.9858,8.0048,8.002,8.0049,9.7391,9.8847,9.992,9.9831,10.0099,9.9872,9.8242,9.9038,9.9228,9.766,9.8432,9.8849,9.8091,9.7007,9.5636,9.3974,9.325,9.2216,9.0624,9.0017,8.9222,8.8009,8.7592,8.6189,8.3612,8.3172,8.1526,7.8533,7.6884,7.5689,7.4867,7.4074,7.3266,7.2524,7.3141,7.3873,7.4645,7.5009,7.5421,7.5799,7.5542,7.4922,7.4192,7.4,7.3517,7.2969,7.2999,7.2519,7.2008,7.3532,7.3605,7.3279,7.4527,7.4884,7.496,7.5339,7.4846,7.4278,7.4657,7.444,7.4338,7.5323,7.6675,7.7891,7.8319,7.8345,7.8361,7.8462,7.7792,7.7085,7.6867,7.6109,7.5047,7.3599,7.0542,6.7609,6.5479,6.3809,6.2734,6.2513,6.4708,6.6612,6.7524,6.8552,6.89,6.831,6.7985,0.0,6.9055,7.0241,7.0925,7.0877,7.3861,7.5653,7.6032,7.7737,7.8609,7.8609,7.8154,7.7965,7.7927,7.7093,7.6676,7.6676,7.6324,7.6184,7.6204,7.6408,7.7026,7.7884,7.833,7.9027,7.98,8.0083,8.0124,8.0199,9.7925,9.9524,10.0516,9.991,10.0403,10.0099,9.785,9.8643,9.8716,9.6469,9.7829,9.8468,9.7055,9.6432,9.5485,9.3929,9.3639,9.2555,9.0222,9.0638,9.031,8.8757,8.7912,8.6601,8.4725,8.3289,8.1329,7.8942,7.7259,7.5916,7.4792,7.4191,7.3377,7.251,7.3033,7.3741,7.4549,7.5343,7.5773,7.5897,7.5982,7.5607,7.4933,7.4398,7.4154,7.4015,7.3337,7.2865,7.2695,7.3429,7.3518,7.3479,7.4716,7.5074,7.5236,7.6059,7.5804,7.5415,7.6097,7.6362,7.6731,7.7808,7.8159,7.8344,7.8753,7.8754,7.8646,7.8707,7.86,7.8362,7.7935,7.6583,7.4777,7.2584,6.927,6.6254,6.416,0.0,6.3505,6.5441,6.806,7.0176,7.1319,7.2596,7.2897,7.1691,7.1922,7.236,7.2973,7.4368,7.4768,7.3923,7.5456,7.6638,7.7396,7.8344,7.8723,7.8609,7.8723,7.8798,7.8761,7.7965,7.7607,7.7648,7.765,7.7683,7.7751,7.793,7.8097,7.8315,7.9021,7.9356,7.9502,8.0057,8.0301,8.0583,9.6916,9.8153,9.9152,9.972,9.991,9.9645,9.8545,9.8244,9.7737,9.6681,9.5893,9.5298,9.5036,9.4285,9.3438,9.2487,9.2975,9.2772,9.1412,9.0747,9.0007,8.9041,8.825,8.6535,8.3781,8.1783,7.9755,7.7695,7.8036,7.6945,7.4472,7.4637,7.3913,7.2547,7.3624,7.4606,7.5466,7.6193,7.6954,7.7493,7.6131,7.5525,7.5302,7.4218,7.3591,7.3259,7.3127,7.304,7.3084,7.3554,7.3893,7.4334,7.5549,7.5908,7.6069,7.6941,7.7093,7.7055,7.7169,7.7699,7.8293,7.8663,7.9293,7.9934,8.0328,7.9876,7.9372,7.9561,7.9015,7.8054,7.6593,7.5403,7.3622,7.0587,6.594,6.3082,6.4065,0.0,6.4138,6.7799,7.1598,7.4298,7.5163,7.4861,7.5088,7.6262,7.4626,7.421,7.5704,7.6178,7.6041,7.5248,7.649,7.7244,7.7396,7.8912,7.9329,7.8609,7.9329,7.9708,7.967,7.8798,7.8525,7.8613,7.7786,7.7624,7.7957,7.7937,7.8465,7.928,7.9574,8.0041,8.054,8.0496,8.0773,8.1344,9.6439,9.8102,9.9228,9.9152,9.991,9.9828,9.7828,9.769,9.7094,9.5097,9.5093,9.4915,9.4002,9.3317,9.2768,9.2417,9.2043,9.1924,9.2123,9.1201,9.0261,8.9399,8.8162,8.6268,8.3557,8.1701,7.99,7.8106,7.822,7.6945,7.4431,7.4753,7.4023,7.2532,7.3519,7.4429,7.5297,7.6327,7.695,7.7237,7.6718,7.598,7.5082,7.4311,7.376,7.3388,7.3204,7.3376,7.3776,7.3956,7.4568,7.5291,7.5411,7.6059,7.6865,7.7282,7.7699,7.8154,7.8609,7.9026,7.9572,8.0677,8.0576,8.0389,8.1106,8.0634,8.0113,8.0301,7.9643,7.8676,7.7538,7.584,7.3466,7.0059,6.6695,0.0,6.5334,6.5764,6.736,7.0962,7.4252,7.6562,7.7358,7.7548,7.7927,7.8685,7.7412,7.716,7.8378,7.8189,7.7932,7.7645,7.6732,7.6789,7.804,7.8382,7.8571,7.8609,7.9481,7.9898,7.9898,7.9481,7.9355,7.9412,7.9053,7.9023,7.9171,7.9275,7.9606,8.004,8.0127,8.037,8.0616,8.0421,8.077,8.1496,9.5974,9.7677,9.8811,9.8394,9.9379,9.9384,9.6856,9.6815,9.6171,9.3638,9.4057,9.4098,9.2816,9.2175,9.1884,9.1867,9.1099,9.0954,9.1796,9.1049,9.0317,8.9755,8.7912,8.5745,8.337,8.2121,8.0429,7.8273,7.8283,7.7008,7.456,7.4979,7.45,7.3377,7.3964,7.4698,7.5536,7.6707,7.7135,7.7028,7.7069,7.6291,7.5006,7.4269,7.3842,7.3541,7.3311,7.3703,7.4305,7.4305,7.4989,7.5756,7.5301,7.6221,7.7434,7.7623,7.8382,7.9329,8.0011,8.0325,8.0824,8.2287,8.1531,8.0669,8.168,8.1308,8.084,8.1224,8.0835,8.0059,7.893,7.7024,7.4377,7.063,0.0,6.727,6.7572,6.846,7.0448,7.4033,7.6562,7.8306,7.9102,7.9973,8.0499,8.0553,8.0116,8.0066,8.0573,8.0161,7.9866,7.9727,7.7377,7.6825,7.8306,7.8116,7.8192,7.8609,7.9481,8.0022,8.0163,7.9984,8.0044,8.026,8.0148,8.0185,8.0285,8.0392,8.0468,8.0506,8.0506,8.0506,8.0487,8.0466,8.0994,8.1801,9.5147,9.5939,9.6599,9.7281,9.7509,9.7244,9.6294,9.541,9.4482,9.3442,9.1966,9.0938,9.0828,9.0076,8.9654,8.9654,9.0243,9.0335,8.9691,8.9579,8.9693,9.014,8.7439,8.4945,8.2888,8.2725,8.0831,7.7038,7.8436,7.7731,7.5077,7.5713,7.5946,7.5836,7.5909,7.6387,7.7167,7.8081,7.8255,7.7797,7.6722,7.5999,7.5378,7.3805,7.3175,7.318,7.3541,7.3932,7.4305,7.4305,7.4611,7.5112,7.5804,7.6638,7.7548,7.8306,7.9632,8.0921,8.0997,8.1614,8.2259,8.2395,8.1712,8.1312,8.2371,8.1966,8.1609,8.2617,8.2929,8.2288,7.9864,7.8791,7.6828,7.2604,0.0,0.0,7.0892,7.051,7.1769,7.6545,7.8647,8.0022,8.0845,8.169,8.2271,8.2496,8.2633,8.2444,8.1899,8.2002,8.1568,8.0467,7.9427,7.8456,7.751,7.895,7.9329,7.8609,7.9481,8.0277,8.0997,8.025,8.0395,8.122,8.0319,8.0124,8.0468,8.0295,8.0334,8.0506,8.0506,8.0506,8.0564,8.1113,8.187,8.2676,9.4098,9.4424,9.4793,9.5589,9.6196,9.599,9.4322,9.3941,9.322,9.1545,9.044,8.9982,9.0256,8.9317,8.897,8.9776,8.939,8.9197,8.94,8.8923,8.8514,8.8222,8.6674,8.5013,8.3265,8.2703,8.0875,7.7649,7.8451,7.7671,7.5422,7.6198,7.6277,7.5826,7.6706,7.7266,7.7628,7.8566,7.8553,7.7904,7.7354,7.6431,7.5259,7.4522,7.4064,7.3884,7.415,7.446,7.4756,7.5394,7.5615,7.5794,7.6638,7.7472,7.8306,7.914,8.0591,8.1918,8.1918,8.2145,8.2638,8.3688,8.293,8.2129,8.3052,8.2619,8.2179,8.2703,8.2852,8.2521,8.1106,8.0328,7.8749,7.5432,0.0,7.3518,7.3733,7.4248,7.5486,7.7861,7.9632,8.0959,8.1842,8.2676,8.3459,8.4181,8.3941,8.3687,8.3574,8.2625,8.1627,8.0515,8.0077,7.9528,7.8961,7.9064,7.9215,7.9405,8.0239,8.0807,8.1073,8.0769,8.0862,8.1165,8.0282,8.0005,8.0113,8.0068,8.0041,8.0124,8.0124,8.0428,8.0912,8.1121,8.2087,8.328,9.3541,9.3593,9.3707,9.3972,9.449,9.4386,9.2884,9.2767,9.2278,9.0752,8.9922,8.9575,8.9899,8.8935,8.861,8.9469,8.8843,8.8559,8.8854,8.822,8.7582,8.7014,8.6224,8.5142,8.3683,8.2812,8.1056,7.8297,7.8631,7.7897,7.6193,7.694,7.7199,7.7026,7.7816,7.8311,7.8586,7.9142,7.8799,7.7881,7.7971,7.6899,7.5342,7.5622,7.5236,7.4623,7.5209,7.5521,7.5737,7.6337,7.6493,7.6522,7.7338,7.8093,7.8866,7.9739,8.1138,8.241,8.241,8.2789,8.346,8.4597,8.3839,8.2979,8.3813,8.3358,8.291,8.333,8.3453,8.3244,8.2537,8.2082,8.0893,7.816,7.7988,7.7694,7.6368,7.7555,7.8761,7.9329,8.0845,8.2107,8.2714,8.3498,8.4321,8.516,8.4785,8.4355,8.4058,8.2697,8.1429,8.0421,8.0275,8.0207,8.0288,7.9443,7.9291,7.9908,8.0742,8.1235,8.1501,8.1501,8.1501,8.1463,8.0629,8.0125,7.9898,7.9898,7.9898,7.9936,8.0163,8.0618,8.1148,8.169,8.26,8.3623,9.3655,9.3593,9.3328,9.2443,9.2292,9.2292,9.2292,9.1892,9.1592,9.1592,9.0405,8.9586,8.9586,8.8869,8.8398,8.8398,8.871,8.8556,8.7741,8.7248,8.6995,8.6995,8.6224,8.5226,8.404,8.322,8.1443,7.8702,7.9041,7.8592,7.7429,7.8035,7.8945,8.008,7.947,7.9651,8.038,7.9995,7.9069,7.7976,7.8407,7.7358,7.5691,7.7074,7.6559,7.5311,7.6678,7.7183,7.715,7.6978,7.6947,7.7108,7.7794,7.8437,7.9101,7.9939,8.1229,8.2372,8.2384,8.3623,8.4889,8.4889,8.4256,8.3851,8.4711,8.4218,8.3851,8.47,8.5044,8.4942,8.4067,8.4063,8.3342,8.0654,8.0918,8.077,7.8906,8.0049,8.111,8.111,8.26,8.3585,8.3585,8.4408,8.4992,8.5198,8.5219,8.4553,8.3066,8.2187,8.1251,8.0243,8.0195,8.0473,8.1084,8.0277,7.9898,7.9908,8.0742,8.1538,8.2372,8.2372,8.2372,8.2335,8.1463,8.0629,7.9898,7.9908,7.9908,7.9973,8.0769,8.111,8.13,8.2979,8.3585,8.3737,9.2835,9.2216,9.1761,9.1496,9.1458,9.123,9.0624,9.0659,9.0528,8.9926,8.9197,8.8874,8.9203,8.8737,8.8529,8.8841,8.8666,8.8473,8.8212,8.6693,8.6073,8.6606,8.6096,8.5226,8.404,8.2636,8.0981,7.9041,7.9158,7.9103,7.8871,7.8708,7.9496,8.0953,8.0044,8.0169,8.1023,8.0885,8.0315,7.9444,7.9459,7.8703,7.758,7.7408,7.702,7.6587,7.6501,7.6404,7.6482,7.7743,7.7696,7.7355,7.8636,7.9486,8.0077,8.0431,8.1079,8.1742,8.1851,8.2513,8.3422,8.4597,8.4711,8.4597,8.4851,8.4711,8.4597,8.4863,8.4947,8.4928,8.4662,8.4774,8.4403,8.2846,8.2906,8.2699,8.1458,8.169,8.1993,8.1993,8.2941,8.3585,8.3585,8.4408,8.4992,8.5198,8.5318,8.4716,8.3104,8.2633,8.1713,8.0243,8.0051,8.0087,8.0239,8.0011,8.0163,8.0731,8.0997,8.1235,8.1501,8.1501,8.1501,8.1463,8.0618,8.0125,7.9936,8.0515,8.039,7.9973,8.0769,8.1452,8.2069,8.2562,8.3498,8.456,9.1988,9.142,9.1003,9.0662,9.0586,9.0396,8.9866,9.0007,8.9953,8.9462,8.9125,8.9057,8.9361,8.9125,8.9071,8.9361,8.8661,8.7974,8.7449,8.6237,8.5774,8.622,8.5667,8.4947,8.4058,8.2427,8.1245,8.0517,8.0221,8.0068,8.0017,7.997,8.0355,8.1097,8.0673,8.066,8.0919,8.0915,8.0239,7.9195,7.9391,7.878,7.7788,7.8334,7.791,7.7075,7.7753,7.7521,7.7116,7.8855,7.9238,7.9056,7.9621,8.0284,8.0829,8.09,8.1327,8.1713,8.1805,8.2197,8.2893,8.4198,8.4438,8.4484,8.4813,8.4889,8.4889,8.4889,8.4889,8.4889,8.4889,8.5015,8.4767,8.376,8.4001,8.3856,8.2584,8.2979,8.3271,8.2903,8.3623,8.4105,8.4105,8.4597,8.4958,8.5066,8.4866,8.4303,8.3275,8.2475,8.1592,8.0604,8.0125,8.0049,8.0352,8.0049,8.0125,8.0618,8.1311,8.1614,8.1614,8.1955,8.1918,8.1576,8.0731,8.0212,7.9936,8.0428,8.0542,8.0428,8.0921,8.1652,8.241,8.241,8.3233,8.4408,9.1268,9.1079,9.0813,8.9942,8.979,8.979,8.979,8.979,8.979,8.979,8.979,8.979,8.979,8.979,8.979,8.979,8.862,8.7359,8.6219,8.59,8.5797,8.5872,8.5044,8.4462,8.4145,8.2527,8.1983,8.2596,8.182,8.1254,8.0957,8.1385,8.1337,8.0907,8.1341,8.1064,8.0332,8.0322,7.9381,7.7985,7.8716,7.8101,7.704,7.9558,7.8987,7.7175,7.9692,7.9568,7.8423,7.9944,8.0961,8.1442,8.0644,8.0832,8.131,8.1347,8.1704,8.2104,8.1954,8.2314,8.2874,8.3513,8.3612,8.376,8.4673,8.4889,8.4889,8.4889,8.4889,8.4889,8.4889,8.4889,8.4635,8.3851,8.437,8.437,8.2827,8.3953,8.4597,8.3699,8.4294,8.4738,8.4662,8.4662,8.4662,8.4662,8.3953,8.3472,8.3396,8.1929,8.1106,8.103,8.0331,8.0304,8.1024,8.0304,7.9979,8.0011,8.1501,8.2183,8.2183,8.2941,8.2903,8.2259,8.1447,8.0688,8.0044,8.0152,8.0521,8.103,8.1106,8.1587,8.2297,8.2297,8.2827,8.3623,9.1268,9.1079,9.0813,8.9942,8.979,8.979,8.979,8.979,8.979,8.979,8.979,8.979,8.979,8.979,8.979,8.979,8.8379,8.7649,8.7978,8.5837,8.4852,8.5491,8.438,8.3971,8.4381,8.3082,8.244,8.2596,8.1958,8.1873,8.2274,8.1143,8.1231,8.2372,8.1286,8.0776,8.0659,8.056,7.9934,7.8997,7.9152,7.9036,7.8781,7.9453,7.8991,7.802,7.8627,7.8165,7.7527,7.9046,8.0376,8.1375,8.1336,8.13,8.1369,8.1615,8.1597,8.1485,8.1439,8.1338,8.1294,8.1801,8.2399,8.3237,8.4594,8.4889,8.4889,8.4889,8.4889,8.4889,8.4889,8.4889,8.4851,8.4635,8.4787,8.4787,8.4408,8.4662,8.4597,8.3699,8.3775,8.3623,8.3017,8.2941,8.2941,8.2941,8.2789,8.2372,8.169,8.1436,8.1036,8.0428,8.0371,8.0449,8.064,8.0449,8.052,8.0856,8.0591,8.0439,8.0439,8.0618,8.0959,8.1387,8.1354,8.1237,8.1123,8.1992,8.1542,8.0466,8.1074,8.1349,8.1376,8.1376,8.2335,8.3699,9.0548,9.0472,9.0321,8.9866,9.0131,9.0283,8.9866,9.0169,9.0283,8.9866,8.979,8.979,8.979,8.979,8.9638,8.9259,8.8122,8.7402,8.7402,8.5583,8.4717,8.5121,8.4519,8.4343,8.467,8.4305,8.4128,8.4148,8.3432,8.326,8.3582,8.2893,8.2634,8.2735,8.2072,8.1178,8.0188,8.0093,7.9367,7.82,7.82,7.8433,7.8869,7.9316,7.8984,7.8399,7.9217,7.9147,7.8773,7.907,8.019,8.1443,8.1586,8.1552,8.1467,8.1654,8.1563,8.135,8.0872,8.0762,8.0882,8.1039,8.1592,8.2454,8.3934,8.4597,8.4889,8.4889,8.4889,8.4889,8.4889,8.4889,8.4889,8.4889,8.4889,8.4889,8.4889,8.456,8.4105,8.3661,8.3345,8.3031,8.2575,8.2537,8.2494,8.2422,8.2092,8.193,8.1881,8.1301,8.0954,8.0916,8.064,8.0506,8.0506,8.0506,8.0631,8.0832,8.0794,8.0694,8.0638,8.0705,8.0922,8.1219,8.1065,8.0964,8.1002,8.1576,8.1442,8.0906,8.0845,8.0998,8.1187,8.0699,8.1576,8.3142,8.979,8.979,8.9866,9.0017,9.0624,9.0889,9.0321,9.0851,9.1003,9.0131,9.0017,8.998,8.9828,8.979,8.9525,8.888,8.8084,8.7251,8.6379,8.5571,8.5041,8.4889,8.4889,8.4935,8.5015,8.5475,8.5755,8.5795,8.5074,8.4724,8.469,8.4841,8.4165,8.2812,8.2979,8.1865,7.9863,7.9728,7.8809,7.738,7.7281,7.7643,7.8395,7.921,7.9016,7.8506,8.0,8.0442,8.016,7.9254,8.0113,8.1529,8.1519,8.1569,8.1575,8.1608,8.1635,8.143,8.0394,8.0505,8.0877,8.0637,8.0949,8.1687,8.3041,8.4017,8.4723,8.4909,8.4958,8.4969,8.5015,8.5015,8.5015,8.5015,8.5015,8.5015,8.5015,8.4267,8.3671,8.3519,8.2807,8.2302,8.2302,8.2302,8.2268,8.2087,8.1562,8.154,8.2302,8.1213,8.0935,8.1737,8.101,8.0684,8.0798,8.0684,8.0607,8.0607,8.1296,8.1471,8.1246,8.1423,8.148,8.1436,8.0965,8.0753,8.0753,8.0789,8.1086,8.1451,8.064,8.0684,8.1116,8.0363,8.1084,8.2558,8.979,8.979,9.0055,9.0775,9.1003,9.1268,9.1875,9.2064,9.1837,9.1041,9.0927,9.0624,8.9866,8.979,8.9752,8.9638,8.8918,8.8084,8.7289,8.6417,8.5609,8.4927,8.4889,8.5055,8.5411,8.5483,8.5618,8.5787,8.5457,8.5191,8.5,8.4501,8.4048,8.37,8.3185,8.2311,8.1284,8.069,7.989,7.8945,7.8369,7.8228,7.8455,7.9273,7.9078,7.8483,7.9235,7.9294,7.9003,7.8895,7.9884,8.1191,8.1303,8.1324,8.1356,8.153,8.1679,8.1552,8.0539,8.0469,8.0577,8.0176,8.0564,8.1252,8.2045,8.3031,8.4059,8.498,8.5165,8.523,8.538,8.5421,8.5421,8.5421,8.5421,8.5421,8.5421,8.4658,8.3866,8.3141,8.171,8.0812,8.0812,8.0812,8.0803,8.0774,8.0679,8.0659,8.0774,8.0767,8.1141,8.1946,8.1371,8.1337,8.2067,8.1367,8.1021,8.1021,8.1137,8.0963,8.0621,8.0649,8.1022,8.1652,8.1751,8.1793,8.1793,8.2002,8.1631,8.0903,8.077,8.0553,8.0403,8.0781,8.1576,8.2558,8.979,8.979,8.9904,9.0321,9.1155,9.1723,9.1647,9.2405,9.2557,9.1268,9.1079,9.0775,8.9904,8.979,8.979,8.979,8.907,8.8463,8.8084,8.6834,8.595,8.5571,8.5254,8.5154,8.5318,8.5656,8.5877,8.5956,8.586,8.575,8.5645,8.5364,8.4765,8.3905,8.3579,8.2512,8.0877,8.0693,8.0104,7.9293,7.9118,7.902,7.917,8.0029,7.9795,7.9081,7.9238,7.9519,7.9791,7.959,8.0297,8.1203,8.1181,8.1174,8.1119,8.0715,8.0691,8.0473,7.912,7.9585,8.0339,7.9644,8.0349,8.1343,8.2005,8.2791,8.3628,8.4465,8.5016,8.5391,8.5491,8.5501,8.5501,8.5501,8.5501,8.5501,8.5501,8.4747,8.3955,8.3235,8.1675,8.0823,8.1292,8.0938,8.0625,8.0515,8.0607,8.067,8.067,8.0843,8.1135,8.148,8.1246,8.1285,8.1631,8.1285,8.1093,8.1093,8.1093,8.0965,8.067,8.0775,8.0958,8.1215,8.1406,8.1519,8.1519,8.16,8.1353,8.0973,8.0835,8.0625,8.0401,8.0684,8.1606,8.2828]}]]